[[{"header":{"parameterUnit":"m.s-1","parameterCategory":1,"la1":31.0,"la2":29.5877,"lo1":-88.7671,"lo2":-86.6584,"dx":0.0162,"dy":0.0185,"nx":115,"ny":88,"refTime":"2022-12-11T18:00:00:Z","depth":0,"parameterNumber":2,"parameterNumberName":"U-component_of_WINDS"},"data":[0.0,0.0,0.0,0.0,0.0,0.0,0.0,0.0,0.0,0.0,0.0,0.0,0.0,0.0,0.0,0.0,0.0,0.0,0.0,0.0,0.0,0.0,0.0,0.0,0.0,0.0,0.0,0.0,0.0,0.0,0.0,0.0,0.0,0.0,0.0,0.0,0.0,0.0,0.0,0.0,0.0,0.0,0.0,0.0,0.0,0.0,0.0,0.0,0.0,0.0,0.0,0.0,0.0,0.0,0.0,0.0,0.0,0.0,0.0,0.0,0.0,0.0,0.0,0.0,0.0,0.0,0.0,0.0,0.0,0.0,0.0,0.0,0.0,0.0,0.0,0.0,0.0,0.0,0.0,0.0,0.0,0.0,0.0,0.0,0.0,0.0,0.0,0.0,0.0,0.0,0.0,0.0,0.0,0.0,0.0,0.0,0.0,0.0,0.0,0.0,0.0,0.0,0.0,0.0,0.0,0.0,0.0,0.0,0.0,0.0,0.0,0.0,0.0,0.0,0.0,0.0,0.0,0.0,0.0,0.0,0.0,0.0,0.0,0.0,0.0,0.0,0.0,0.0,0.0,0.0,0.0,0.0,0.0,0.0,0.0,0.0,0.0,0.0,0.0,0.0,0.0,0.0,0.0,0.0,0.0,0.0,0.0,0.0,0.0,0.0,0.0,0.0,0.0,0.0,0.0,0.0,0.0,0.0,0.0,0.0,0.0,0.0,0.0,0.0,0.0,0.0,0.0,0.0,0.0,0.0,0.0,0.0,0.0,0.0,0.0,0.0,0.0,0.0,0.0,0.0,0.0,0.0,0.0,0.0,0.0,0.0,0.0,0.0,0.0,0.0,0.0,0.0,0.0,0.0,0.0,0.0,0.0,0.0,0.0,0.0,0.0,0.0,0.0,0.0,0.0,0.0,0.0,0.0,0.0,0.0,0.0,0.0,0.0,0.0,0.0,0.0,0.0,0.0,0.0,0.0,0.0,0.0,0.0,0.0,0.0,0.0,0.0,0.0,0.0,0.0,0.0,0.0,0.0,0.0,0.0,0.0,0.0,0.0,0.0,0.0,0.0,0.0,0.0,0.0,0.0,0.0,0.0,0.0,0.0,0.0,0.0,0.0,0.0,0.0,0.0,0.0,0.0,0.0,0.0,0.0,0.0,0.0,0.0,0.0,0.0,0.0,0.0,0.0,0.0,0.0,0.0,0.0,0.0,0.0,0.0,0.0,0.0,0.0,0.0,0.0,0.0,0.0,0.0,0.0,0.0,0.0,0.0,0.0,0.0,0.0,0.0,0.0,0.0,0.0,0.0,0.0,0.0,0.0,0.0,0.0,0.0,0.0,0.0,0.0,0.0,0.0,0.0,0.0,0.0,0.0,0.0,0.0,0.0,0.0,0.0,0.0,0.0,0.0,0.0,0.0,0.0,0.0,0.0,0.0,0.0,0.0,0.0,0.0,0.0,0.0,0.0,0.0,0.0,0.0,0.0,0.0,0.0,0.0,0.0,0.0,0.0,0.0,0.0,0.0,0.0,0.0,0.0,0.0,0.0,0.0,0.0,0.0,0.0,0.0,0.0,0.0,0.0,0.0,0.0,0.0,0.0,0.0,0.0,0.0,0.0,0.0,0.0,0.0,0.0,0.0,0.0,0.0,0.0,0.0,0.0,0.0,0.0,0.0,0.0,0.0,0.0,0.0,0.0,0.0,0.0,0.0,0.0,0.0,0.0,0.0,0.0,0.0,0.0,0.0,0.0,0.0,0.0,0.0,0.0,0.0,0.0,0.0,0.0,0.0,0.0,0.0,0.0,0.0,0.0,0.0,0.0,0.0,0.0,0.0,0.0,0.0,0.0,0.0,0.0,0.0,0.0,0.0,0.0,0.0,0.0,0.0,0.0,0.0,0.0,0.0,0.0,0.0,0.0,0.0,0.0,0.0,0.0,0.0,0.0,0.0,0.0,0.0,0.0,0.0,0.0,0.0,0.0,0.0,0.0,0.0,0.0,0.0,0.0,0.0,0.0,0.0,0.0,0.0,0.0,0.0,0.0,0.0,0.0,0.0,0.0,0.0,0.0,0.0,0.0,0.0,0.0,0.0,0.0,0.0,0.0,0.0,0.0,0.0,0.0,0.0,0.0,0.0,0.0,0.0,0.0,0.0,0.0,0.0,0.0,0.0,0.0,0.0,0.0,0.0,0.0,0.0,0.0,0.0,0.0,0.0,0.0,0.0,0.0,0.0,0.0,0.0,0.0,0.0,0.0,0.0,0.0,0.0,0.0,0.0,0.0,0.0,0.0,0.0,0.0,0.0,0.0,0.0,0.0,0.0,0.0,0.0,0.0,0.0,0.0,0.0,0.0,0.0,0.0,0.0,0.0,0.0,0.0,0.0,0.0,0.0,0.0,0.0,0.0,0.0,0.0,0.0,0.0,0.0,0.0,0.0,0.0,0.0,0.0,0.0,0.0,0.0,0.0,0.0,0.0,0.0,0.0,0.0,0.0,0.0,0.0,0.0,0.0,0.0,0.0,0.0,0.0,0.0,0.0,0.0,0.0,0.0,0.0,0.0,0.0,0.0,0.0,0.0,0.0,0.0,0.0,0.0,0.0,0.0,0.0,0.0,0.0,0.0,0.0,0.0,0.0,0.0,0.0,0.0,0.0,0.0,0.0,0.0,0.0,0.0,0.0,0.0,0.0,0.0,0.0,0.0,0.0,0.0,0.0,0.0,0.0,0.0,0.0,0.0,0.0,0.0,0.0,0.0,0.0,0.0,0.0,0.0,0.0,0.0,0.0,0.0,0.0,0.0,0.0,0.0,0.0,0.0,0.0,0.0,0.0,0.0,0.0,0.0,0.0,0.0,0.0,0.0,0.0,0.0,0.0,0.0,0.0,0.0,0.0,0.0,0.0,0.0,0.0,0.0,0.0,0.0,0.0,0.0,0.0,0.0,0.0,0.0,0.0,0.0,0.0,0.0,0.0,0.0,0.0,0.0,0.0,0.0,0.0,0.0,0.0,0.0,0.0,0.0,0.0,0.0,0.0,0.0,0.0,0.0,0.0,0.0,0.0,0.0,0.0,0.0,0.0,0.0,0.0,0.0,0.0,0.0,0.0,0.0,0.0,0.0,0.0,0.0,0.0,0.0,0.0,0.0,0.0,0.0,0.0,0.0,0.0,0.0,0.0,0.0,0.0,0.0,0.0,0.0,0.0,0.0,0.0,0.0,0.0,0.0,0.0,0.0,0.0,0.0,0.0,0.0,0.0,0.0,0.0,0.0,0.0,0.0,0.0,0.0,0.0,0.0,0.0,0.0,0.0,0.0,0.0,0.0,0.0,0.0,0.0,0.0,0.0,0.0,0.0,0.0,0.0,0.0,0.0,0.0,0.0,0.0,0.0,0.0,0.0,0.0,0.0,0.0,0.0,0.0,0.0,0.0,0.0,0.0,0.0,0.0,0.0,0.0,0.0,0.0,0.0,0.0,0.0,0.0,0.0,0.0,0.0,0.0,0.0,0.0,0.0,0.0,0.0,0.0,0.0,0.0,0.0,0.0,0.0,0.0,0.0,0.0,0.0,0.0,0.0,0.0,0.0,0.0,0.0,0.0,0.0,0.0,0.0,0.0,0.0,0.0,0.0,0.0,0.0,0.0,0.0,0.0,0.0,0.0,0.0,0.0,0.0,0.0,0.0,0.0,0.0,0.0,0.0,0.0,0.0,0.0,0.0,0.0,0.0,0.0,0.0,0.0,0.0,0.0,0.0,0.0,0.0,0.0,0.0,0.0,0.0,0.0,0.0,0.0,0.0,0.0,0.0,0.0,0.0,0.0,0.0,0.0,0.0,0.0,0.0,0.0,0.0,0.0,0.0,0.0,0.0,0.0,0.0,0.0,0.0,0.0,0.0,0.0,0.0,0.0,0.0,0.0,0.0,0.0,0.0,0.0,0.0,0.0,0.0,0.0,0.0,0.0,0.0,0.0,0.0,0.0,0.0,0.0,0.0,0.0,0.0,0.0,0.0,0.0,0.0,0.0,0.0,0.0,0.0,0.0,0.0,0.0,0.0,0.0,0.0,0.0,0.0,0.0,0.0,0.0,0.0,0.0,0.0,0.0,0.0,0.0,0.0,0.0,0.0,0.0,0.0,0.0,0.0,0.0,0.0,0.0,0.0,0.0,0.0,0.0,0.0,0.0,0.0,0.0,0.0,0.0,0.0,0.0,0.0,0.0,0.0,0.0,0.0,0.0,0.0,0.0,0.0,0.0,0.0,0.0,-0.3894,0.0,0.0,0.0,-0.2272,0.0,0.0,0.0,0.0,0.0,0.0,0.0,0.0,0.0,0.0,0.0,0.0,0.0,0.0,0.0,0.0,0.0,0.0,0.0,0.0,0.0,0.0,0.0,0.0,0.0,0.0,0.0,0.0,0.0,0.0,0.0,0.0,0.0,0.0,0.0,0.0,0.0,0.0,0.0,0.0,0.0,0.0,0.0,0.0,0.0,0.0,0.0,0.0,0.0,0.0,0.0,0.0,0.0,0.0,0.0,0.0,0.0,0.0,0.0,0.0,0.0,0.0,0.0,0.0,0.0,0.0,0.0,0.0,0.0,0.0,0.0,0.0,0.0,0.0,0.0,0.0,0.0,0.0,0.0,0.0,0.0,0.0,0.0,0.0,0.0,0.0,0.0,0.0,0.0,0.0,0.0,0.0,0.0,0.0,0.0,0.0,0.0,0.0,0.0,0.0,0.0,0.0,0.0,0.0,0.0,0.0,0.0,0.0,0.0,0.0,-0.3382,-0.2816,-0.2531,-0.2254,-0.1997,0.0,0.0,0.0,0.0,0.0,0.0,0.0,0.0,0.0,0.0,0.0,0.0,0.0,0.0,0.0,0.0,0.0,0.0,0.0,0.0,0.0,0.0,0.0,0.0,0.0,0.0,0.0,0.0,0.0,0.0,0.0,0.0,0.0,0.0,0.0,0.0,0.0,0.0,0.0,0.0,0.0,0.0,0.0,0.0,0.0,0.0,0.0,0.0,0.0,0.0,0.0,0.0,0.0,0.0,0.0,0.0,0.0,0.0,0.0,0.0,0.0,0.0,0.0,0.0,0.0,0.0,0.0,0.0,0.0,0.0,0.0,0.0,0.0,0.0,0.0,0.0,0.0,0.0,0.0,0.0,0.0,0.0,0.0,0.0,0.0,0.0,0.0,0.0,0.0,0.0,0.0,0.0,0.0,0.0,0.0,0.0,0.0,0.0,0.0,0.0,0.0,0.0,0.0,0.0,0.0,0.0,0.0,0.0,0.0,0.0,0.0,0.0,-0.2193,-0.2099,-0.1945,0.0,0.0,0.0,0.0,0.0,0.0,0.0,0.0,0.0,0.0,0.0,0.0,0.0,0.0,0.0,0.0,0.0,0.0,0.0,0.0,0.0,0.0,0.0,0.0,0.0,0.0,0.0,0.0,0.0,0.0,0.0,0.0,0.0,0.0,0.0,0.0,0.0,0.0,0.0,0.0,0.0,0.0,0.0,0.0,0.0,0.0,0.0,0.0,0.0,0.0,0.0,0.0,0.0,0.0,0.0,0.0,0.0,0.0,0.0,0.0,0.0,0.0,0.0,0.0,0.0,0.0,0.0,0.0,0.0,0.0,0.0,0.0,0.0,0.0,0.0,0.0,0.0,0.0,0.0,0.0,0.0,0.0,0.0,0.0,0.0,0.0,0.0,0.0,0.0,0.0,0.0,0.0,0.0,0.0,0.0,0.0,0.0,0.0,0.0,0.0,0.0,0.0,0.0,0.0,0.0,0.0,0.0,0.0,0.0,0.0,-0.2341,-0.2371,-0.2135,0.0,-0.2331,0.0,0.0,0.0,0.0,0.0,0.0,0.0,0.0,0.0,0.0,0.0,0.0,0.0,0.0,0.0,0.0,0.0,0.0,0.0,0.0,0.0,0.0,0.0,0.0,0.0,0.0,0.0,0.0,0.0,0.0,0.0,0.0,0.0,0.0,0.0,0.0,0.0,0.0,0.0,0.0,0.0,0.0,0.0,0.0,0.0,0.0,0.0,0.0,0.0,0.0,0.0,0.0,0.0,0.0,0.0,0.0,0.0,0.0,0.0,0.0,0.0,0.0,0.0,0.0,0.0,0.0,0.0,0.0,0.0,0.0,0.0,0.0,0.0,0.0,0.0,0.0,0.0,0.0,0.0,0.0,0.0,0.0,0.0,0.0,0.0,0.0,0.0,0.0,0.0,0.0,0.0,0.0,0.0,0.0,0.0,0.0,0.0,0.0,0.0,0.0,0.0,0.0,0.0,0.0,0.0,0.0,0.0,0.0,0.0,0.0,-0.2279,-0.2181,-0.2057,-0.2016,0.0,0.0,0.0,0.0,0.0,0.0,0.0,0.0,0.0,0.0,0.0,0.0,0.0,0.0,0.0,0.0,0.0,0.0,0.0,0.0,0.0,0.0,0.0,0.0,0.0,0.0,0.0,0.0,0.0,0.0,0.0,0.0,0.0,0.0,0.0,0.0,0.0,0.0,0.0,0.0,0.0,0.0,0.0,0.0,0.0,0.0,0.0,0.0,0.0,0.0,0.0,0.0,0.0,0.0,0.0,0.0,0.0,0.0,0.0,0.0,0.0,0.0,0.0,0.0,0.0,0.0,0.0,0.0,0.0,0.0,0.0,0.0,0.0,0.0,0.0,0.0,0.0,0.0,0.0,0.0,0.0,0.0,0.0,0.0,0.0,0.0,0.0,0.0,0.0,0.0,0.0,0.0,0.0,0.0,0.0,0.0,0.0,0.0,0.0,0.0,0.0,0.0,0.0,0.0,0.0,0.0,0.0,0.0,0.0,0.0,-0.1918,-0.1946,-0.1883,-0.1915,-0.1879,-0.1809,0.0,0.0,0.0,0.0,0.0,0.0,0.0,0.0,0.0,0.0,0.0,0.0,0.0,0.0,0.0,0.0,0.0,0.0,0.0,0.0,0.0,0.0,0.0,0.0,0.0,0.0,0.0,0.0,0.0,0.0,0.0,0.0,0.0,0.0,0.0,0.0,0.0,0.0,0.0,0.0,0.0,0.0,0.0,0.0,0.0,0.0,0.0,0.0,0.0,0.0,0.0,0.0,0.0,0.0,0.0,0.0,0.0,0.0,0.0,0.0,0.0,0.0,0.0,0.0,0.0,0.0,0.0,0.0,0.0,0.0,0.0,0.0,0.0,0.0,0.0,0.0,0.0,0.0,0.0,0.0,0.0,0.0,0.0,0.0,0.0,0.0,0.0,0.0,0.0,0.0,0.0,0.0,0.0,0.0,0.0,0.0,0.0,0.0,0.0,0.0,0.0,0.0,0.0,0.0,0.0,0.0,0.0,0.0,-0.1582,-0.1194,-0.1168,-0.1605,-0.1747,-0.1795,0.0,0.0,0.0,0.0,0.0,0.0,0.0,0.0,0.0,0.0,0.0,0.0,0.0,0.0,0.0,0.0,0.0,0.0,0.0,0.0,0.0,0.0,0.0,0.0,0.0,0.0,0.0,0.0,0.0,0.0,0.0,0.0,0.0,0.0,0.0,0.0,0.0,0.0,0.0,0.0,0.0,0.0,0.0,0.0,0.0,0.0,0.0,0.0,0.0,0.0,0.0,0.0,0.0,0.0,0.0,0.0,0.0,0.0,0.0,0.0,0.0,0.0,0.0,0.0,0.0,0.0,0.0,0.0,0.0,0.0,0.0,0.0,0.0,0.0,0.0,0.0,0.0,0.0,0.0,0.0,0.0,0.0,0.0,0.0,0.0,0.0,0.0,0.0,0.0,0.0,0.0,0.0,0.0,0.0,0.0,0.0,0.0,0.0,0.0,0.0,0.0,0.0,0.0,0.0,0.0,0.0,0.0,0.0,0.0,-0.1164,-0.1068,-0.1143,-0.1409,-0.1388,-0.1326,0.0,0.0,0.0,0.0,0.0,0.0,0.0,0.0,0.0,0.0,0.0,0.0,0.0,0.0,0.0,0.0,0.0,0.0,0.0,0.0,0.0,0.0,0.0,0.0,0.0,0.0,0.0,0.0,0.0,0.0,0.0,0.0,0.0,0.0,0.0,0.0,0.0,0.0,0.0,0.0,0.0,0.0,0.0,0.0,0.0,0.0,0.0,0.0,0.0,0.0,0.0,0.0,0.0,0.0,0.0,0.0,0.0,0.0,0.0,0.0,0.0,0.0,0.0,0.0,0.0,0.0,0.0,0.0,0.0,0.0,0.0,0.0,0.0,0.0,0.0,0.0,0.0,0.0,0.0,0.0,0.0,0.0,0.0,0.0,0.0,0.0,0.0,0.0,0.0,0.0,0.0,0.0,0.0,0.0,0.0,0.0,0.0,0.0,0.0,0.0,0.0,0.0,0.0,0.0,0.0,0.0,0.0,0.0,0.0,-0.0835,-0.0924,-0.1059,-0.1209,-0.1072,-0.0918,0.0,0.0,0.0,0.0,0.0,0.0,0.0,0.0,0.0,0.0,0.0,0.0,0.0,0.0,0.0,0.0,0.0,0.0,0.0,0.0,0.0,0.0,0.0,0.0,0.0,0.0,0.0,0.0,0.0,0.0,0.0,0.0,0.0,0.0,0.0,0.0,0.0,0.0,0.0,0.0,0.0,0.0,0.0,0.0,0.0,0.0,0.0,0.0,0.0,0.0,0.0,0.0,0.0,0.0,0.0,0.0,0.0,0.0,0.0,0.0,0.0,0.0,0.0,0.0,0.0,0.0,0.0,0.0,0.0,0.0,0.0,0.0,0.0,0.0,0.0,0.0,0.0,0.0,0.0,0.0,0.0,0.0,0.0,0.0,0.0,0.0,0.0,0.0,0.0,0.0,0.0,0.0,0.0,0.0,0.0,0.0,0.0,0.0,0.0,0.0,0.0,0.0,0.0,0.0,0.0,0.0,0.0,0.0,-0.0299,-0.0674,-0.0745,-0.0861,-0.1094,-0.0832,-0.0698,0.0,0.0,0.0,0.0,0.0,0.0,0.0,0.0,0.0,0.0,0.0,0.0,0.0,0.0,0.0,0.0,0.0,0.0,0.0,0.0,0.0,0.0,0.0,0.0,0.0,0.0,0.0,0.0,0.0,0.0,0.0,0.0,0.0,0.0,0.0,0.0,0.0,0.0,0.0,0.0,0.0,0.0,0.0,0.0,0.0,0.0,0.0,0.0,0.0,0.0,0.0,0.0,0.0,0.0,0.0,0.0,0.0,0.0,0.0,0.0,0.0,0.0,0.0,0.0,0.0,0.0,0.0,0.0,0.0,0.0,0.0,0.0,0.0,0.0,0.0,0.0,0.0,0.0,0.0,0.0,0.0,0.0,0.0,0.0,0.0,0.0,0.0,0.0,0.0,0.0,0.0,0.0,0.0,0.0,0.0,0.0,0.0,0.0,0.0,0.0,0.0,0.0,0.0,0.0,0.0,0.0,0.0,0.0,0.0,-0.1159,-0.1442,-0.1279,-0.0669,-0.067,-0.0582,0.0,0.0,0.0,0.0,0.0,0.0,0.0,0.0,0.0,0.0,0.0,0.0,0.0,0.0,0.0,0.0,0.0,0.0,0.0,0.0,0.0,0.0,0.0,0.0,0.0,0.0,0.0,0.0,0.0,0.0,0.0,0.0,0.0,0.0,0.0,0.0,0.0,0.0,0.0,0.0,0.0,0.0,0.0,0.0,0.0,0.0,0.0,0.0,0.0,0.0,0.0,0.0,0.0,0.0,0.0,0.0,0.0,0.0,0.0,0.0,0.0,0.0,0.0,0.0,0.0,0.0,0.0,0.0,0.0,0.0,0.0,0.0,0.0,0.0,0.0,0.0,0.0,0.0,0.0,0.0,0.0,0.0,0.0,0.0,0.0,0.0,0.0,0.0,0.0,0.0,0.0,0.0,0.0,0.0,0.0,0.0,0.0,0.0,0.0,0.0,0.0,0.0,0.0,0.0,0.0,0.0,0.0,0.0,0.0,-0.3299,-0.3077,-0.2606,-0.1842,-0.1378,-0.0931,-0.0539,0.0,0.0,0.0,0.0,0.0,0.0,0.0,0.0,0.0,0.0,0.0,0.0,0.0,0.0,0.0,0.0,0.0,0.0,0.0,0.0,0.0,0.0,0.0,0.0,0.0,0.0,0.0,0.0,0.0,0.0,0.0,0.0,0.0,0.0,0.0,0.0,0.0,0.0,0.0,0.0,0.0,0.0,0.0,0.0,0.0,0.0,0.0,0.0,0.0,0.0,0.0,0.0,0.0,0.0,0.0,0.0,0.0,0.0,0.0,0.0,0.0,0.0,0.0,0.0,0.0,0.0,0.0,0.0,0.0,0.0,0.0,0.0,0.0,0.0,0.0,0.0,0.0,0.0,0.0,0.0,0.0,0.0,0.0,0.0,0.0,0.0,0.0,0.0,0.0,0.0,0.0,0.0,0.0,0.0,0.0,0.0,0.0,0.0,0.0,0.0,0.0,0.0,0.0,0.0,0.0,0.0,0.0,0.0,-0.6775,-0.5567,-0.471,-0.4164,-0.2691,-0.1662,0.0,0.0,0.0,0.0,0.0,0.0,0.0,0.0,0.0,0.0,0.0,0.0,0.0,0.0,0.0,0.0,0.0,0.0,0.0,0.0,0.0,0.0,0.0,0.0,0.0,0.0,0.0,0.0,0.0,0.0,0.0,0.0,0.0,0.0,0.0,0.0,0.0,0.0,0.0,0.0,0.0,0.0,0.0,0.0,0.0,0.0,0.0,0.0,0.0,0.0,0.0,0.0,0.0,0.0,0.0,0.0,0.0,0.0,0.0,0.0,0.0,0.0,0.0,0.0,0.0,0.0,0.0,0.0,0.0,0.0,0.0,0.0,0.0,0.0,0.0,0.0,0.0,0.0,0.0,0.0,0.0,0.0,0.0,0.0,0.0,0.0,0.0,0.0,0.0,0.0,0.0,0.0,0.0,0.0,0.0,0.0,0.0,0.0,0.0,0.0,0.0,0.0,0.0,0.0,0.0,0.0,0.0,0.0,0.0,-0.9831,-0.923,-0.7464,-0.4471,-0.3655,-0.2754,0.0,0.0,0.0,0.0,0.0,0.0,0.0,0.0,0.0,0.0,0.0,0.0,0.0,0.0,0.0,0.0,0.0,0.0,0.0,0.0,0.0,0.0,0.0,0.0,0.0,0.0,0.0,0.0,0.0,0.0,0.0,0.0,0.0,0.0,0.0,0.0,0.0,0.0,0.0,0.0,0.0,0.0,0.0,0.0,0.0,0.0,0.0,0.0,0.0,0.0,0.0,0.0,0.0,0.0,0.0,0.0,0.0,0.0,0.0,0.0,0.0,0.0,0.0,0.0,0.0,0.0,0.0,0.0,0.0,0.0,0.0,0.0,0.0,0.0,0.0,0.0,0.0,0.0,0.0,0.0,0.0,0.0,0.0,0.0,0.0,0.0,0.0,0.0,0.0,0.0,0.0,0.0,0.0,0.0,0.0,0.0,0.0,0.0,0.0,0.0,0.0,0.0,0.0,0.0,0.0,0.0,0.0,0.0,-1.0248,-1.1278,-1.1464,-1.0059,-0.7057,-0.555,-0.4163,0.0,0.0,0.0,0.0,0.0,0.0,0.0,0.0,0.0,0.0,0.0,0.0,0.0,0.0,0.0,0.0,0.0,0.0,0.0,0.0,0.0,0.0,0.0,0.0,0.0,0.0,0.0,0.0,0.0,0.0,0.0,0.0,0.0,0.0,0.0,0.0,0.0,0.0,0.0,0.0,0.0,0.0,0.0,0.0,0.0,0.0,0.0,0.0,0.0,0.0,0.0,0.0,0.0,0.0,0.0,0.0,0.0,0.0,0.0,0.0,0.0,0.0,0.0,0.0,0.0,0.0,0.0,0.0,0.0,0.0,0.0,0.0,0.0,0.0,0.0,0.0,0.0,0.0,0.0,0.0,0.0,0.0,0.0,0.0,0.0,0.0,0.0,0.0,0.0,0.0,0.0,0.0,0.0,0.0,0.0,0.0,0.0,0.0,0.0,0.0,0.0,0.0,0.0,0.0,0.0,0.0,0.0,0.0,-1.1523,-1.1963,-1.2626,-1.2251,-1.0746,-0.7889,-0.5641,0.0,0.0,0.0,0.0,0.0,0.0,0.0,0.0,0.0,0.0,0.0,0.0,0.0,0.0,0.0,0.0,0.0,0.0,0.0,0.0,0.0,0.0,0.0,0.0,0.0,0.0,0.0,0.0,0.0,0.0,0.0,0.0,0.0,0.0,0.0,0.0,0.0,0.0,0.0,0.0,0.0,0.0,0.0,0.0,0.0,0.0,0.0,0.0,0.0,0.0,0.0,0.0,0.0,0.0,0.0,0.0,0.0,0.0,0.0,0.0,0.0,0.0,0.0,0.0,0.0,0.0,0.0,0.0,0.0,0.0,0.0,0.0,0.0,0.0,0.0,0.0,0.0,0.0,0.0,0.0,0.0,0.0,0.0,0.0,0.0,0.0,0.0,0.0,0.0,0.0,0.0,0.0,0.0,0.0,0.0,0.0,0.0,0.0,0.0,0.0,0.0,0.0,0.0,0.0,0.0,0.0,0.0,0.0,-1.2401,-1.411,-1.3411,-1.2818,-1.2496,-0.9075,-0.6502,0.0,0.0,0.0,0.0,0.0,0.0,0.0,0.0,0.0,0.0,0.0,0.0,0.0,0.0,0.0,0.0,0.0,0.0,0.0,0.0,0.0,0.0,0.0,0.0,0.0,0.0,0.0,0.0,0.0,0.0,0.0,0.0,0.0,0.0,0.0,0.0,0.0,0.0,0.0,0.0,0.0,0.0,0.0,0.0,0.0,0.0,0.0,0.0,-0.8355,0.0,0.0,0.0,0.0,0.0,0.0,0.0,0.0,0.0,0.0,0.0,0.0,0.0,0.0,0.0,0.0,0.0,0.0,0.0,0.0,0.0,0.0,0.0,0.0,0.0,0.0,0.0,0.0,0.0,0.0,0.0,0.0,0.0,0.0,0.0,0.0,0.0,0.0,0.0,0.0,0.0,0.0,0.0,0.0,0.0,0.0,0.0,0.0,0.0,0.0,0.0,0.0,0.0,0.0,0.0,0.0,0.0,0.0,0.0,-1.3072,-1.4999,-1.4038,-1.3512,-1.3383,-1.0386,-0.7809,0.0,0.0,0.0,0.0,0.0,0.0,0.0,0.0,0.0,0.0,0.0,0.0,0.0,0.0,0.0,0.0,0.0,0.0,0.0,0.0,0.0,0.0,0.0,0.0,0.0,0.0,0.0,0.0,0.0,0.0,0.0,0.0,0.0,0.0,0.0,0.0,0.0,0.0,0.0,0.0,0.0,0.0,0.0,0.0,0.0,0.0,0.0,0.0,0.0,0.0,0.0,0.0,0.0,0.0,0.0,0.0,0.0,0.0,0.0,0.0,0.0,0.0,0.0,0.0,0.0,0.0,0.0,0.0,0.0,0.0,0.0,0.0,0.0,0.0,0.0,0.0,0.0,0.0,0.0,0.0,0.0,0.0,0.0,0.0,0.0,0.0,0.0,0.0,0.0,0.0,0.0,0.0,0.0,0.0,0.0,0.0,0.0,0.0,0.0,0.0,0.0,0.0,0.0,0.0,0.0,0.0,0.0,-1.178,-1.359,-1.5415,-1.4711,-1.4155,-1.3899,-1.1515,-0.9044,-0.6663,0.0,0.0,0.0,0.0,0.0,0.0,0.0,0.0,0.0,0.0,0.0,0.0,0.0,0.0,0.0,0.0,0.0,0.0,0.0,0.0,0.0,0.0,0.0,0.0,0.0,0.0,0.0,0.0,0.0,0.0,0.0,0.0,0.0,0.0,0.0,0.0,0.0,0.0,-0.3779,-0.5258,0.0,0.0,0.0,0.0,0.0,0.0,0.0,0.0,-0.7879,0.0,0.0,0.0,0.0,0.0,0.0,0.0,0.0,0.0,0.0,0.0,0.0,0.0,0.0,0.0,0.0,0.0,0.0,0.0,0.0,0.0,0.0,0.0,0.0,0.0,0.0,0.0,0.0,0.0,0.0,0.0,0.0,0.0,0.0,0.0,0.0,0.0,0.0,0.0,0.0,0.0,0.0,0.0,0.0,0.0,0.0,0.0,0.0,0.0,0.0,0.0,0.0,0.0,0.0,0.0,0.0,-1.2275,-1.2675,-1.3917,-1.6156,-1.5471,-1.4431,-1.3308,-1.1465,-0.9492,-0.7415,0.0,0.0,0.0,0.0,0.0,0.0,0.0,0.0,0.0,0.0,0.0,0.0,0.0,0.0,0.0,0.0,0.0,0.0,0.0,0.0,0.0,0.0,0.0,0.0,0.0,0.0,0.0,0.0,0.0,0.0,0.0,0.0,0.0,0.0,0.0,0.0,0.0,0.0,0.0,-0.7666,-0.7842,0.0,0.0,0.0,0.0,0.0,0.0,0.0,0.0,-0.9727,0.0,0.0,0.0,0.0,0.0,0.0,0.0,0.0,0.0,0.0,0.0,0.0,0.0,0.0,0.0,0.0,0.0,0.0,0.0,0.0,0.0,0.0,0.0,0.0,0.0,0.0,0.0,0.0,0.0,0.0,0.0,0.0,0.0,0.0,0.0,0.0,0.0,0.0,0.0,0.0,0.0,0.0,0.0,0.0,0.0,0.0,0.0,0.0,0.0,0.0,0.0,0.0,0.0,0.0,0.0,-1.2589,-1.4351,-1.6081,-1.7759,-1.6448,-1.5324,-1.4458,-1.2112,-0.9813,0.0,0.0,0.0,0.0,0.0,0.0,0.0,0.0,0.0,0.0,0.0,0.0,0.0,0.0,0.0,0.0,0.0,0.0,0.0,0.0,0.0,0.0,0.0,0.0,0.0,0.0,0.0,0.0,0.0,0.0,0.0,0.0,0.0,0.0,0.0,0.0,0.0,0.0,0.0,0.0,-0.8646,-0.8861,-0.9829,0.0,0.0,0.0,0.0,0.0,0.0,-0.9322,-0.9556,0.0,0.0,0.0,0.0,0.0,0.0,0.0,0.0,0.0,0.0,0.0,0.0,0.0,0.0,0.0,0.0,0.0,0.0,0.0,0.0,0.0,0.0,0.0,0.0,0.0,0.0,0.0,0.0,0.0,0.0,0.0,0.0,0.0,0.0,0.0,0.0,0.0,0.0,0.0,0.0,0.0,0.0,0.0,0.0,0.0,0.0,0.0,0.0,0.0,0.0,0.0,0.0,0.0,0.0,0.0,-1.2715,-1.5908,-1.8114,-1.9149,-1.7614,-1.6396,-1.5568,-1.2787,-1.0171,0.0,0.0,0.0,0.0,0.0,0.0,0.0,0.0,0.0,0.0,0.0,0.0,0.0,0.0,0.0,0.0,0.0,0.0,0.0,0.0,0.0,0.0,0.0,0.0,0.0,0.0,0.0,0.0,0.0,0.0,0.0,0.0,0.0,0.0,0.0,0.0,0.0,0.0,0.0,0.0,0.0,-1.0029,-1.1158,-1.0468,0.0,0.0,0.0,0.0,-0.8249,-0.9767,0.0,0.0,0.0,0.0,0.0,0.0,0.0,0.0,0.0,0.0,0.0,0.0,0.0,0.0,0.0,0.0,0.0,0.0,0.0,0.0,0.0,0.0,0.0,0.0,0.0,0.0,0.0,0.0,0.0,0.0,0.0,0.0,0.0,0.0,0.0,0.0,0.0,0.0,0.0,0.0,0.0,0.0,0.0,0.0,0.0,0.0,0.0,0.0,0.0,0.0,0.0,0.0,0.0,0.0,0.0,0.0,-1.3135,-1.6415,-1.8382,-1.8999,-1.8822,-1.7431,-1.4965,-1.3088,-1.0635,0.0,0.0,0.0,0.0,0.0,0.0,0.0,0.0,0.0,0.0,0.0,0.0,0.0,0.0,0.0,0.0,0.0,0.0,0.0,0.0,0.0,0.0,0.0,0.0,0.0,0.0,0.0,0.0,0.0,0.0,0.0,0.0,0.0,0.0,0.0,0.0,0.0,0.0,0.0,0.0,0.0,-1.1723,-1.1722,-1.1825,-1.1352,0.0,0.0,-0.9701,-0.9933,-1.3168,0.0,0.0,0.0,0.0,0.0,0.0,0.0,0.0,0.0,0.0,0.0,0.0,0.0,0.0,0.0,0.0,0.0,0.0,0.0,0.0,0.0,0.0,0.0,0.0,0.0,0.0,0.0,0.0,0.0,0.0,0.0,0.0,0.0,0.0,0.0,0.0,0.0,0.0,0.0,0.0,0.0,0.0,0.0,0.0,0.0,0.0,0.0,0.0,0.0,0.0,0.0,0.0,0.0,0.0,0.0,-1.2294,-1.3887,-1.8375,-2.0693,-2.0676,-2.0044,-1.8913,-1.7352,-1.4544,-1.1597,0.0,0.0,0.0,0.0,0.0,0.0,0.0,0.0,0.0,0.0,0.0,0.0,0.0,0.0,0.0,0.0,0.0,0.0,0.0,0.0,0.0,0.0,0.0,0.0,0.0,0.0,0.0,0.0,0.0,0.0,0.0,0.0,0.0,0.0,0.0,0.0,0.0,0.0,0.0,0.0,0.0,0.0,-1.3089,-1.4391,0.0,0.0,0.0,-1.2112,-1.0425,0.0,0.0,0.0,0.0,0.0,0.0,0.0,0.0,0.0,0.0,0.0,0.0,0.0,0.0,0.0,0.0,0.0,0.0,0.0,0.0,0.0,0.0,0.0,0.0,0.0,0.0,0.0,0.0,0.0,0.0,0.0,0.0,0.0,0.0,0.0,0.0,0.0,0.0,0.0,0.0,0.0,0.0,0.0,0.0,0.0,0.0,0.0,0.0,0.0,0.0,0.0,0.0,0.0,0.0,0.0,0.0,0.0,-1.4295,-2.0315,-2.2961,-2.1938,-2.131,-2.0447,-1.9332,-1.6272,0.0,0.0,0.0,0.0,0.0,0.0,0.0,0.0,0.0,0.0,0.0,0.0,0.0,0.0,0.0,0.0,0.0,0.0,0.0,0.0,0.0,0.0,0.0,0.0,0.0,0.0,0.0,-0.2554,0.0,0.0,0.0,0.0,0.0,0.0,0.0,0.0,0.0,0.0,0.0,0.0,0.0,0.0,-1.2555,-1.4387,-1.6674,-1.7323,0.0,0.0,-1.409,-1.1752,-1.4032,-1.4332,0.0,0.0,0.0,0.0,0.0,0.0,0.0,0.0,0.0,0.0,0.0,0.0,0.0,0.0,0.0,0.0,0.0,0.0,0.0,0.0,0.0,0.0,0.0,0.0,0.0,0.0,0.0,0.0,0.0,0.0,0.0,0.0,0.0,0.0,0.0,0.0,0.0,0.0,0.0,0.0,0.0,0.0,0.0,0.0,0.0,0.0,0.0,0.0,0.0,0.0,0.0,0.0,0.0,0.0,-1.4456,-1.4447,-2.169,-2.4347,-2.203,-2.2798,-2.213,-1.9815,-1.8267,-1.5079,0.0,0.0,0.0,0.0,0.0,0.0,0.0,0.0,0.0,0.0,0.0,0.0,0.0,0.0,0.0,0.0,0.0,0.0,0.0,0.0,0.0,0.0,0.0,0.0,0.0,0.0,0.0,0.0,0.0,0.0,0.0,0.0,0.0,0.0,0.0,0.0,0.0,0.0,0.0,0.0,0.0,-1.3768,-1.5396,-1.7887,-1.9228,0.0,-1.5923,-1.4443,-1.4789,-1.5701,-1.486,-1.005,0.0,0.0,0.0,0.0,0.0,0.0,0.0,0.0,0.0,0.0,0.0,0.0,0.0,0.0,0.0,0.0,0.0,0.0,0.0,0.0,0.0,0.0,0.0,0.0,0.0,0.0,0.0,0.0,0.0,0.0,0.0,0.0,0.0,0.0,0.0,0.0,0.0,0.0,0.0,0.0,0.0,0.0,0.0,0.0,0.0,0.0,0.0,0.0,0.0,0.0,0.0,0.0,0.0,-1.5432,-1.572,-2.2264,-2.4999,-2.3772,-2.3382,-2.2666,-2.1492,-1.9678,-1.6628,0.0,0.0,0.0,0.0,0.0,0.0,0.0,0.0,0.0,0.0,0.0,0.0,0.0,0.0,0.0,0.0,0.0,0.0,0.0,0.0,0.0,0.0,0.0,0.0,0.0,0.0,0.0,0.0,-0.5102,-0.548,-0.5337,0.0,0.0,0.0,0.0,0.0,0.0,0.0,0.0,0.0,0.0,-1.5186,-1.7014,-1.8871,0.0,0.0,-1.6804,-1.5829,-1.3982,-1.4405,-1.3635,-0.9614,-0.8844,0.0,0.0,0.0,0.0,0.0,0.0,0.0,0.0,0.0,0.0,0.0,0.0,0.0,0.0,0.0,0.0,0.0,0.0,0.0,0.0,0.0,0.0,0.0,0.0,0.0,0.0,0.0,0.0,0.0,0.0,0.0,0.0,0.0,0.0,0.0,0.0,0.0,0.0,0.0,0.0,0.0,0.0,0.0,0.0,0.0,0.0,0.0,0.0,0.0,0.0,0.0,0.0,-1.5732,-1.6065,-2.2671,-2.554,-2.4286,-2.3877,-2.3325,-2.2676,-2.1103,-1.8485,0.0,0.0,0.0,0.0,0.0,0.0,0.0,0.0,0.0,0.0,0.0,0.0,0.0,0.0,0.0,0.0,0.0,0.0,0.0,0.0,0.0,0.0,0.0,0.0,0.0,0.0,0.0,0.0,-0.534,-0.538,-0.4614,0.0,0.0,0.0,0.0,0.0,0.0,0.0,0.0,0.0,0.0,-1.6033,-1.7275,-1.829,-1.8205,-1.6387,-1.5499,-1.444,-1.2822,-1.2945,-1.2347,-0.9645,0.0,0.0,0.0,0.0,0.0,0.0,0.0,0.0,0.0,0.0,0.0,0.0,0.0,0.0,0.0,0.0,0.0,0.0,0.0,0.0,0.0,0.0,0.0,0.0,0.0,0.0,0.0,-0.5893,0.0,0.0,-0.5888,0.0,0.0,0.0,0.0,0.0,0.0,0.0,0.0,0.0,0.0,0.0,0.0,0.0,0.0,0.0,0.0,0.0,0.0,0.0,0.0,0.0,0.0,-1.5209,-1.507,-2.3041,-2.5876,-2.329,-2.4211,-2.4211,-2.3105,-2.2666,-2.0732,-1.7166,0.0,0.0,0.0,0.0,0.0,0.0,0.0,0.0,0.0,0.0,0.0,0.0,0.0,0.0,0.0,0.0,0.0,0.0,0.0,0.0,0.0,0.0,0.0,0.0,0.0,0.0,-0.2581,-0.2961,-0.3691,0.0,0.0,0.0,0.0,0.0,0.0,0.0,0.0,0.0,-1.0469,-1.3841,-1.602,-1.5924,-1.5732,-1.5574,-1.5044,-1.1626,-0.9658,-1.1773,-1.1838,-1.1332,0.0,0.0,0.0,0.0,0.0,0.0,0.0,0.0,0.0,0.0,0.0,0.0,0.0,0.0,0.0,0.0,0.0,0.0,0.0,0.0,0.0,0.0,0.0,0.0,0.0,0.0,0.0,-0.8673,-0.9401,0.0,0.0,0.0,0.0,0.0,0.0,0.0,0.0,0.0,0.0,0.0,-1.2988,-1.2489,0.0,0.0,0.0,0.0,0.0,0.0,0.0,0.0,0.0,0.0,0.0,0.0,-1.5527,-1.6258,-2.2347,-2.5206,-2.4296,-2.3887,-2.3464,-2.3135,-2.2725,-2.0673,-1.6876,0.0,0.0,0.0,0.0,0.0,0.0,0.0,0.0,0.0,0.0,0.0,0.0,0.0,0.0,0.0,0.0,0.0,0.0,0.0,0.0,0.0,0.0,0.0,0.0,0.0,-0.4272,0.0,0.0,0.0,0.0,0.0,0.0,0.0,0.0,0.0,0.0,0.0,-1.0287,-1.2088,-1.4296,-1.5704,-1.571,-1.6092,-1.6147,0.0,0.0,0.0,0.0,0.0,0.0,0.0,0.0,0.0,0.0,0.0,0.0,0.0,0.0,-1.6955,-1.3075,-1.3184,-1.3899,-1.3927,0.0,0.0,0.0,0.0,0.0,0.0,0.0,0.0,0.0,0.0,0.0,0.0,0.0,0.0,-1.1196,0.0,-1.1153,0.0,0.0,0.0,0.0,0.0,0.0,0.0,0.0,-1.285,-1.4083,-1.4809,-1.4431,-1.3983,0.0,-1.1472,-0.9702,0.0,0.0,0.0,0.0,0.0,0.0,0.0,0.0,-1.5659,-1.6645,-2.1967,-2.4628,-2.4211,-2.3464,-2.3144,-2.3135,-2.2734,-2.0895,-1.7488,-1.451,-1.1571,0.0,0.0,0.0,0.0,0.0,0.0,0.0,0.0,0.0,0.0,0.0,0.0,0.0,0.0,0.0,0.0,0.0,0.0,0.0,0.0,0.0,0.0,0.0,-0.3977,0.0,0.0,0.0,0.0,0.0,0.0,0.0,0.0,0.0,-0.6533,-0.9232,-1.1557,-1.271,-1.4447,-1.5285,-1.4525,0.0,0.0,0.0,0.0,0.0,0.0,0.0,-1.0379,-1.0653,-1.0328,-1.0596,-1.2477,-1.5232,-1.8595,-2.2994,0.0,0.0,-1.7177,-1.7379,-1.822,-1.8253,-1.9203,-2.0111,-2.0399,-2.1262,-2.2012,0.0,0.0,0.0,0.0,0.0,0.0,0.0,0.0,-1.3552,-1.295,0.0,-1.3104,0.0,0.0,0.0,0.0,-0.8879,-1.13,0.0,0.0,-1.6361,-1.7454,-1.6476,-1.634,-1.6348,-1.6181,-1.4419,-1.3181,-1.2459,-1.0963,0.0,0.0,0.0,0.0,0.0,0.0,-1.5669,-1.6638,-2.1952,-2.4211,-2.3135,-2.3135,-2.3144,-2.3135,-2.2744,-2.1425,-1.9259,-1.6732,-1.4094,-1.1329,-0.5783,0.0,0.0,0.0,0.0,0.0,0.0,0.0,0.0,0.0,0.0,0.0,0.0,0.0,0.0,0.0,0.0,0.0,0.0,0.0,0.0,-0.2433,0.0,0.0,0.0,0.0,0.0,0.0,0.0,0.0,0.0,0.0,-0.7685,-0.9836,-1.1627,-1.2249,0.0,0.0,0.0,0.0,-1.2193,-1.1053,-0.9931,-0.9487,-0.9877,-1.0908,-1.1969,-1.2812,0.0,0.0,-1.6494,-1.7192,-1.9778,-2.6176,-2.5114,-2.3303,-2.2867,-2.2128,-2.1694,-2.1707,-2.2255,-2.2782,-2.3502,-2.4706,-2.5832,-1.3271,0.0,0.0,0.0,0.0,-0.9915,-1.179,-1.501,-1.3987,-1.4657,-1.6345,-1.4409,0.0,0.0,0.0,0.0,0.0,0.0,-1.249,-1.4371,-1.5451,-1.6871,-1.8521,-1.7494,-1.6942,-1.6904,-1.5324,-1.4882,-1.5397,-1.4909,-1.2391,-0.7868,0.0,0.0,0.0,0.0,-1.6648,-1.8375,-2.181,-2.3464,-2.3135,-2.3144,-2.3144,-2.3135,-2.3027,-2.2313,-2.1119,-1.8845,-1.6338,-1.3453,-1.0171,0.0,0.0,0.0,0.0,0.0,0.0,0.0,0.0,0.0,0.0,0.0,0.0,0.0,0.0,0.0,0.0,0.0,0.0,0.0,-0.0904,-0.2218,-0.2991,0.0,0.0,0.0,0.0,0.0,0.0,0.0,0.0,0.0,-0.8196,-1.006,-1.1322,0.0,0.0,-1.1639,-1.0014,-1.1896,-1.3405,-1.335,-1.3751,0.0,-1.4593,-1.3711,-1.335,-1.4502,-1.5869,-1.6611,-1.5908,-1.8588,-2.1699,-2.4103,-2.5059,-2.5692,-2.6134,-2.6291,-2.6294,-2.6471,-2.6925,-2.7405,-2.7648,-2.8037,-2.8478,-1.5763,-1.3228,-1.1833,-1.1559,-1.205,-1.1554,-1.3292,-1.6259,-1.5396,-1.584,-1.7142,-1.5652,-1.3842,-1.1888,-1.0821,0.0,0.0,0.0,-1.3243,-1.5352,-1.5352,-1.6245,-1.7872,-1.7091,-1.6636,-1.6614,-1.5506,-1.5431,-1.6259,-1.5857,-1.3748,-1.011,0.0,0.0,-1.1715,-1.4765,-1.7417,-1.9634,-2.1938,-2.3144,-2.3144,-2.3144,-2.2862,-2.2394,-2.2242,-2.1565,-2.0125,-1.8654,-1.6778,-1.4413,-1.2326,-1.0114,0.0,0.0,0.0,0.0,0.0,0.0,0.0,0.0,0.0,0.0,0.0,-0.2528,-0.1616,0.0,0.0,0.0,-0.0985,-0.0894,-0.0786,-0.2146,0.0,0.0,0.0,0.0,0.0,0.0,0.0,-0.6735,-0.7421,-0.7894,-0.8228,-0.9726,-1.0668,-1.0369,-1.1284,-1.1752,-1.1044,0.0,-1.44,-1.4976,-1.5782,-1.6416,-1.6678,-1.5921,-1.5605,-1.6484,-1.7324,-1.7705,-1.7223,-1.976,-2.2074,-2.3056,-2.4496,-2.5837,-2.6587,-2.6976,-2.7423,-2.8041,-2.8812,-2.9374,-2.9406,-2.9406,-2.954,-1.7619,-1.6416,-1.3046,-1.289,-1.4672,-1.4285,-1.5271,-1.7147,-1.7082,-1.645,-1.5549,-1.6571,-1.5086,-1.1729,-1.1263,0.0,-1.334,-1.3608,-1.4436,-1.5569,-1.5468,-1.5468,-1.5468,-1.5461,-1.5481,-1.5582,-1.5159,-1.5192,-1.5725,-1.4874,-1.3988,-1.332,-1.3985,-1.425,-1.4242,-1.5782,-1.7888,-2.0313,-2.1849,-2.2717,-2.2775,-2.2775,-2.2296,-2.1159,-2.0896,-1.9712,-1.743,-1.6964,-1.606,-1.4615,-1.3003,-1.1269,-0.9468,0.0,0.0,0.0,0.0,0.0,0.0,0.0,0.0,0.0,0.0,0.0,0.0,0.0,0.0,0.0,-0.1347,0.0,-0.1335,-0.2157,0.0,0.0,0.0,-0.3902,-0.4615,-0.5646,-0.6432,-0.6753,0.0,0.0,-0.7999,-0.8993,-0.9956,-1.0617,-1.2457,-1.3848,-1.4082,-1.4637,-1.5343,-1.6133,-1.6711,-1.7098,-1.7286,-1.7613,-1.8008,-1.835,-1.8592,-1.8779,-1.9167,-2.0333,-2.1667,-2.2849,-2.3767,-2.4509,-2.5119,-2.5356,-2.5837,-2.7063,-2.8194,-2.9011,-2.8903,-2.8903,-2.9102,-1.8138,-1.7535,-1.5574,-1.4702,-1.4539,-1.4246,-1.488,-1.5936,-1.5228,-1.5173,-1.561,-1.5126,-1.4503,-1.3789,-1.3954,-1.4219,-1.4529,-1.3698,-1.3487,-1.3762,-1.2923,-1.2548,-1.2548,-1.2542,-1.3118,-1.4154,-1.4043,-1.4621,-1.5704,-1.5589,-1.4886,-1.3973,-1.4104,-1.3885,-1.3533,-1.4847,-1.6485,-1.8364,-1.874,-1.9417,-2.0352,-2.0404,-2.0086,-1.9626,-1.9533,-1.8958,-1.7819,-1.6939,-1.6152,-1.542,-1.4262,-1.2698,-1.0674,-0.8357,0.0,0.0,0.0,0.0,0.0,0.0,0.0,0.0,0.0,-0.3125,-0.1999,0.0,-0.3619,0.0,-0.0752,-0.0696,-0.1623,-0.1996,0.0,0.0,-0.4104,-0.4616,-0.6002,-0.6621,-0.7107,-0.7646,-0.7742,-0.7774,-0.7683,-0.8918,-1.0373,-1.1607,-1.2621,-1.3388,-1.3859,-1.6002,-1.7408,-1.7461,-1.8882,-1.9971,-1.9585,-1.9243,-1.893,-1.8665,-1.8906,-1.917,-1.9268,-2.066,-2.1989,-2.2924,-2.3767,-2.4118,-2.3767,-2.4553,-2.5273,-2.5356,-2.5875,-2.6357,-2.6342,-2.6805,-2.7354,-1.7577,-1.74,-1.6429,-1.5745,-1.5251,-1.4569,-1.461,-1.5092,-1.4382,-1.4412,-1.497,-1.4328,-1.3979,-1.3805,-1.3957,-1.4097,-1.4134,-1.3024,-1.2472,-1.2381,-1.1822,-1.1543,-1.1543,-1.1543,-1.1891,-1.2679,-1.2785,-1.3191,-1.3903,-1.4023,-1.4072,-1.3956,-1.4033,-1.3911,-1.3667,-1.433,-1.5339,-1.6547,-1.7318,-1.8288,-1.943,-1.9497,-1.8781,-1.7169,-1.7327,-1.6627,-1.4741,-1.4355,-1.3772,-1.3046,-1.2445,-1.1205,-0.9297,-0.7714,-0.6166,0.0,0.0,0.0,0.0,0.0,0.0,0.0,0.0,0.0,0.0,0.0,-0.2456,-0.0953,-0.0319,-0.0487,-0.1672,-0.2194,-0.3027,-0.4603,-0.5014,-0.5623,-0.6716,-0.7,-0.7231,-0.7564,-0.7504,-0.7495,-0.7416,-0.9073,-1.0656,-1.2012,-1.3825,-1.5386,-1.6629,-1.8112,-1.9083,-1.9551,-2.0875,-2.1544,-2.0733,-2.0204,-1.9663,-1.9072,-1.9131,-1.9404,-1.984,-2.1176,-2.2468,-2.3022,-2.3701,-2.3944,-2.3321,-2.3767,-2.4266,-2.4079,-2.4137,-2.461,-2.5287,-2.5742,-2.624,-1.682,-1.6794,-1.6506,-1.6281,-1.6097,-1.493,-1.4451,-1.4399,-1.4117,-1.3861,-1.3704,-1.3704,-1.32,-1.2487,-1.2487,-1.2615,-1.2744,-1.1647,-1.1187,-1.1187,-1.1005,-1.0928,-1.0953,-1.0953,-1.1074,-1.1318,-1.1422,-1.1527,-1.1757,-1.1854,-1.2373,-1.3394,-1.3584,-1.3574,-1.3448,-1.369,-1.4104,-1.4712,-1.633,-1.7646,-1.8685,-1.854,-1.7056,-1.4357,-1.4689,-1.3726,-1.0846,-1.1089,-1.0803,-0.9837,-0.9706,-0.8862,-0.7164,-0.642,-0.555,0.0,-0.3802,0.0,0.0,0.0,0.0,0.0,0.0,0.0,0.0,-0.1276,-0.0331,-0.0167,-0.0205,-0.0739,-0.1903,-0.2744,-0.3786,-0.5213,-0.6077,-0.6664,-0.6926,-0.7065,-0.7139,-0.7139,-0.7139,-0.7139,-0.721,-0.9052,-1.0758,-1.2155,-1.4868,-1.7531,-1.9763,-2.0167,-2.0648,-2.1954,-2.2387,-2.201,-2.0873,-2.0462,-2.006,-1.9463,-1.9268,-1.959,-2.0468,-2.1554,-2.2592,-2.3059,-2.3367,-2.3405,-2.2936,-2.2873,-2.2944,-2.2738,-2.2992,-2.359,-2.4667,-2.5175,-2.5673,-1.7422,-1.7388,-1.7108,-1.6356,-1.5155,-1.4433,-1.4052,-1.3844,-1.3662,-1.2767,-1.1425,-1.142,-1.1247,-1.1024,-1.1018,-1.1044,-1.0999,-0.9865,-0.9433,-0.9341,-0.8371,-0.8001,-0.8128,-0.8135,-0.8826,-1.0026,-1.017,-1.0752,-1.1884,-1.1925,-1.1576,-1.0962,-1.1921,-1.163,-1.016,0.0,0.0,0.0,-1.3628,-1.4191,-1.4374,-1.3424,-1.2522,-1.1764,-1.2239,0.0,-1.1309,-1.0816,-1.0523,-1.0245,-0.971,0.0,0.0,0.0,0.0,0.0,0.0,0.0,0.0,0.0,0.0,0.0,-0.39,-0.3098,-0.2881,-0.1702,-0.0689,-0.0139,-0.0909,-0.195,-0.3117,-0.4257,-0.5419,-0.6529,-0.691,-0.7041,-0.7095,-0.7122,-0.7139,-0.7139,-0.7139,-0.7139,-0.7228,-0.836,-0.9986,-1.19,-1.4324,-1.7049,-1.9955,-2.129,-2.2313,-2.291,-2.2468,-2.1706,-2.0741,-2.0009,-1.9469,-1.932,-1.9277,-1.9619,-2.0399,-2.1008,-2.2015,-2.3047,-2.2548,-2.177,-2.1609,-2.1898,-2.1939,-2.1227,-2.2175,-2.3198,-2.3484,-2.4047,-2.4394,-1.6832,-1.6194,-1.6091,-1.5275,0.0,-1.3674,-1.3074,-1.2233,-1.2369,-1.1446,-1.0051,-1.0504,-1.0304,-0.9749,-0.9753,-0.9753,-0.9666,-0.8536,-0.8063,-0.8143,-0.7524,-0.7336,-0.7485,-0.7523,-0.788,-0.8737,-0.8798,-0.9168,-0.9854,-0.9858,-0.9944,-1.0017,-1.0537,-1.062,-1.0264,-1.1197,-1.2111,-1.2973,-1.3267,-1.3768,-1.4356,-1.331,-1.201,-1.0864,-1.1446,0.0,0.0,0.0,0.0,0.0,0.0,0.0,0.0,0.0,0.0,-0.4694,-0.3632,-0.3153,-0.3396,-0.3407,-0.4206,-0.6023,-0.5261,-0.3921,-0.2494,-0.1774,-0.1296,-0.0973,-0.2006,-0.3188,-0.4355,-0.4999,-0.5891,-0.6962,-0.7139,-0.7139,-0.7139,-0.7139,-0.7139,-0.7139,-0.7139,-0.7139,-0.7139,-0.8189,-0.9483,-1.1257,-1.3355,-1.5986,-1.903,-2.1165,-2.2468,-2.2628,-2.1885,-2.0921,-2.0074,-1.9191,-1.8524,-1.8333,-1.7843,-1.849,-2.0304,-2.0532,-2.0851,-2.1828,-2.1704,-2.13,-2.0665,-2.0876,-2.1112,-2.0782,-2.129,-2.2051,-2.2384,-2.3173,-2.3603,-1.5368,-1.4462,-1.4562,-1.3811,-1.2412,-1.2586,-1.1703,-1.0257,-1.0556,0.0,0.0,-0.9669,-0.9472,-0.8627,-0.8627,-0.8644,-0.8589,-0.7624,-0.7265,-0.7407,-0.7411,-0.7492,-0.7631,-0.7616,-0.7622,-0.7638,-0.7692,-0.7736,-0.7773,-0.7773,-0.8343,-0.9275,-0.9503,-1.0149,-1.1308,-1.1353,-1.1971,-1.3054,-1.287,-1.3302,-1.4507,-1.3338,-1.1821,-1.0042,-1.0679,-0.975,-0.7108,-0.8399,-0.8298,-0.6484,-0.6216,-0.5803,-0.5074,-0.4102,-0.3833,-0.4136,-0.3093,-0.2766,-0.3595,-0.3505,-0.4382,-0.6936,-0.6071,-0.4454,-0.2317,-0.2082,-0.2147,-0.2147,-0.3217,-0.4283,-0.527,-0.5625,-0.6071,-0.7051,-0.7139,-0.7139,-0.7139,-0.7316,-0.7489,-0.7489,-0.7749,-0.7661,-0.7489,-0.8281,-0.9235,-1.0346,-1.2196,-1.4821,-1.7907,-2.0546,-2.202,-2.19,-2.0897,-1.9781,-1.9125,-1.8026,-1.7292,-1.6722,-1.622,-1.6876,-1.8947,-1.9477,-1.9464,-2.0013,-2.0594,-2.0396,-1.9744,-1.9987,-2.0279,-2.0139,-2.0398,-2.073,-2.1175,-2.199,-2.2689,-1.3217,-1.3125,-1.3157,-1.2319,-1.0953,-1.098,-1.0071,-0.8692,-0.8482,-0.8222,-0.7833,-0.7861,-0.7714,-0.7316,-0.7316,-0.7481,-0.7608,-0.743,-0.7421,-0.7567,-0.757,-0.7645,-0.777,-0.7641,-0.7648,-0.7767,-0.7675,-0.7624,-0.7628,-0.7631,-0.7722,-0.7998,-0.8987,-1.0076,-1.1079,-1.0885,-1.0927,-1.1444,-1.0235,-0.9668,-0.9886,-0.8694,-0.7926,-0.765,-0.8212,-0.8332,-0.7822,-0.754,-0.7178,-0.6826,-0.6175,-0.5551,-0.4789,-0.4568,-0.4748,-0.5127,-0.4084,-0.3225,-0.2718,-0.4134,-0.5659,-0.6864,-0.6071,-0.4802,-0.3527,-0.3374,-0.3393,-0.3393,-0.4463,-0.5179,-0.5447,-0.6248,-0.6874,-0.7051,-0.7139,-0.7139,-0.7228,-0.8017,-0.8711,-0.9139,-0.9744,-0.9657,-0.8798,-0.8803,-0.8973,-0.9483,-1.1277,-1.3553,-1.6521,-1.9992,-2.1622,-2.1296,-1.9628,-1.8439,-1.7784,-1.6582,-1.5388,-1.482,-1.5185,-1.5716,-1.6724,-1.6876,-1.7107,-1.8145,-1.8067,-1.8142,-1.8684,-1.926,-1.9173,-1.871,-1.9497,-2.0074,-1.9243,-2.0063,-2.1416,-1.1917,-1.142,-1.1424,-1.075,-0.9514,-0.9514,-0.8962,-0.8136,-0.7984,-0.7797,-0.7584,-0.735,-0.7207,-0.7143,-0.7139,-0.7177,-0.7244,-0.7244,-0.7326,-0.7472,-0.7475,-0.7553,-0.7689,-0.7583,-0.7587,-0.7689,-0.7573,-0.7636,-0.7587,-0.7519,-0.7475,-0.7564,-0.8018,-0.8466,-0.8916,-0.8748,-0.8744,-0.8996,-0.9705,-1.0163,-1.0268,-0.9073,-0.8352,-0.8335,-0.8502,-0.8214,-0.7568,-0.7805,-0.7725,-0.7006,-0.6654,-0.6344,-0.5981,-0.5449,-0.5179,-0.5359,-0.4283,-0.3213,-0.2412,-0.4105,-0.5085,-0.5174,-0.5356,-0.5445,-0.5528,-0.4907,-0.4552,-0.4643,-0.5625,-0.6337,-0.6337,-0.6782,-0.7139,-0.7139,-0.7139,-0.7489,-0.8273,-0.8627,-0.941,-1.0443,-1.0611,-1.0351,-0.9923,-0.9323,-0.9187,-0.9691,-1.1133,-1.2544,-1.3627,-1.5575,-1.7378,-1.7986,-1.6781,-1.5765,-1.5452,-1.3976,-1.2764,-1.2365,-1.2776,-1.3386,-1.3992,-1.4171,-1.4421,-1.4816,-1.524,-1.5994,-1.7177,-1.7603,-1.7784,-1.8202,-1.8529,-1.8787,-1.8854,-1.9759,-2.0899,-1.0597,-0.9835,-0.9971,-0.941,-0.8482,-0.8482,-0.835,-0.8126,-0.7943,-0.7801,-0.7662,-0.7343,-0.7193,-0.7193,-0.7227,-0.7244,-0.7244,-0.7241,-0.7312,-0.7414,-0.7424,-0.7485,-0.759,-0.755,-0.7523,-0.7539,-0.7523,-0.7509,-0.7475,-0.7373,-0.7319,-0.7309,-0.72,-0.7139,-0.7139,-0.7139,-0.7139,-0.7234,-0.911,-1.0324,-1.0476,-0.9487,-0.8873,-0.8845,-0.8731,-0.8139,-0.7234,-0.8013,-0.8013,-0.7228,-0.7139,-0.6959,-0.6694,-0.5894,-0.5361,-0.527,-0.4285,-0.3481,-0.3215,-0.4194,-0.4819,-0.4461,-0.5267,-0.616,-0.6874,-0.6337,-0.5805,-0.5894,-0.6517,-0.7051,-0.7051,-0.7051,-0.7139,-0.7139,-0.7404,-0.8101,-0.9226,-0.9575,-1.0356,-1.1918,-1.174,-1.1375,-1.0807,-0.9938,-0.942,-0.9888,-1.0541,-1.0779,-1.0838,-1.1538,-1.2648,-1.3601,-1.3514,-1.3057,-1.2825,-1.1605,-1.0513,-1.014,-1.0622,-1.1186,-1.1732,-1.1942,-1.2311,-1.2739,-1.3462,-1.4705,-1.5816,-1.6437,-1.6978,-1.7565,-1.7829,-1.8046,-1.8645,-1.9302,-2.0216,-0.8755,-0.8668,-0.8689,-0.8584,-0.8489,-0.8489,-0.8469,-0.8397,-0.8143,-0.8014,-0.794,-0.7539,-0.7356,-0.737,-0.7489,-0.7539,-0.7543,-0.7556,-0.7556,-0.7563,-0.758,-0.7587,-0.757,-0.7465,-0.74,-0.7373,-0.7244,-0.7193,-0.7207,-0.718,-0.7166,-0.7163,-0.7146,-0.7139,-0.7139,-0.7139,-0.7139,-0.7139,-0.7326,-0.7517,-0.7528,-0.7354,-0.7351,-0.7337,-0.7337,-0.7241,-0.7139,-0.7224,-0.7228,-0.7139,-0.7139,-0.6605,-0.5716,-0.5447,-0.545,-0.5359,-0.4285,-0.4016,-0.5001,-0.527,-0.5714,-0.6694,-0.6694,-0.6871,-0.7051,-0.6962,-0.6962,-0.6962,-0.7051,-0.7139,-0.7139,-0.7139,-0.7139,-0.7316,-0.8013,-0.8978,-0.9662,-1.0956,-1.2504,-1.3737,-1.3548,-1.3296,-1.1974,-1.0805,-0.9707,-0.8695,-0.8582,-0.8834,-0.9476,-0.9502,-0.9585,-1.0088,-1.0375,-1.0861,-1.0787,-1.0157,-0.9205,-0.8528,-0.9658,-1.0265,-1.0346,-1.1174,-1.2305,-1.2378,-1.2952,-1.4171,-1.5417,-1.6376,-1.6589,-1.6965,-1.7144,-1.7216,-1.7743,-1.8232,-1.8899,-0.8537,-0.8615,-0.8615,-0.8618,-0.8625,-0.871,-0.8648,-0.8469,-0.8357,-0.8204,-0.8031,-0.7845,-0.7672,-0.7512,-0.7573,-0.7597,-0.7597,-0.7597,-0.755,-0.7472,-0.7465,-0.7417,-0.7326,-0.7268,-0.7234,-0.7231,-0.7166,-0.7139,-0.7139,-0.7139,-0.7139,-0.7139,-0.7139,-0.7139,-0.7139,-0.7139,-0.7139,-0.7139,-0.7139,-0.7139,-0.7139,-0.7139,-0.7139,-0.7139,-0.7139,-0.7139,-0.7139,-0.7139,-0.7139,-0.7139,-0.7139,-0.6874,-0.6428,-0.6425,-0.6428,-0.634,-0.598,-0.5534,-0.5447,-0.5361,-0.5625,-0.6071,-0.5888,-0.6068,-0.7048,-0.7139,-0.7139,-0.7139,-0.7139,-0.7139,-0.7139,-0.7139,-0.7401,-0.8013,-0.8627,-0.9492,-1.1037,-1.1809,-1.2766,-1.3815,-1.3935,-1.3616,-1.277,-1.119,-0.9304,-0.7749,-0.7145,-0.7289,-0.7647,-0.7438,-0.738,-0.7487,-0.7824,-0.8244,-0.8774,-0.8751,-0.8237,-0.8161,-0.8917,-0.9593,-0.9593,-1.0196,-1.1323,-1.2164,-1.2693,-1.3433,-1.4618,-1.5065,-1.5365,-1.5964,-1.6387,-1.6446,-1.6673,-1.7944,-1.8904,-0.8672,-0.8767,-0.8774,-0.8774,-0.8781,-0.8889,-0.8815,-0.8604,-0.8523,-0.836,-0.8163,-0.8371,-0.8213,-0.7835,-0.8097,-0.8262,-0.8222,-0.8219,-0.8106,-0.7931,-0.7552,-0.7288,-0.7153,-0.7139,-0.7139,-0.7139,-0.7143,-0.7139,-0.7139,-0.7139,-0.7139,-0.7139,-0.7139,-0.7139,-0.7139,-0.7139,-0.7139,-0.7139,-0.7139,-0.7139,-0.7139,-0.7139,-0.7139,-0.7139,-0.7139,-0.7139,-0.7139,-0.7139,-0.7139,-0.7139,-0.7139,-0.7139,-0.7139,-0.7139,-0.7139,-0.7139,-0.7139,-0.6782,-0.5894,-0.5925,-0.5944,-0.5947,-0.5697,-0.5992,-0.6985,-0.7227,-0.7204,-0.7207,-0.7166,-0.7139,-0.7139,-0.7404,-0.8017,-0.8803,-0.9323,-1.0611,-1.1986,-1.2504,-1.3171,-1.3787,-1.3781,-1.3228,-1.2388,-1.0739,-0.8838,-0.695,-0.6407,-0.6261,-0.623,-0.6184,-0.6091,-0.6162,-0.6139,-0.6428,-0.7194,-0.7783,-0.7706,-0.7706,-0.8389,-0.9145,-0.8922,-0.9372,-1.0959,-1.2214,-1.2355,-1.2927,-1.4298,-1.4539,-1.4546,-1.535,-1.5817,-1.5872,-1.5999,-1.7639,-1.8457,-0.8923,-0.8923,-0.8927,-0.892,-0.8927,-0.8933,-0.8927,-0.8961,-0.8714,-0.8573,-0.8806,-0.9558,-0.9205,-0.8199,-0.9355,-0.9774,-0.9719,-0.961,-0.9422,-0.9026,-0.8011,-0.7292,-0.7146,-0.7139,-0.7139,-0.7139,-0.7139,-0.7139,-0.7139,-0.7139,-0.7139,-0.7139,-0.7139,-0.7139,-0.7139,-0.7139,-0.7139,-0.7139,-0.7139,-0.7139,-0.7139,-0.7139,-0.7139,-0.7139,-0.7139,-0.7139,-0.7139,-0.7139,-0.7139,-0.7139,-0.7139,-0.7139,-0.7139,-0.7143,-0.7149,-0.7149,-0.7149,-0.7064,-0.6999,-0.7105,-0.7177,-0.7285,-0.7201,-0.7466,-0.7413,-0.7411,-0.7339,-0.7346,-0.721,-0.7139,-0.7312,-0.8101,-0.8803,-0.9235,-1.0869,-1.1986,-1.2322,-1.3294,-1.3774,-1.3665,-1.3451,-1.2451,-1.0347,-0.9612,-0.8367,-0.6898,-0.6268,-0.6251,-0.62,-0.6,-0.5918,-0.5966,-0.5945,-0.5988,-0.6409,-0.7249,-0.7326,-0.7338,-0.803,-0.8775,-0.8313,-0.8426,-1.0578,-1.2291,-1.2733,-1.3338,-1.4207,-1.4621,-1.4646,-1.5018,-1.536,-1.5472,-1.5404,-1.5904,-1.6718,-0.8937,-0.8937,-0.8937,-0.8937,-0.8937,-0.8937,-0.9315,-1.007,-0.9949,-1.0277,-1.0875,-1.122,-1.109,-1.0583,-1.0974,-1.0738,-0.9994,-0.9896,-0.9789,-0.9364,-0.8966,-0.8185,-0.7156,-0.7139,-0.7139,-0.7139,-0.7139,-0.7139,-0.7139,-0.7139,-0.7139,-0.7139,-0.7139,-0.7139,-0.7139,-0.7139,-0.7139,-0.7139,-0.7139,-0.7139,-0.7139,-0.7139,-0.7139,-0.7139,-0.7139,-0.7139,-0.7139,-0.7139,-0.7139,-0.7139,-0.7139,-0.7139,-0.7149,-0.7234,-0.7288,-0.7299,-0.738,-0.7434,-0.7441,-0.7485,-0.7516,-0.7526,-0.7621,-0.7617,-0.7485,-0.7424,-0.7363,-0.7251,-0.7183,-0.7404,-0.8105,-0.8627,-0.9492,-1.0869,-1.1809,-1.2674,-1.3294,-1.3822,-1.3975,-1.3579,-1.2766,-1.1323,-0.99,-0.8813,-0.7783,-0.6641,-0.6261,-0.6217,-0.6108,-0.5928,-0.5837,-0.5861,-0.5844,-0.5871,-0.6064,-0.7114,-0.7638,-0.7671,-0.7992,-0.8539,-0.8467,-0.7557,-0.894,-1.0611,-1.1688,-1.2806,-1.3257,-1.373,-1.3906,-1.4286,-1.4634,-1.4601,-1.465,-1.5304,-1.5845,-0.8937,-0.8937,-0.8937,-0.9154,-0.9585,-0.9534,-1.0201,-1.1345,-1.1225,-1.1527,-1.2089,-1.2098,-1.1786,-1.138,-1.1263,-1.1025,-1.0498,-1.0547,-1.0495,-1.0179,-0.9731,-0.8658,-0.749,-0.7251,-0.7255,-0.7275,-0.7234,-0.7193,-0.7143,-0.7139,-0.7139,-0.7139,-0.7139,-0.7139,-0.7139,-0.7139,-0.7139,-0.7139,-0.7139,-0.7139,-0.7139,-0.7139,-0.7139,-0.7139,-0.7139,-0.7139,-0.7139,-0.7139,-0.7139,-0.7146,-0.7187,-0.7234,-0.7295,-0.7387,-0.7444,-0.7458,-0.7536,-0.7597,-0.7607,-0.7638,-0.7668,-0.7668,-0.7723,-0.7678,-0.7526,-0.7458,-0.7353,-0.7244,-0.716,-0.758,-0.854,-0.889,-0.9836,-1.1895,-1.2674,-1.3203,-1.3984,-1.3988,-1.3583,-1.2698,-1.1492,-1.0176,-0.9037,-0.8246,-0.7403,-0.6416,-0.6261,-0.6196,-0.6051,-0.5952,-0.5847,-0.581,-0.581,-0.5874,-0.6006,-0.6644,-0.7126,-0.7184,-0.7713,-0.826,-0.8186,-0.726,-0.7326,-0.884,-1.0124,-1.1359,-1.2222,-1.2608,-1.3058,-1.3533,-1.3548,-1.3607,-1.4048,-1.4657,-1.5277,-0.8937,-0.8937,-0.8937,-0.979,-1.0732,-1.0795,-1.1456,-1.2606,-1.2369,-1.2399,-1.2699,-1.2242,-1.177,-1.0485,-1.0583,-1.0674,-1.134,-1.1477,-1.1606,-1.1541,-1.0427,-0.906,-0.783,-0.7646,-0.7561,-0.7546,-0.7438,-0.7389,-0.7361,-0.7279,-0.7187,-0.7252,-0.7183,-0.72,-0.716,-0.7187,-0.717,-0.718,-0.719,-0.7173,-0.7146,-0.718,-0.7187,-0.7173,-0.7177,-0.718,-0.7166,-0.7149,-0.7146,-0.717,-0.7282,-0.7434,-0.7539,-0.7577,-0.7594,-0.76,-0.7614,-0.7614,-0.7634,-0.7733,-0.779,-0.7784,-0.7797,-0.7763,-0.7672,-0.7506,-0.736,-0.7305,-0.7214,-0.7577,-0.8627,-0.8869,-0.9716,-1.1889,-1.2893,-1.3419,-1.371,-1.3622,-1.2924,-1.1486,-1.0165,-0.8941,-0.8165,-0.7706,-0.7173,-0.6563,-0.6257,-0.619,-0.6037,-0.5979,-0.5949,-0.5689,-0.545,-0.538,-0.567,-0.6054,-0.6237,-0.6544,-0.7247,-0.7852,-0.7489,-0.6822,-0.6885,-0.8084,-0.8577,-0.9781,-1.1472,-1.1928,-1.2422,-1.2791,-1.2668,-1.294,-1.362,-1.4358,-1.4643,-0.8937,-0.9034,-0.9794,-1.0385,-1.0894,-1.1554,-1.2525,-1.3595,-1.3518,-1.3964,-1.4594,-1.4598,-1.3884,-1.2619,-1.1745,-1.1419,-1.1748,-1.103,-1.1365,-1.2357,-1.2145,-1.0823,-0.925,-0.8846,-0.8389,-0.7681,-0.7553,-0.7959,-0.8448,-0.7809,-0.7813,-0.8444,-0.7809,-0.7455,-0.7441,-0.7458,-0.7458,-0.7458,-0.7455,-0.7455,-0.7458,-0.7455,-0.7451,-0.7455,-0.7458,-0.7458,-0.7444,-0.7255,-0.72,-0.7288,-0.7346,-0.7441,-0.7567,-0.7597,-0.7645,-0.774,-0.7848,-0.7902,-0.7889,-0.7838,-0.7807,-0.7794,-0.7723,-0.7614,-0.7526,-0.7431,-0.7319,-0.7238,-0.7163,-0.7573,-0.8611,-0.8854,-0.937,-1.0795,-1.131,-1.1577,-1.1506,-1.1111,-1.075,-1.0194,-0.9048,-0.8174,-0.7706,-0.7326,-0.6718,-0.6412,-0.6257,-0.6176,-0.5956,-0.5962,-0.5514,-0.4847,-0.4709,-0.4672,-0.4891,-0.5138,-0.543,-0.6061,-0.6873,-0.7379,-0.7,-0.6854,-0.7,-0.7097,-0.7602,-0.8602,-1.0288,-1.1098,-1.1466,-1.2294,-1.2612,-1.2997,-1.3583,-1.3966,-1.4248,-0.8984,-0.9503,-1.0249,-1.1247,-1.2059,-1.2777,-1.3719,-1.4765,-1.4759,-1.5114,-1.5662,-1.5242,-1.4657,-1.3686,-1.2042,-1.141,-1.154,-1.0378,-1.0815,-1.2363,-1.2612,-1.1719,-1.0377,-0.9828,-0.9313,-0.8434,-0.7865,-0.8015,-0.8695,-0.8059,-0.7962,-0.8516,-0.7966,-0.7594,-0.7597,-0.7597,-0.7597,-0.7597,-0.7594,-0.7597,-0.7597,-0.7597,-0.7597,-0.7597,-0.7597,-0.7573,-0.7509,-0.7322,-0.7272,-0.7353,-0.7373,-0.7444,-0.758,-0.76,-0.7641,-0.7726,-0.7811,-0.7865,-0.7865,-0.777,-0.7733,-0.7709,-0.7597,-0.7482,-0.7383,-0.7336,-0.7141,-0.6536,-0.6822,-0.7142,-0.7368,-0.7414,-0.772,-0.8214,-0.9606,-0.9958,-0.9516,-0.8352,-0.777,-0.7488,-0.7045,-0.6703,-0.6468,-0.6714,-0.6257,-0.6261,-0.6257,-0.6149,-0.5942,-0.5969,-0.5198,-0.4287,-0.3634,-0.3701,-0.3967,-0.4281,-0.4619,-0.5462,-0.6414,-0.686,-0.6892,-0.6987,-0.7102,-0.6922,-0.7193,-0.8101,-0.9635,-0.9764,-1.0131,-1.1197,-1.2443,-1.273,-1.3082,-1.3566,-1.3865,-0.9227,-1.0248,-1.046,-1.2034,-1.4055,-1.4213,-1.4887,-1.583,-1.5671,-1.5363,-1.5146,-1.4172,-1.3686,-1.3006,-1.1068,-1.0498,-1.0905,-0.9966,-1.0066,-1.1162,-1.1537,-1.1426,-1.1172,-1.0121,-0.947,-0.9176,-0.8301,-0.7948,-0.8237,-0.7858,-0.7719,-0.8037,-0.7855,-0.7634,-0.7668,-0.7634,-0.7658,-0.7668,-0.7651,-0.7655,-0.7651,-0.7645,-0.7645,-0.7651,-0.7651,-0.7607,-0.7512,-0.7428,-0.7377,-0.7377,-0.7373,-0.7441,-0.7563,-0.7594,-0.758,-0.7611,-0.7604,-0.7628,-0.7614,-0.76,-0.7587,-0.7577,-0.7448,-0.7265,-0.7141,-0.685,-0.641,-0.5502,-0.5941,-0.6132,-0.5416,-0.5157,-0.5133,-0.5283,-0.735,-0.8466,-0.7836,-0.5746,-0.4929,-0.4828,-0.467,-0.4763,-0.5074,-0.5786,-0.618,-0.6261,-0.6177,-0.5806,-0.5708,-0.5475,-0.5253,-0.4129,-0.2612,-0.2595,-0.2769,-0.3066,-0.3462,-0.4575,-0.5675,-0.6436,-0.689,-0.7068,-0.6966,-0.6881,-0.7083,-0.7959,-0.8688,-0.9053,-0.9896,-1.1307,-1.2039,-1.2207,-1.2431,-1.2804,-1.2896,-0.8862,-0.9389,-1.1274,-1.2636,-1.3517,-1.4971,-1.5268,-1.4826,-1.4485,-1.3919,-1.3119,-1.2624,-1.2063,-1.0974,-1.0395,-0.9674,-0.9143,-0.8652,-0.9147,-1.0214,-1.0409,-1.0427,-1.0186,-0.9217,-0.8609,-0.8557,-0.8255,-0.8448,-0.9182,-0.8286,-0.8391,-0.9275,-0.8286,-0.7913,-0.7926,-0.7906,-0.7923,-0.7923,-0.7919,-0.7913,-0.7916,-0.7913,-0.7923,-0.7926,-0.7913,-0.7889,-0.7834,-0.7648,-0.7482,-0.738,-0.7373,-0.7441,-0.7553,-0.7489,-0.7472,-0.7556,-0.7584,-0.759,-0.757,-0.7489,-0.7438,-0.7421,-0.7115,-0.6844,-0.5939,-0.5917,-0.5244,-0.4435,-0.4365,-0.4393,-0.404,-0.389,-0.372,-0.3646,-0.4681,-0.5069,-0.4641,-0.3912,-0.3433,-0.3509,-0.4135,-0.453,-0.4766,-0.555,-0.618,-0.6103,-0.569,-0.507,-0.4891,-0.4552,-0.4152,-0.2543,-0.1314,-0.1438,-0.1556,-0.1827,-0.245,-0.3644,-0.4822,-0.5969,-0.6573,-0.6997,-0.6824,-0.6529,-0.7096,-0.7869,-0.8581,-0.9071,-1.0273,-1.1081,-1.1651,-1.1831,-1.1655,-1.1708,-1.145,-0.8927,-0.9557,-1.1125,-1.2168,-1.2764,-1.415,-1.4225,-1.3596,-1.3275,-1.2913,-1.2223,-1.2129,-1.1676,-1.0902,-1.0306,-0.9669,-0.8829,-0.8233,-0.8428,-0.9015,-0.911,-0.9801,-1.019,-0.9509,-0.8825,-0.8726,-0.8237,-0.8425,-0.8913,-0.8333,-0.8528,-0.881,-0.8432,-0.8038,-0.8024,-0.8038,-0.8075,-0.8106,-0.8082,-0.8065,-0.813,-0.8072,-0.8038,-0.8038,-0.8035,-0.8001,-0.7845,-0.756,-0.7383,-0.7353,-0.7319,-0.7316,-0.7383,-0.7326,-0.7316,-0.7404,-0.7407,-0.7404,-0.7302,-0.6953,-0.6554,-0.6448,-0.61,-0.5336,-0.4763,-0.4615,-0.4148,-0.3072,-0.3265,-0.323,-0.2799,-0.2672,-0.2304,-0.1885,-0.1799,-0.2033,-0.2578,-0.2579,-0.2268,-0.2268,-0.3047,-0.4059,-0.4062,-0.5315,-0.5864,-0.5628,-0.5157,-0.4485,-0.3965,-0.3446,-0.2819,-0.1484,0.0,0.0,0.0,0.0,0.0,-0.3197,-0.448,-0.5636,-0.6398,-0.7046,-0.7211,-0.7122,-0.7415,-0.7752,-0.8374,-0.8844,-0.918,-0.9944,-1.0857,-1.101,-1.0579,-1.0453,-1.017,-0.9231,-1.0264,-1.0389,-1.111,-1.2147,-1.2437,-1.251,-1.2186,-1.2157,-1.2055,-1.1737,-1.1844,-1.1374,-1.1768,-1.0083,-0.9838,-0.9608,-0.8432,-0.8137,-0.8134,-0.8333,-0.9118,-1.0578,-0.9801,-0.9316,-0.9217,-0.8432,-0.8137,-0.8137,-0.8038,-0.8038,-0.8134,-0.8038,-0.8058,-0.8082,-0.8079,-0.815,-0.8238,-0.8153,-0.8143,-0.8184,-0.8089,-0.7991,-0.7984,-0.7946,-0.7821,-0.76,-0.7356,-0.7241,-0.7343,-0.7214,-0.717,-0.716,-0.7149,-0.7153,-0.6989,-0.692,-0.6821,-0.6707,-0.583,-0.5188,-0.5097,-0.4281,-0.3536,-0.3481,-0.3356,-0.2799,-0.1338,-0.2289,-0.1941,-0.137,-0.119,-0.0944,0.0,0.0,-0.0706,-0.1409,-0.1645,-0.1098,-0.0471,-0.2034,-0.2735,-0.3593,-0.4533,-0.5553,-0.4608,-0.4126,-0.3429,-0.2808,-0.2237,-0.1764,-0.111,0.0,0.0,0.0,0.0,0.0,-0.3036,-0.4435,-0.5676,-0.6427,-0.7055,-0.7634,-0.7903,-0.7863,-0.7923,-0.8112,-0.8419,-0.8492,-0.8911,-0.9796,-0.9426,-0.8832,-0.893,-0.8819,-0.8766,-0.9197,-1.0393,-1.1005,-1.1406,-1.2231,-1.2035,-1.1066,-1.0863,-1.0373,-0.9603,-0.9297,-0.9332,-0.9169,-0.8873,-0.8457,-0.8535,-0.8137,-0.8038,-0.8038,-0.8038,-0.8233,-0.8821,-0.8425,-0.8432,-0.8329,-0.8134,-0.7939,-0.7839,-0.7736,-0.7939,-0.7939,-0.7945,-0.8099,-0.8197,-0.8204,-0.8289,-0.8384,-0.8289,-0.8231,-0.8208,-0.8024,-0.7885,-0.7865,-0.7763,-0.7611,-0.7465,-0.736,-0.7278,-0.7204,-0.7071,-0.6959,-0.7051,-0.6962,-0.6962,-0.6782,-0.616,-0.5802,-0.5536,-0.473,-0.4014,-0.3916,-0.3522,-0.3221,-0.225,-0.2096,-0.1154,0.0244,0.072,0.0475,0.0554,0.0866,0.0471,0.0,0.0,0.0,0.0,0.0,-0.0706,-0.1331,-0.1722,-0.2192,-0.2968,-0.3359,-0.3748,-0.3357,-0.2937,-0.2289,-0.1639,-0.1014,-0.0706,-0.0413,0.0,0.0,0.0,0.0,0.0,-0.3679,-0.5075,-0.5956,-0.6684,-0.7208,-0.7841,-0.8136,-0.8195,-0.8102,-0.7802,-0.8051,-0.8203,-0.8498,-0.8406,-0.7739,-0.7257,-0.7375,-0.6903,-0.8815,-0.8927,-0.9686,-0.9958,-0.9988,-1.0613,-1.0453,-0.9871,-0.9724,-0.9333,-0.8786,-0.8611,-0.8509,-0.837,-0.8282,-0.8191,-0.8058,-0.8038,-0.8038,-0.7839,-0.7437,-0.7033,-0.683,-0.6528,-0.6326,-0.683,-0.6326,-0.6124,-0.6224,-0.683,-0.7033,-0.7135,-0.764,-0.8119,-0.8248,-0.8282,-0.8391,-0.8503,-0.8377,-0.8296,-0.8309,-0.8079,-0.7868,-0.7777,-0.7617,-0.7448,-0.7383,-0.7295,-0.7221,-0.6982,-0.6425,-0.6422,-0.6691,-0.6065,-0.58,-0.598,-0.5176,-0.4643,-0.4285,-0.3481,-0.2757,-0.2731,-0.2267,-0.163,-0.093,-0.0574,0.0242,0.1358,0.1895,0.219,0.1645,0.1019,0.0549,0.0,0.0,0.0,0.0,0.0,-0.0236,-0.1019,-0.1333,-0.1802,-0.227,-0.2649,-0.2572,-0.2492,-0.222,-0.1586,-0.0442,0.0072,0.014,0.0274,0.0069,0.0,0.0,0.0,0.0,-0.4635,-0.6201,-0.6842,-0.7394,-0.7808,-0.821,-0.8068,-0.7774,-0.7502,-0.7259,-0.7522,-0.7221,-0.6419,-0.6,-0.5689,-0.5495,-0.5283,-0.4585,-0.8927,-0.8896,-0.8764,-0.8686,-0.8655,-0.8793,-0.8793,-0.8797,-0.8866,-0.8989,-0.8886,-0.8886,-0.8621,-0.8476,-0.8384,-0.8248,-0.7999,-0.7637,-0.7434,-0.7335,-0.6226,-0.5724,-0.5422,-0.472,-0.4318,-0.5225,-0.472,-0.4316,-0.4618,-0.5322,-0.6232,-0.6337,-0.7472,-0.8076,-0.8279,-0.835,-0.8489,-0.8679,-0.8472,-0.836,-0.8367,-0.8126,-0.7848,-0.7631,-0.7468,-0.7339,-0.7202,-0.6952,-0.6789,-0.6782,-0.5531,-0.5609,-0.5689,-0.4814,-0.3914,-0.4982,-0.4005,-0.3383,-0.3102,-0.2306,-0.1501,-0.1475,-0.0688,0.0,0.0,0.0568,0.1278,0.2133,0.2737,0.2813,0.1724,0.1098,0.0392,0.0,0.0,0.0,0.0,0.0,0.0,-0.0157,-0.0706,-0.1252,-0.1633,-0.2011,-0.1783,-0.1624,-0.1367,-0.0819,0.0291,0.1067,0.1109,0.0885,0.0611,-0.0204,-0.0889,-0.2329,-0.3776,-0.5058,-0.6826,-0.756,-0.7829,-0.738,-0.7323,-0.7329,-0.703,-0.6868,-0.6675,-0.6709,-0.5929,-0.4526,-0.4474,-0.5131,-0.4505,-0.3353,-0.2712,-0.8862,-0.8743,-0.872,-0.857,-0.8404,-0.8601,-0.8628,-0.8581,-0.8818,-0.8859,-0.8639,-0.8621,-0.8394,-0.8217,-0.8062,-0.7979,-0.7447,-0.683,-0.6329,-0.6126,-0.502,-0.4318,-0.4117,-0.3015,-0.2614,-0.2916,-0.3316,-0.3815,-0.4218,-0.5222,-0.5847,-0.6258,-0.756,-0.8306,-0.8445,-0.8564,-0.8659,-0.8764,-0.8557,-0.8435,-0.8343,-0.7984,-0.7597,-0.7373,-0.7255,-0.7121,-0.6834,-0.618,-0.5714,-0.5625,-0.5085,-0.4597,-0.4122,-0.3181,-0.3087,-0.3416,-0.2734,-0.2119,-0.1922,-0.1047,-0.0437,-0.0259,0.0,0.0,0.0,0.0401,0.1501,0.2981,0.3671,0.3517,0.1802,0.1176,0.0784,0.0,0.0,0.0,0.0,0.0,0.0,0.0,0.0,-0.0546,-0.1004,0.0,0.0,0.0,-0.0222,0.0218,0.1068,0.1681,0.193,0.1629,0.1209,0.0134,-0.0942,-0.2691,-0.4314,-0.5183,-0.6688,-0.8007,-0.7872,-0.6749,-0.6338,-0.64,-0.6527,-0.6597,-0.6334,-0.6071,-0.5484,-0.464,-0.4795,-0.4964,-0.404,-0.3102,-0.2958,-0.8777,-0.8696,-0.855,-0.8404,-0.8309,-0.8414,-0.8489,-0.852,-0.8716,-0.8343,-0.7834,-0.7544,-0.6987,-0.6321,-0.6144,-0.5982,-0.5734,-0.5322,-0.502,-0.462,-0.3616,-0.2914,-0.2916,-0.1611,-0.1611,-0.2013,-0.2715,-0.3015,-0.3119,-0.4365,-0.5487,-0.6447,-0.7682,-0.8452,-0.855,-0.8577,-0.8689,-0.8723,-0.8543,-0.837,-0.833,-0.7851,-0.7495,-0.7312,-0.7088,-0.6789,-0.616,-0.5805,-0.509,-0.4452,-0.371,-0.3151,-0.252,-0.19,-0.1639,-0.2225,-0.1552,0.0,0.0,0.0,0.0,0.0,0.0,0.0,0.0,0.0633,0.1645,0.289,0.3047,0.2737,0.1646,0.1097,0.0549,0.0,0.0,0.0,0.0,0.0,0.0,0.0,0.0,-0.0155,-0.0381,0.0,0.0,0.0,0.0,0.1345,0.1813,0.2137,0.2385,0.1488,0.0736,-0.0803,-0.1941,-0.3345,-0.4613,-0.5533,-0.6252,-0.7562,-0.7892,-0.6662,-0.6013,-0.5752,-0.5877,-0.6137,-0.5943,-0.562,-0.5219,-0.4913,-0.4795,-0.4465,-0.3626,-0.3013,-0.3105,-0.8676,-0.8601,-0.837,-0.8252,-0.8231,-0.7948,-0.7914,-0.803,-0.7843,-0.7127,-0.6355,-0.6119,-0.549,-0.4545,-0.4199,-0.4172,-0.4016,-0.3815,-0.3616,-0.3316,-0.2314,-0.1611,-0.1611,-0.1209,-0.1209,-0.2614,-0.2715,-0.2413,-0.3022,-0.4165,-0.5222,-0.6277,-0.7739,-0.8509,-0.856,-0.8567,-0.8601,-0.8543,-0.8421,-0.8262,-0.8062,-0.777,-0.7482,-0.7249,-0.6933,-0.6248,-0.5625,-0.4645,-0.4003,-0.3183,-0.2274,-0.1469,-0.1283,-0.0506,-0.05,-0.1079,-0.0502,0.0,0.0,0.0,0.0,0.0,0.0,0.0,0.0,0.0944,0.1879,0.2267,0.219,0.1567,0.1098,0.0549,0.0,0.0,0.0,0.0,0.0,0.0,0.0,0.0,0.0313,0.0154,-0.0075,0.0,0.0,0.0,0.0767,0.1666,0.2121,0.2376,0.2288,0.1141,-0.0134,-0.1872,-0.3145,-0.4082,-0.5017,-0.5609,-0.5939,-0.6593,-0.6854,-0.6597,-0.6272,-0.6272,-0.5491,-0.5686,-0.5425,-0.5425,-0.5226,-0.4962,-0.4658,-0.4267,-0.381,-0.3913,-0.4121,-0.856,-0.8323,-0.8289,-0.8191,-0.7895,-0.6969,-0.6505,-0.6434,-0.5597,-0.4847,-0.449,-0.4471,-0.4325,-0.3952,-0.3835,-0.3925,-0.3618,-0.2714,-0.2313,-0.2213,-0.131,-0.131,-0.1913,-0.1913,-0.2514,-0.3616,-0.3715,-0.3815,-0.4126,-0.5249,-0.5864,-0.6518,-0.7733,-0.8455,-0.8459,-0.8557,-0.8618,-0.8503,-0.834,-0.8069,-0.774,-0.7509,-0.7343,-0.6857,-0.6263,-0.5447,-0.4819,-0.3565,-0.2392,-0.2006,-0.087,-0.0256,-0.0165,-0.0164,0.0,-0.0161,0.0,0.0,0.0,0.0,0.0,0.0,0.0,0.0,0.0,0.0941,0.1409,0.0392,0.0941,0.1097,0.0,0.0,0.0,0.0,0.0,0.0,0.0,0.0235,0.0314,0.0466,0.054,0.0376,0.0,0.0,0.0,0.0,0.0745,0.1622,0.2225,0.2283,0.2007,0.0802,-0.0668,-0.2407,-0.3613,-0.4619,-0.5223,-0.5752,-0.5815,-0.5881,-0.6013,-0.6465,-0.7702,-0.7442,-0.6404,-0.5624,-0.5686,-0.562,-0.5355,-0.5254,-0.5069,-0.4728,-0.4285,-0.4579,-0.5068,-0.8459,-0.8262,-0.8177,-0.7598,-0.6845,-0.6282,-0.5727,-0.5058,-0.4579,-0.3851,-0.3207,-0.31,-0.2967,-0.2923,-0.2113,-0.2113,-0.2414,-0.1611,-0.141,-0.2013,-0.1511,-0.1811,-0.2914,-0.3215,-0.3815,-0.482,-0.5222,-0.5724,-0.6042,-0.609,-0.6428,-0.7388,-0.8128,-0.8604,-0.8462,-0.8547,-0.8486,-0.8313,-0.8055,-0.7753,-0.7526,-0.74,-0.7024,-0.6169,-0.5628,-0.4732,-0.3474,-0.2557,-0.1404,-0.095,-0.0171,0.0,0.0,0.0,0.0,0.0,0.0,0.0,0.0,0.0,0.0,0.0,0.0,0.0,0.0,0.0,0.0,0.0157,0.0392,0.0,0.0,0.0,0.0,0.0,0.0,0.0,0.0,0.0,0.0391,0.054,0.0683,0.0517,0.0505,0.0,0.0,0.0,0.054,0.1212,0.1614,0.1677,0.1137,0.0334,-0.1202,-0.2878,-0.3816,-0.4755,-0.516,-0.5624,-0.5686,-0.5686,-0.5686,-0.6272,-0.7572,-0.7957,-0.6985,-0.64,-0.6141,-0.5686,-0.5359,-0.5471,-0.5599,-0.5207,-0.4951,-0.5373,-0.5786,-0.8377,-0.8201,-0.8089,-0.7434,-0.6429,-0.6129,-0.5569,-0.4712,-0.4307,-0.3591,-0.2875,-0.277,-0.2646,-0.2422,-0.1812,-0.2012,-0.2515,-0.1411,-0.1712,-0.2213,-0.2614,-0.3316,-0.4117,-0.4618,-0.5222,-0.6534,-0.6528,-0.6956,-0.7318,-0.7471,-0.7421,-0.8282,-0.8374,-0.8608,-0.8601,-0.8486,-0.833,-0.8045,-0.774,-0.7516,-0.739,-0.6963,-0.6343,-0.5563,-0.4732,-0.3653,-0.2126,-0.1403,-0.0783,0.0,0.0,0.0,0.0,0.0,0.0,0.0,0.0,0.0,0.0,0.0,0.0,0.0,0.0,0.0,0.0,0.0,0.0,0.0,0.0,0.0,0.0,0.0,0.0,0.0,0.0,0.0,0.0,0.0,0.0536,0.0526,0.0591,0.0654,0.071,0.0976,0.0,0.0,0.0471,0.0,0.1074,0.1141,0.0335,-0.0468,-0.1604,-0.3145,-0.435,-0.5024,-0.5359,-0.5624,-0.5752,-0.5686,-0.5752,-0.6338,-0.7507,-0.7502,-0.7177,-0.685,-0.64,-0.5881,-0.5435,-0.5464,-0.5569,-0.5718,-0.5729,-0.6101,-0.6247,-0.8316,-0.8055,-0.8048,-0.7939,-0.7637,-0.6531,-0.5934,-0.5448,-0.4433,-0.393,-0.3732,-0.3825,-0.3728,-0.3717,-0.3515,-0.3416,-0.3817,-0.3815,-0.3717,-0.3717,-0.4016,-0.4916,-0.5817,-0.642,-0.683,-0.7849,-0.8261,-0.8334,-0.8326,-0.8568,-0.8282,-0.8303,-0.8608,-0.8615,-0.8452,-0.834,-0.8048,-0.7767,-0.7482,-0.7394,-0.7041,-0.6436,-0.5555,-0.4921,-0.339,-0.1952,-0.1741,-0.0867,0.0,0.0,0.0,0.0,0.0,0.0,0.0,0.0,0.0,0.0,0.0,0.0,0.0,0.0,0.0,0.0,0.0,0.0,0.0,0.0,0.0,0.0,0.0,0.0,0.0,0.0,0.0,0.0,0.0,0.0,0.0749,0.0586,0.0504,0.0568,0.049,0.0688,0.0683,0.0135,0.0,0.0,0.0,0.0538,-0.0402,-0.1272,-0.2074,-0.3413,-0.4951,-0.5554,-0.5947,-0.6338,-0.6531,-0.6207,-0.5947,-0.6789,-0.7697,-0.7567,-0.7372,-0.6981,-0.6588,-0.5947,-0.5509,-0.55,-0.5549,-0.5752,-0.5928,-0.6125,-0.6224,-1.1079,-1.0826,-1.0711,-0.9199,-0.6731,-0.6229,-0.5525,-0.4818,-0.4218,-0.4016,-0.4116,-0.4016,-0.4418,-0.4818,-0.4318,-0.4518,-0.5022,-0.4316,-0.4718,-0.5415,-0.6114,-0.7205,-0.8202,-0.9114,-1.0036,-1.0427,-1.0671,-1.0865,-1.1141,-1.0133,-0.9916,-0.9778,-0.9093,-0.8646,-0.8448,-0.8163,-0.7804,-0.7529,-0.7322,-0.7234,-0.6946,-0.6022,-0.509,-0.4107,-0.2861,-0.1417,-0.0784,-0.0257,0.0,0.0,0.0,0.0,0.0,0.0,0.0,0.0,0.0,0.0,0.0,0.0,0.0,0.0,0.0,0.0,0.0,0.0,0.0862,0.0,0.1409,0.1331,0.0,0.0,0.0,0.0,0.0,0.0,0.0,0.0,0.0,0.0,0.0,0.035,0.0276,0.0271,0.0203,0.0,0.0,0.0,0.0,0.0,-0.0604,-0.1339,-0.2076,-0.3011,-0.4483,-0.554,-0.6461,-0.6854,-0.7181,-0.692,-0.6597,-0.7181,-0.7827,-0.7702,-0.7377,-0.6915,-0.64,-0.5881,-0.5575,-0.5473,-0.5599,-0.5854,-0.6017,-0.6166,-0.6213,-1.2863,-1.2496,-1.2445,-1.0649,-0.7912,-0.7809,-0.7201,-0.6495,-0.6492,-0.6103,-0.581,-0.5515,-0.5622,-0.6124,-0.6313,-0.631,-0.7111,-0.7003,-0.7198,-0.7895,-0.8882,-0.9678,-1.0592,-1.1344,-1.1741,-1.2374,-1.2481,-1.2491,-1.2486,-1.1761,-1.1513,-1.0957,-1.0024,-0.929,-0.8401,-0.7997,-0.76,-0.7339,-0.7214,-0.7139,-0.6966,-0.5983,-0.4821,-0.3749,-0.2415,-0.1321,0.0,0.0,0.0,0.0,0.0,0.0,0.0,0.0,0.0,0.0,0.0,0.0,0.0,0.0,0.0,0.0,0.0,0.0,0.0706,0.141,0.1956,0.2035,0.2425,0.2347,0.1568,0.1176,0.07,0.0,0.0,0.0,0.0,0.0,0.0,0.0,0.0,0.0,0.0,0.0,0.0,0.0,0.0,0.0,0.0,0.0,-0.0403,-0.1141,-0.1742,-0.2744,-0.3813,-0.5001,-0.6059,-0.685,-0.7177,-0.7507,-0.7507,-0.7897,-0.7507,-0.6793,-0.6531,-0.6527,-0.6207,-0.562,-0.5491,-0.5432,-0.561,-0.5878,-0.6095,-0.6224,-0.6234,-1.2895,-1.2404,-1.2494,-1.2256,-1.1658,-1.175,-1.1448,-1.0849,-1.0951,-1.0467,-0.9292,-0.8418,-0.7928,-0.8326,-0.8898,-0.9292,-0.9686,-1.0471,-1.0974,-1.0998,-1.1161,-1.1658,-1.2134,-1.2542,-1.3232,-1.263,-1.3095,-1.3621,-1.3441,-1.3074,-1.2911,-1.2239,-1.1165,-0.9701,-0.8598,-0.7892,-0.7461,-0.7197,-0.7149,-0.7143,-0.6874,-0.5983,-0.4821,-0.3929,-0.267,-0.1575,0.0,0.0,0.0,0.0,0.0,0.0,0.0,0.0,0.0,0.0,0.0,0.0,0.0,0.0,0.0,0.0,0.0628,0.1254,0.1645,0.2347,0.2968,0.2813,0.2579,0.2036,0.1411,0.086,0.0463,0.0,0.0,0.0,0.0,0.0,0.0,0.0,0.0,0.0,0.0,0.0,0.0,0.0,0.0,0.0,0.0,0.0,0.0,-0.0739,-0.1341,-0.2342,-0.3409,-0.4602,-0.5657,-0.6515,-0.7302,-0.7767,-0.7897,-0.7827,-0.7181,-0.6079,-0.5881,-0.6075,-0.5815,-0.5428,-0.5449,-0.543,-0.5627,-0.5871,-0.6105,-0.6274,-0.6291,-1.5719,-1.5245,-1.5238,-1.4974,-1.4304,-1.263,-1.1945,-1.1945,-1.1848,-1.1653,-1.1268,-1.0681,-1.0583,-1.0779,-1.0895,-1.1292,-1.138,-1.1468,-1.1986,-1.2345,-1.2927,-1.3462,-1.3848,-1.4439,-1.5041,-1.5493,-1.5704,-1.5628,-1.6138,-1.5019,-1.4182,-1.3572,-1.1811,-0.993,-0.8397,-0.756,-0.7333,-0.7177,-0.7139,-0.7051,-0.6962,-0.6071,-0.5181,-0.473,-0.3446,-0.2598,-0.2018,-0.1829,-0.1541,-0.1025,-0.0942,-0.0628,0.0,0.0,0.0,0.0,0.0,0.0,0.0,0.0,0.0,0.0706,0.1097,0.1802,0.1723,0.3283,0.3593,0.3431,0.3195,0.2577,0.1803,0.1463,0.0,0.0,0.0,0.0,0.0,0.0,0.0,0.0,0.0,0.0,0.0,0.0,0.0,0.0,0.0,0.0,0.0,0.0,0.0,0.0,-0.094,-0.1876,-0.2941,-0.4,-0.5259,-0.6314,-0.7432,-0.8484,-0.8355,-0.7762,-0.6924,-0.5885,-0.5752,-0.5752,-0.5557,-0.5439,-0.5433,-0.5528,-0.5664,-0.5867,-0.6122,-0.6281,-0.6366,-1.7241,-1.6727,-1.6707,-1.6433,-1.5704,-1.4022,-1.3204,-1.3204,-1.2818,-1.2624,-1.2543,-1.2211,-1.1968,-1.219,-1.2631,-1.2865,-1.2964,-1.3467,-1.3698,-1.3979,-1.4544,-1.5072,-1.5649,-1.6157,-1.6473,-1.7156,-1.7324,-1.7335,-1.7153,-1.6276,-1.5143,-1.3826,-1.2197,-1.0145,-0.8627,-0.8042,-0.7696,-0.7415,-0.7139,-0.7139,-0.6874,-0.6425,-0.5805,-0.525,-0.4491,-0.3806,-0.3369,-0.3047,-0.2746,-0.1979,-0.149,-0.1099,0.0,0.0,0.0,0.0,0.0,0.0,0.0,0.1019,0.1254,0.1409,0.2113,0.2582,0.2817,0.3986,0.4142,0.4055,0.3799,0.2858,0.1848,0.0,0.0,0.0,0.0,0.0,0.0,0.0,0.0,0.0,0.0,0.0,0.0,0.0,0.0,0.0,0.0,0.0,0.0,0.0,0.0,0.0,0.0,-0.1208,-0.2143,-0.3207,-0.453,-0.5986,-0.7042,-0.7962,-0.7837,-0.7051,-0.6342,-0.5756,-0.569,-0.5557,-0.5491,-0.5449,-0.5416,-0.5484,-0.5596,-0.5833,-0.6125,-0.6302,-0.6441,-1.7248,-1.676,-1.672,-1.656,-1.6266,-1.573,-1.5599,-1.5662,-1.4508,-1.4033,-1.3937,-1.3116,-1.2988,-1.313,-1.4312,-1.4974,-1.5157,-1.6089,-1.634,-1.646,-1.6275,-1.6506,-1.6592,-1.6962,-1.7177,-1.7271,-1.7385,-1.7311,-1.7161,-1.6511,-1.5471,-1.402,-1.2293,-1.0558,-0.9433,-0.8689,-0.8132,-0.7408,-0.7139,-0.7139,-0.6962,-0.6962,-0.6428,-0.5871,-0.5372,-0.4746,-0.4298,-0.38,-0.2992,-0.2303,-0.1724,-0.102,0.0,0.0,0.0,0.0,0.0,0.0,0.1019,0.1254,0.1879,0.219,0.3437,0.4295,0.4368,0.4124,0.3949,0.3461,0.2898,0.2197,0.0,0.0,0.0,0.0,0.0,0.0,0.0,0.0,0.0,0.0,0.0,0.0,0.0,0.0,0.0,0.0,0.0,0.0,0.0,0.0,0.0,0.0,0.0,0.0,-0.1408,-0.2474,-0.3606,-0.4995,-0.5602,-0.633,-0.6268,-0.6535,-0.6145,-0.5818,-0.5557,-0.5428,-0.5428,-0.5428,-0.5435,-0.545,-0.5545,-0.5766,-0.6047,-0.6386,-0.6559,-1.7355,-1.7027,-1.7021,-1.6847,-1.6587,-1.6486,-1.6339,-1.6082,-1.5947,-1.5939,-1.5853,-1.5625,-1.5251,-1.557,-1.6925,-1.7357,-1.7669,-1.7896,-1.8231,-1.8067,-1.7372,-1.7231,-1.7177,-1.7258,-1.736,-1.7407,-1.7414,-1.7252,-1.6995,-1.65,-1.5677,-1.4521,-1.2374,-1.106,-1.0038,-0.9323,-0.8189,-0.7404,-0.7139,-0.7139,-0.7139,-0.7139,-0.6786,-0.6584,-0.6267,-0.5797,-0.5541,-0.5205,-0.4293,-0.2909,-0.2659,0.0,0.0,0.0,0.0,0.0,0.0,0.0157,0.0549,0.1176,0.1802,0.2268,0.3047,0.3435,0.3577,0.3477,0.3295,0.2738,0.21,0.1411,0.0953,0.0,0.0,0.0,0.0,0.0,0.0,0.0,0.0,0.0,0.0,0.0,0.0,0.0,0.0,0.0,0.0,0.0,0.0,0.0,0.0,0.0,0.0,0.0,-0.0806,-0.1741,-0.2808,-0.3875,-0.461,-0.5279,-0.5749,-0.6013,-0.5947,-0.5818,-0.5491,-0.5428,-0.5428,-0.5292,-0.509,-0.5339,-0.5436,-0.5732,-0.5979,-0.6213,-0.6481,-1.7341,-1.7014,-1.7101,-1.6974,-1.6774,-1.6954,-1.6894,-1.6667,-1.668,-1.6707,-1.6714,-1.6726,-1.7177,-1.7687,-1.8591,-1.926,-1.9852,-1.9891,-1.9791,-1.8927,-1.8195,-1.7798,-1.7626,-1.7353,-1.7326,-1.7333,-1.7171,-1.6893,-1.6513,-1.5255,-1.4339,-1.3856,-1.2065,-1.0824,-0.9662,-0.8623,-0.7841,-0.7316,-0.7139,-0.7139,-0.7139,-0.7139,-0.7139,-0.7095,-0.6885,-0.6787,-0.6595,-0.6201,-0.4826,-0.321,-0.289,0.0,0.0,0.0,0.0,0.0,0.0,0.0,0.0784,0.1255,0.1723,0.2035,0.2347,0.2425,0.2496,0.2482,0.2223,0.1817,0.1259,0.0798,0.05,0.0,0.0,0.0,0.0,0.0,0.0,0.0,0.0,0.0,0.0,0.0,0.0,0.0,0.0,0.0,0.0,0.0,0.0,0.0,0.0,0.0,0.0,-0.0202,-0.0672,-0.114,-0.2142,-0.3143,-0.4013,-0.468,-0.5286,-0.5554,-0.562,-0.5557,-0.5425,-0.5292,-0.516,-0.4888,-0.4691,-0.4864,-0.4686,-0.4461,-0.4867,-0.5812,-0.6123,-1.7228,-1.6827,-1.7061,-1.7068,-1.6874,-1.7328,-1.7395,-1.7168,-1.6927,-1.6787,-1.6867,-1.7068,-1.7784,-1.8506,-1.9408,-2.0288,-2.0905,-2.1172,-2.0692,-1.9641,-1.9206,-1.853,-1.7571,-1.7298,-1.7163,-1.7035,-1.6773,-1.639,-1.5588,-1.444,-1.3237,-1.2522,-1.0377,-0.924,-0.9061,-0.8013,-0.7316,-0.7228,-0.7139,-0.7139,-0.7139,-0.7139,-0.7136,-0.7115,-0.6987,-0.6854,-0.645,-0.5563,-0.4323,-0.3231,-0.219,-0.1176,0.0,0.0,0.0,0.0,0.0,0.0,0.0706,0.1098,0.1645,0.1879,0.2034,0.1567,0.1485,0.1471,0.1221,0.1203,0.081,0.079,0.0635,0.1106,0.143,0.1493,0.1685,0.1543,0.1276,0.0873,0.0,0.0,0.0,0.0,0.0,0.0,0.0,0.0,0.0,0.0,0.0,0.0,0.0,0.0,0.0,-0.0067,-0.0202,-0.0739,-0.1474,-0.2409,-0.3278,-0.4417,-0.5223,-0.5359,-0.5292,-0.4954,-0.4619,-0.4821,-0.4755,-0.4284,-0.3882,-0.3887,-0.3641,-0.3055,-0.3596,-0.4735,-0.5654,-1.7101,-1.7375,-1.7448,-1.7428,-1.7388,-1.7522,-1.7542,-1.7475,-1.7415,-1.7348,-1.7382,-1.7435,-1.7651,-1.833,-1.9899,-2.0972,-2.1304,-2.1859,-2.1354,-2.0317,-1.9668,-1.8397,-1.7225,-1.7109,-1.7022,-1.6767,-1.6417,-1.5573,-1.4453,-1.332,-1.2254,-1.1357,-0.9592,-0.8715,-0.8627,-0.758,-0.7139,-0.7139,-0.7139,-0.7139,-0.7139,-0.7139,-0.7136,-0.7095,-0.7,-0.6865,-0.6379,-0.5499,-0.4325,-0.3219,-0.2194,-0.1097,0.0,0.0,0.0,0.0,0.0,0.0,0.0,0.0,0.0,0.0,0.0,0.0,0.039,0.0385,0.0455,0.0598,0.0732,0.0929,0.1254,0.1908,0.2542,0.2608,0.2808,0.2409,0.1942,0.1141,0.0471,0.0,0.0,0.0,0.0,0.0,0.0,0.0,0.0,0.0,0.0,0.0,0.0,0.0,0.0,-0.0067,0.0,-0.0337,-0.1007,-0.1475,-0.2142,-0.348,-0.4957,-0.4556,-0.4018,-0.3816,-0.3613,-0.3949,-0.3882,-0.328,-0.3011,-0.2945,-0.2681,-0.2161,-0.2378,-0.3319,-0.4584,-1.7014,-1.7221,-1.7482,-1.7589,-1.7589,-1.7589,-1.7589,-1.7589,-1.7589,-1.7589,-1.7589,-1.7681,-1.783,-1.833,-2.0192,-2.1268,-2.1573,-2.2247,-2.1535,-2.0613,-1.9452,-1.8218,-1.7479,-1.6888,-1.6773,-1.6433,-1.5434,-1.4415,-1.3197,-1.1764,-1.0657,-1.0023,-0.8836,-0.8101,-0.8013,-0.7404,-0.7139,-0.7139,-0.7139,-0.7139,-0.7139,-0.7139,-0.7139,-0.7099,-0.7004,-0.6881,-0.6204,-0.5325,-0.4065,-0.2864,-0.1736,-0.0863,0.0,0.0,0.0,0.0,0.0,0.0,0.0,0.0,0.0,0.0,0.0,0.0,0.0312,0.0462,0.106,0.1267,0.1832,0.2004,0.2851,0.3531,0.4276,0.465,0.5114,0.5183,0.3732,0.2275,0.1809,0.0,0.0,0.0,0.0,0.0,0.0,0.0,0.0,0.0,0.0,0.074,0.0673,0.0605,0.0471,0.0,0.0,0.0,-0.0538,-0.0873,-0.1139,-0.2277,-0.3482,-0.3015,-0.2614,-0.2746,-0.2878,-0.3078,-0.2945,-0.2344,-0.2143,-0.2076,-0.1743,-0.1344,-0.169,-0.197,-0.2851,-1.6961,-1.6854,-1.7355,-1.7589,-1.7589,-1.7589,-1.7589,-1.7589,-1.7589,-1.7589,-1.7589,-1.7589,-1.8226,-1.908,-2.015,-2.1109,-2.1648,-2.1491,-2.1028,-2.0166,-1.9276,-1.7923,-1.6943,-1.6533,-1.6091,-1.5358,-1.4328,-1.3185,-1.2009,-1.0529,-0.9371,-0.8648,-0.7841,-0.7139,-0.7139,-0.7139,-0.7139,-0.7139,-0.7139,-0.7139,-0.7139,-0.7139,-0.7139,-0.7092,-0.6944,-0.6867,-0.6028,-0.493,-0.3658,-0.2445,0.0,0.0,0.0,0.0,0.0,0.0,0.0,0.0,0.0,0.0,0.0,0.0,0.0157,0.0156,0.0388,0.1145,0.1725,0.2225,0.2774,0.3428,0.4166,0.5017,0.5811,0.6551,0.7024,0.7414,0.5498,0.3924,0.3661,0.3332,0.3068,0.3068,0.2872,0.2941,0.2744,0.2744,0.2744,0.2678,0.2477,0.1944,0.161,0.1476,0.1275,0.0,0.0,0.0,0.0,-0.0202,-0.0537,-0.1407,-0.1944,-0.1678,-0.1678,-0.2012,-0.2144,-0.2277,-0.2009,-0.1476,-0.1275,0.0,-0.1007,-0.074,-0.0673,-0.0945,-0.1077,-1.6901,-1.7101,-1.7442,-1.7589,-1.7589,-1.7589,-1.7589,-1.7589,-1.7589,-1.7589,-1.7589,-1.7582,-1.7837,-1.797,-1.864,-1.9334,-1.9878,-2.0091,-1.9321,-1.8293,-1.8334,-1.7319,-1.6361,-1.6005,-1.5087,-1.4173,-1.3121,-1.1869,-1.0691,-0.9526,-0.8408,-0.758,-0.7489,-0.7139,-0.7139,-0.7139,-0.7139,-0.7139,-0.7139,-0.7139,-0.7139,-0.7139,-0.7139,-0.7122,-0.7027,-0.6318,-0.5381,-0.4228,-0.3059,-0.1918,0.0,0.0,0.0,0.0,0.0,0.0,0.0,0.1263,0.1422,0.1811,0.1811,0.1251,0.1011,0.0613,0.1361,0.2662,0.3149,0.3445,0.3968,0.4456,0.5238,0.6066,0.6902,0.7608,0.827,0.8286,0.7343,0.6905,0.6789,0.5803,0.4885,0.4632,0.4251,0.3926,0.3209,0.3209,0.3145,0.3145,0.3211,0.2878,0.2613,0.241,0.221,0.0,0.0,0.0,0.0336,0.0336,0.0,0.0,0.0,0.0,0.0,0.0,0.0,-0.1274,-0.094,0.0,0.0,0.0,0.0,-0.0135,-0.0067,-0.0067,-0.0269]},{"header":{"parameterUnit":"m.s-1","parameterCategory":1,"la1":31.0,"la2":29.5877,"lo1":-88.7671,"lo2":-86.6584,"dx":0.0162,"dy":0.0185,"nx":115,"ny":88,"refTime":"2022-12-11T18:00:00:Z","depth":0,"parameterNumber":3,"parameterNumberName":"V-component_of_WINDS"},"data":[0.0,0.0,0.0,0.0,0.0,0.0,0.0,0.0,0.0,0.0,0.0,0.0,0.0,0.0,0.0,0.0,0.0,0.0,0.0,0.0,0.0,0.0,0.0,0.0,0.0,0.0,0.0,0.0,0.0,0.0,0.0,0.0,0.0,0.0,0.0,0.0,0.0,0.0,0.0,0.0,0.0,0.0,0.0,0.0,0.0,0.0,0.0,0.0,0.0,0.0,0.0,0.0,0.0,0.0,0.0,0.0,0.0,0.0,0.0,0.0,0.0,0.0,0.0,0.0,0.0,0.0,0.0,0.0,0.0,0.0,0.0,0.0,0.0,0.0,0.0,0.0,0.0,0.0,0.0,0.0,0.0,0.0,0.0,0.0,0.0,0.0,0.0,0.0,0.0,0.0,0.0,0.0,0.0,0.0,0.0,0.0,0.0,0.0,0.0,0.0,0.0,0.0,0.0,0.0,0.0,0.0,0.0,0.0,0.0,0.0,0.0,0.0,0.0,0.0,0.0,0.0,0.0,0.0,0.0,0.0,0.0,0.0,0.0,0.0,0.0,0.0,0.0,0.0,0.0,0.0,0.0,0.0,0.0,0.0,0.0,0.0,0.0,0.0,0.0,0.0,0.0,0.0,0.0,0.0,0.0,0.0,0.0,0.0,0.0,0.0,0.0,0.0,0.0,0.0,0.0,0.0,0.0,0.0,0.0,0.0,0.0,0.0,0.0,0.0,0.0,0.0,0.0,0.0,0.0,0.0,0.0,0.0,0.0,0.0,0.0,0.0,0.0,0.0,0.0,0.0,0.0,0.0,0.0,0.0,0.0,0.0,0.0,0.0,0.0,0.0,0.0,0.0,0.0,0.0,0.0,0.0,0.0,0.0,0.0,0.0,0.0,0.0,0.0,0.0,0.0,0.0,0.0,0.0,0.0,0.0,0.0,0.0,0.0,0.0,0.0,0.0,0.0,0.0,0.0,0.0,0.0,0.0,0.0,0.0,0.0,0.0,0.0,0.0,0.0,0.0,0.0,0.0,0.0,0.0,0.0,0.0,0.0,0.0,0.0,0.0,0.0,0.0,0.0,0.0,0.0,0.0,0.0,0.0,0.0,0.0,0.0,0.0,0.0,0.0,0.0,0.0,0.0,0.0,0.0,0.0,0.0,0.0,0.0,0.0,0.0,0.0,0.0,0.0,0.0,0.0,0.0,0.0,0.0,0.0,0.0,0.0,0.0,0.0,0.0,0.0,0.0,0.0,0.0,0.0,0.0,0.0,0.0,0.0,0.0,0.0,0.0,0.0,0.0,0.0,0.0,0.0,0.0,0.0,0.0,0.0,0.0,0.0,0.0,0.0,0.0,0.0,0.0,0.0,0.0,0.0,0.0,0.0,0.0,0.0,0.0,0.0,0.0,0.0,0.0,0.0,0.0,0.0,0.0,0.0,0.0,0.0,0.0,0.0,0.0,0.0,0.0,0.0,0.0,0.0,0.0,0.0,0.0,0.0,0.0,0.0,0.0,0.0,0.0,0.0,0.0,0.0,0.0,0.0,0.0,0.0,0.0,0.0,0.0,0.0,0.0,0.0,0.0,0.0,0.0,0.0,0.0,0.0,0.0,0.0,0.0,0.0,0.0,0.0,0.0,0.0,0.0,0.0,0.0,0.0,0.0,0.0,0.0,0.0,0.0,0.0,0.0,0.0,0.0,0.0,0.0,0.0,0.0,0.0,0.0,0.0,0.0,0.0,0.0,0.0,0.0,0.0,0.0,0.0,0.0,0.0,0.0,0.0,0.0,0.0,0.0,0.0,0.0,0.0,0.0,0.0,0.0,0.0,0.0,0.0,0.0,0.0,0.0,0.0,0.0,0.0,0.0,0.0,0.0,0.0,0.0,0.0,0.0,0.0,0.0,0.0,0.0,0.0,0.0,0.0,0.0,0.0,0.0,0.0,0.0,0.0,0.0,0.0,0.0,0.0,0.0,0.0,0.0,0.0,0.0,0.0,0.0,0.0,0.0,0.0,0.0,0.0,0.0,0.0,0.0,0.0,0.0,0.0,0.0,0.0,0.0,0.0,0.0,0.0,0.0,0.0,0.0,0.0,0.0,0.0,0.0,0.0,0.0,0.0,0.0,0.0,0.0,0.0,0.0,0.0,0.0,0.0,0.0,0.0,0.0,0.0,0.0,0.0,0.0,0.0,0.0,0.0,0.0,0.0,0.0,0.0,0.0,0.0,0.0,0.0,0.0,0.0,0.0,0.0,0.0,0.0,0.0,0.0,0.0,0.0,0.0,0.0,0.0,0.0,0.0,0.0,0.0,0.0,0.0,0.0,0.0,0.0,0.0,0.0,0.0,0.0,0.0,0.0,0.0,0.0,0.0,0.0,0.0,0.0,0.0,0.0,0.0,0.0,0.0,0.0,0.0,0.0,0.0,0.0,0.0,0.0,0.0,0.0,0.0,0.0,0.0,0.0,0.0,0.0,0.0,0.0,0.0,0.0,0.0,0.0,0.0,0.0,0.0,0.0,0.0,0.0,0.0,0.0,0.0,0.0,0.0,0.0,0.0,0.0,0.0,0.0,0.0,0.0,0.0,0.0,0.0,0.0,0.0,0.0,0.0,0.0,0.0,0.0,0.0,0.0,0.0,0.0,0.0,0.0,0.0,0.0,0.0,0.0,0.0,0.0,0.0,0.0,0.0,0.0,0.0,0.0,0.0,0.0,0.0,0.0,0.0,0.0,0.0,0.0,0.0,0.0,0.0,0.0,0.0,0.0,0.0,0.0,0.0,0.0,0.0,0.0,0.0,0.0,0.0,0.0,0.0,0.0,0.0,0.0,0.0,0.0,0.0,0.0,0.0,0.0,0.0,0.0,0.0,0.0,0.0,0.0,0.0,0.0,0.0,0.0,0.0,0.0,0.0,0.0,0.0,0.0,0.0,0.0,0.0,0.0,0.0,0.0,0.0,0.0,0.0,0.0,0.0,0.0,0.0,0.0,0.0,0.0,0.0,0.0,0.0,0.0,0.0,0.0,0.0,0.0,0.0,0.0,0.0,0.0,0.0,0.0,0.0,0.0,0.0,0.0,0.0,0.0,0.0,0.0,0.0,0.0,0.0,0.0,0.0,0.0,0.0,0.0,0.0,0.0,0.0,0.0,0.0,0.0,0.0,0.0,0.0,0.0,0.0,0.0,0.0,0.0,0.0,0.0,0.0,0.0,0.0,0.0,0.0,0.0,0.0,0.0,0.0,0.0,0.0,0.0,0.0,0.0,0.0,0.0,0.0,0.0,0.0,0.0,0.0,0.0,0.0,0.0,0.0,0.0,0.0,0.0,0.0,0.0,0.0,0.0,0.0,0.0,0.0,0.0,0.0,0.0,0.0,0.0,0.0,0.0,0.0,0.0,0.0,0.0,0.0,0.0,0.0,0.0,0.0,0.0,0.0,0.0,0.0,0.0,0.0,0.0,0.0,0.0,0.0,0.0,0.0,0.0,0.0,0.0,0.0,0.0,0.0,0.0,0.0,0.0,0.0,0.0,0.0,0.0,0.0,0.0,0.0,0.0,0.0,0.0,0.0,0.0,0.0,0.0,0.0,0.0,0.0,0.0,0.0,0.0,0.0,0.0,0.0,0.0,0.0,0.0,0.0,0.0,0.0,0.0,0.0,0.0,0.0,0.0,0.0,0.0,0.0,0.0,0.0,0.0,0.0,0.0,0.0,0.0,0.0,0.0,0.0,0.0,0.0,0.0,0.0,0.0,0.0,0.0,0.0,0.0,0.0,0.0,0.0,0.0,0.0,0.0,0.0,0.0,0.0,0.0,0.0,0.0,0.0,0.0,0.0,0.0,0.0,0.0,0.0,0.0,0.0,0.0,0.0,0.0,0.0,0.0,0.0,0.0,0.0,0.0,0.0,0.0,0.0,0.0,0.0,0.0,0.0,0.0,0.0,0.0,0.0,0.0,0.0,0.0,0.0,0.0,0.0,0.0,0.0,0.0,0.0,0.0,0.0,0.0,0.0,0.0,0.0,0.0,0.0,0.0,0.0,0.0,0.0,0.0,0.0,0.0,0.0,0.0,0.0,0.0,0.0,0.0,0.0,0.0,0.0,0.0,0.0,0.0,0.0,0.0,0.0,0.0,0.0,0.0,0.0,0.0,0.0,0.0,0.0,0.0,0.0,0.0,0.0,0.0,0.0,0.0,0.0,0.0,0.0,0.0,0.0,0.0,0.0,0.0,0.0,0.0,0.0,0.0,0.0,0.0,0.0,0.0,0.9401,0.0,0.0,0.0,0.9939,0.0,0.0,0.0,0.0,0.0,0.0,0.0,0.0,0.0,0.0,0.0,0.0,0.0,0.0,0.0,0.0,0.0,0.0,0.0,0.0,0.0,0.0,0.0,0.0,0.0,0.0,0.0,0.0,0.0,0.0,0.0,0.0,0.0,0.0,0.0,0.0,0.0,0.0,0.0,0.0,0.0,0.0,0.0,0.0,0.0,0.0,0.0,0.0,0.0,0.0,0.0,0.0,0.0,0.0,0.0,0.0,0.0,0.0,0.0,0.0,0.0,0.0,0.0,0.0,0.0,0.0,0.0,0.0,0.0,0.0,0.0,0.0,0.0,0.0,0.0,0.0,0.0,0.0,0.0,0.0,0.0,0.0,0.0,0.0,0.0,0.0,0.0,0.0,0.0,0.0,0.0,0.0,0.0,0.0,0.0,0.0,0.0,0.0,0.0,0.0,0.0,0.0,0.0,0.0,0.0,0.0,0.0,0.0,0.0,0.0,0.9618,0.9819,0.9876,0.9963,1.0038,0.0,0.0,0.0,0.0,0.0,0.0,0.0,0.0,0.0,0.0,0.0,0.0,0.0,0.0,0.0,0.0,0.0,0.0,0.0,0.0,0.0,0.0,0.0,0.0,0.0,0.0,0.0,0.0,0.0,0.0,0.0,0.0,0.0,0.0,0.0,0.0,0.0,0.0,0.0,0.0,0.0,0.0,0.0,0.0,0.0,0.0,0.0,0.0,0.0,0.0,0.0,0.0,0.0,0.0,0.0,0.0,0.0,0.0,0.0,0.0,0.0,0.0,0.0,0.0,0.0,0.0,0.0,0.0,0.0,0.0,0.0,0.0,0.0,0.0,0.0,0.0,0.0,0.0,0.0,0.0,0.0,0.0,0.0,0.0,0.0,0.0,0.0,0.0,0.0,0.0,0.0,0.0,0.0,0.0,0.0,0.0,0.0,0.0,0.0,0.0,0.0,0.0,0.0,0.0,0.0,0.0,0.0,0.0,0.0,0.0,0.0,0.0,1.0316,1.0316,1.0366,0.0,0.0,0.0,0.0,0.0,0.0,0.0,0.0,0.0,0.0,0.0,0.0,0.0,0.0,0.0,0.0,0.0,0.0,0.0,0.0,0.0,0.0,0.0,0.0,0.0,0.0,0.0,0.0,0.0,0.0,0.0,0.0,0.0,0.0,0.0,0.0,0.0,0.0,0.0,0.0,0.0,0.0,0.0,0.0,0.0,0.0,0.0,0.0,0.0,0.0,0.0,0.0,0.0,0.0,0.0,0.0,0.0,0.0,0.0,0.0,0.0,0.0,0.0,0.0,0.0,0.0,0.0,0.0,0.0,0.0,0.0,0.0,0.0,0.0,0.0,0.0,0.0,0.0,0.0,0.0,0.0,0.0,0.0,0.0,0.0,0.0,0.0,0.0,0.0,0.0,0.0,0.0,0.0,0.0,0.0,0.0,0.0,0.0,0.0,0.0,0.0,0.0,0.0,0.0,0.0,0.0,0.0,0.0,0.0,0.0,1.0344,1.1157,1.1244,0.0,1.1205,0.0,0.0,0.0,0.0,0.0,0.0,0.0,0.0,0.0,0.0,0.0,0.0,0.0,0.0,0.0,0.0,0.0,0.0,0.0,0.0,0.0,0.0,0.0,0.0,0.0,0.0,0.0,0.0,0.0,0.0,0.0,0.0,0.0,0.0,0.0,0.0,0.0,0.0,0.0,0.0,0.0,0.0,0.0,0.0,0.0,0.0,0.0,0.0,0.0,0.0,0.0,0.0,0.0,0.0,0.0,0.0,0.0,0.0,0.0,0.0,0.0,0.0,0.0,0.0,0.0,0.0,0.0,0.0,0.0,0.0,0.0,0.0,0.0,0.0,0.0,0.0,0.0,0.0,0.0,0.0,0.0,0.0,0.0,0.0,0.0,0.0,0.0,0.0,0.0,0.0,0.0,0.0,0.0,0.0,0.0,0.0,0.0,0.0,0.0,0.0,0.0,0.0,0.0,0.0,0.0,0.0,0.0,0.0,0.0,0.0,1.0957,1.1355,1.1378,1.1147,0.0,0.0,0.0,0.0,0.0,0.0,0.0,0.0,0.0,0.0,0.0,0.0,0.0,0.0,0.0,0.0,0.0,0.0,0.0,0.0,0.0,0.0,0.0,0.0,0.0,0.0,0.0,0.0,0.0,0.0,0.0,0.0,0.0,0.0,0.0,0.0,0.0,0.0,0.0,0.0,0.0,0.0,0.0,0.0,0.0,0.0,0.0,0.0,0.0,0.0,0.0,0.0,0.0,0.0,0.0,0.0,0.0,0.0,0.0,0.0,0.0,0.0,0.0,0.0,0.0,0.0,0.0,0.0,0.0,0.0,0.0,0.0,0.0,0.0,0.0,0.0,0.0,0.0,0.0,0.0,0.0,0.0,0.0,0.0,0.0,0.0,0.0,0.0,0.0,0.0,0.0,0.0,0.0,0.0,0.0,0.0,0.0,0.0,0.0,0.0,0.0,0.0,0.0,0.0,0.0,0.0,0.0,0.0,0.0,0.0,1.1164,1.1477,1.1725,1.1759,1.1231,1.0133,0.0,0.0,0.0,0.0,0.0,0.0,0.0,0.0,0.0,0.0,0.0,0.0,0.0,0.0,0.0,0.0,0.0,0.0,0.0,0.0,0.0,0.0,0.0,0.0,0.0,0.0,0.0,0.0,0.0,0.0,0.0,0.0,0.0,0.0,0.0,0.0,0.0,0.0,0.0,0.0,0.0,0.0,0.0,0.0,0.0,0.0,0.0,0.0,0.0,0.0,0.0,0.0,0.0,0.0,0.0,0.0,0.0,0.0,0.0,0.0,0.0,0.0,0.0,0.0,0.0,0.0,0.0,0.0,0.0,0.0,0.0,0.0,0.0,0.0,0.0,0.0,0.0,0.0,0.0,0.0,0.0,0.0,0.0,0.0,0.0,0.0,0.0,0.0,0.0,0.0,0.0,0.0,0.0,0.0,0.0,0.0,0.0,0.0,0.0,0.0,0.0,0.0,0.0,0.0,0.0,0.0,0.0,0.0,1.2439,1.1854,1.1857,1.2613,1.2634,1.1837,0.0,0.0,0.0,0.0,0.0,0.0,0.0,0.0,0.0,0.0,0.0,0.0,0.0,0.0,0.0,0.0,0.0,0.0,0.0,0.0,0.0,0.0,0.0,0.0,0.0,0.0,0.0,0.0,0.0,0.0,0.0,0.0,0.0,0.0,0.0,0.0,0.0,0.0,0.0,0.0,0.0,0.0,0.0,0.0,0.0,0.0,0.0,0.0,0.0,0.0,0.0,0.0,0.0,0.0,0.0,0.0,0.0,0.0,0.0,0.0,0.0,0.0,0.0,0.0,0.0,0.0,0.0,0.0,0.0,0.0,0.0,0.0,0.0,0.0,0.0,0.0,0.0,0.0,0.0,0.0,0.0,0.0,0.0,0.0,0.0,0.0,0.0,0.0,0.0,0.0,0.0,0.0,0.0,0.0,0.0,0.0,0.0,0.0,0.0,0.0,0.0,0.0,0.0,0.0,0.0,0.0,0.0,0.0,0.0,1.1072,1.1356,1.2153,1.3403,1.1951,1.0798,0.0,0.0,0.0,0.0,0.0,0.0,0.0,0.0,0.0,0.0,0.0,0.0,0.0,0.0,0.0,0.0,0.0,0.0,0.0,0.0,0.0,0.0,0.0,0.0,0.0,0.0,0.0,0.0,0.0,0.0,0.0,0.0,0.0,0.0,0.0,0.0,0.0,0.0,0.0,0.0,0.0,0.0,0.0,0.0,0.0,0.0,0.0,0.0,0.0,0.0,0.0,0.0,0.0,0.0,0.0,0.0,0.0,0.0,0.0,0.0,0.0,0.0,0.0,0.0,0.0,0.0,0.0,0.0,0.0,0.0,0.0,0.0,0.0,0.0,0.0,0.0,0.0,0.0,0.0,0.0,0.0,0.0,0.0,0.0,0.0,0.0,0.0,0.0,0.0,0.0,0.0,0.0,0.0,0.0,0.0,0.0,0.0,0.0,0.0,0.0,0.0,0.0,0.0,0.0,0.0,0.0,0.0,0.0,0.0,1.0612,1.1741,1.2749,1.3481,1.167,1.0232,0.0,0.0,0.0,0.0,0.0,0.0,0.0,0.0,0.0,0.0,0.0,0.0,0.0,0.0,0.0,0.0,0.0,0.0,0.0,0.0,0.0,0.0,0.0,0.0,0.0,0.0,0.0,0.0,0.0,0.0,0.0,0.0,0.0,0.0,0.0,0.0,0.0,0.0,0.0,0.0,0.0,0.0,0.0,0.0,0.0,0.0,0.0,0.0,0.0,0.0,0.0,0.0,0.0,0.0,0.0,0.0,0.0,0.0,0.0,0.0,0.0,0.0,0.0,0.0,0.0,0.0,0.0,0.0,0.0,0.0,0.0,0.0,0.0,0.0,0.0,0.0,0.0,0.0,0.0,0.0,0.0,0.0,0.0,0.0,0.0,0.0,0.0,0.0,0.0,0.0,0.0,0.0,0.0,0.0,0.0,0.0,0.0,0.0,0.0,0.0,0.0,0.0,0.0,0.0,0.0,0.0,0.0,0.0,0.9781,1.1425,1.3123,1.3586,1.2825,1.1904,1.0308,0.0,0.0,0.0,0.0,0.0,0.0,0.0,0.0,0.0,0.0,0.0,0.0,0.0,0.0,0.0,0.0,0.0,0.0,0.0,0.0,0.0,0.0,0.0,0.0,0.0,0.0,0.0,0.0,0.0,0.0,0.0,0.0,0.0,0.0,0.0,0.0,0.0,0.0,0.0,0.0,0.0,0.0,0.0,0.0,0.0,0.0,0.0,0.0,0.0,0.0,0.0,0.0,0.0,0.0,0.0,0.0,0.0,0.0,0.0,0.0,0.0,0.0,0.0,0.0,0.0,0.0,0.0,0.0,0.0,0.0,0.0,0.0,0.0,0.0,0.0,0.0,0.0,0.0,0.0,0.0,0.0,0.0,0.0,0.0,0.0,0.0,0.0,0.0,0.0,0.0,0.0,0.0,0.0,0.0,0.0,0.0,0.0,0.0,0.0,0.0,0.0,0.0,0.0,0.0,0.0,0.0,0.0,0.0,0.0,1.0581,1.2181,1.2984,1.2756,1.1367,1.0257,0.0,0.0,0.0,0.0,0.0,0.0,0.0,0.0,0.0,0.0,0.0,0.0,0.0,0.0,0.0,0.0,0.0,0.0,0.0,0.0,0.0,0.0,0.0,0.0,0.0,0.0,0.0,0.0,0.0,0.0,0.0,0.0,0.0,0.0,0.0,0.0,0.0,0.0,0.0,0.0,0.0,0.0,0.0,0.0,0.0,0.0,0.0,0.0,0.0,0.0,0.0,0.0,0.0,0.0,0.0,0.0,0.0,0.0,0.0,0.0,0.0,0.0,0.0,0.0,0.0,0.0,0.0,0.0,0.0,0.0,0.0,0.0,0.0,0.0,0.0,0.0,0.0,0.0,0.0,0.0,0.0,0.0,0.0,0.0,0.0,0.0,0.0,0.0,0.0,0.0,0.0,0.0,0.0,0.0,0.0,0.0,0.0,0.0,0.0,0.0,0.0,0.0,0.0,0.0,0.0,0.0,0.0,0.0,0.0,1.2643,1.4322,1.5168,1.5004,1.3111,1.1505,1.0279,0.0,0.0,0.0,0.0,0.0,0.0,0.0,0.0,0.0,0.0,0.0,0.0,0.0,0.0,0.0,0.0,0.0,0.0,0.0,0.0,0.0,0.0,0.0,0.0,0.0,0.0,0.0,0.0,0.0,0.0,0.0,0.0,0.0,0.0,0.0,0.0,0.0,0.0,0.0,0.0,0.0,0.0,0.0,0.0,0.0,0.0,0.0,0.0,0.0,0.0,0.0,0.0,0.0,0.0,0.0,0.0,0.0,0.0,0.0,0.0,0.0,0.0,0.0,0.0,0.0,0.0,0.0,0.0,0.0,0.0,0.0,0.0,0.0,0.0,0.0,0.0,0.0,0.0,0.0,0.0,0.0,0.0,0.0,0.0,0.0,0.0,0.0,0.0,0.0,0.0,0.0,0.0,0.0,0.0,0.0,0.0,0.0,0.0,0.0,0.0,0.0,0.0,0.0,0.0,0.0,0.0,0.0,0.0,1.6874,1.8945,1.9618,1.8782,1.6521,1.3787,0.0,0.0,0.0,0.0,0.0,0.0,0.0,0.0,0.0,0.0,0.0,0.0,0.0,0.0,0.0,0.0,0.0,0.0,0.0,0.0,0.0,0.0,0.0,0.0,0.0,0.0,0.0,0.0,0.0,0.0,0.0,0.0,0.0,0.0,0.0,0.0,0.0,0.0,0.0,0.0,0.0,0.0,0.0,0.0,0.0,0.0,0.0,0.0,0.0,0.0,0.0,0.0,0.0,0.0,0.0,0.0,0.0,0.0,0.0,0.0,0.0,0.0,0.0,0.0,0.0,0.0,0.0,0.0,0.0,0.0,0.0,0.0,0.0,0.0,0.0,0.0,0.0,0.0,0.0,0.0,0.0,0.0,0.0,0.0,0.0,0.0,0.0,0.0,0.0,0.0,0.0,0.0,0.0,0.0,0.0,0.0,0.0,0.0,0.0,0.0,0.0,0.0,0.0,0.0,0.0,0.0,0.0,0.0,0.0,1.9191,2.256,2.3143,2.0594,1.7573,1.5043,0.0,0.0,0.0,0.0,0.0,0.0,0.0,0.0,0.0,0.0,0.0,0.0,0.0,0.0,0.0,0.0,0.0,0.0,0.0,0.0,0.0,0.0,0.0,0.0,0.0,0.0,0.0,0.0,0.0,0.0,0.0,0.0,0.0,0.0,0.0,0.0,0.0,0.0,0.0,0.0,0.0,0.0,0.0,0.0,0.0,0.0,0.0,0.0,0.0,0.0,0.0,0.0,0.0,0.0,0.0,0.0,0.0,0.0,0.0,0.0,0.0,0.0,0.0,0.0,0.0,0.0,0.0,0.0,0.0,0.0,0.0,0.0,0.0,0.0,0.0,0.0,0.0,0.0,0.0,0.0,0.0,0.0,0.0,0.0,0.0,0.0,0.0,0.0,0.0,0.0,0.0,0.0,0.0,0.0,0.0,0.0,0.0,0.0,0.0,0.0,0.0,0.0,0.0,0.0,0.0,0.0,0.0,0.0,1.8392,2.1211,2.4867,2.6034,2.441,2.0715,1.7339,0.0,0.0,0.0,0.0,0.0,0.0,0.0,0.0,0.0,0.0,0.0,0.0,0.0,0.0,0.0,0.0,0.0,0.0,0.0,0.0,0.0,0.0,0.0,0.0,0.0,0.0,0.0,0.0,0.0,0.0,0.0,0.0,0.0,0.0,0.0,0.0,0.0,0.0,0.0,0.0,0.0,0.0,0.0,0.0,0.0,0.0,0.0,0.0,0.0,0.0,0.0,0.0,0.0,0.0,0.0,0.0,0.0,0.0,0.0,0.0,0.0,0.0,0.0,0.0,0.0,0.0,0.0,0.0,0.0,0.0,0.0,0.0,0.0,0.0,0.0,0.0,0.0,0.0,0.0,0.0,0.0,0.0,0.0,0.0,0.0,0.0,0.0,0.0,0.0,0.0,0.0,0.0,0.0,0.0,0.0,0.0,0.0,0.0,0.0,0.0,0.0,0.0,0.0,0.0,0.0,0.0,0.0,0.0,2.0162,2.2859,2.6176,2.8174,2.8552,2.4462,2.0001,0.0,0.0,0.0,0.0,0.0,0.0,0.0,0.0,0.0,0.0,0.0,0.0,0.0,0.0,0.0,0.0,0.0,0.0,0.0,0.0,0.0,0.0,0.0,0.0,0.0,0.0,0.0,0.0,0.0,0.0,0.0,0.0,0.0,0.0,0.0,0.0,0.0,0.0,0.0,0.0,0.0,0.0,0.0,0.0,0.0,0.0,0.0,0.0,0.0,0.0,0.0,0.0,0.0,0.0,0.0,0.0,0.0,0.0,0.0,0.0,0.0,0.0,0.0,0.0,0.0,0.0,0.0,0.0,0.0,0.0,0.0,0.0,0.0,0.0,0.0,0.0,0.0,0.0,0.0,0.0,0.0,0.0,0.0,0.0,0.0,0.0,0.0,0.0,0.0,0.0,0.0,0.0,0.0,0.0,0.0,0.0,0.0,0.0,0.0,0.0,0.0,0.0,0.0,0.0,0.0,0.0,0.0,0.0,2.1053,2.3718,2.6464,2.7964,2.8066,2.411,2.062,0.0,0.0,0.0,0.0,0.0,0.0,0.0,0.0,0.0,0.0,0.0,0.0,0.0,0.0,0.0,0.0,0.0,0.0,0.0,0.0,0.0,0.0,0.0,0.0,0.0,0.0,0.0,0.0,0.0,0.0,0.0,0.0,0.0,0.0,0.0,0.0,0.0,0.0,0.0,0.0,0.0,0.0,0.0,0.0,0.0,0.0,0.0,0.0,0.8466,0.0,0.0,0.0,0.0,0.0,0.0,0.0,0.0,0.0,0.0,0.0,0.0,0.0,0.0,0.0,0.0,0.0,0.0,0.0,0.0,0.0,0.0,0.0,0.0,0.0,0.0,0.0,0.0,0.0,0.0,0.0,0.0,0.0,0.0,0.0,0.0,0.0,0.0,0.0,0.0,0.0,0.0,0.0,0.0,0.0,0.0,0.0,0.0,0.0,0.0,0.0,0.0,0.0,0.0,0.0,0.0,0.0,0.0,0.0,2.1972,2.5211,2.7701,2.8977,2.8865,2.62,2.2678,0.0,0.0,0.0,0.0,0.0,0.0,0.0,0.0,0.0,0.0,0.0,0.0,0.0,0.0,0.0,0.0,0.0,0.0,0.0,0.0,0.0,0.0,0.0,0.0,0.0,0.0,0.0,0.0,0.0,0.0,0.0,0.0,0.0,0.0,0.0,0.0,0.0,0.0,0.0,0.0,0.0,0.0,0.0,0.0,0.0,0.0,0.0,0.0,0.0,0.0,0.0,0.0,0.0,0.0,0.0,0.0,0.0,0.0,0.0,0.0,0.0,0.0,0.0,0.0,0.0,0.0,0.0,0.0,0.0,0.0,0.0,0.0,0.0,0.0,0.0,0.0,0.0,0.0,0.0,0.0,0.0,0.0,0.0,0.0,0.0,0.0,0.0,0.0,0.0,0.0,0.0,0.0,0.0,0.0,0.0,0.0,0.0,0.0,0.0,0.0,0.0,0.0,0.0,0.0,0.0,0.0,0.0,1.9899,2.3186,2.7385,2.9505,3.053,3.0498,2.8862,2.5017,1.8816,0.0,0.0,0.0,0.0,0.0,0.0,0.0,0.0,0.0,0.0,0.0,0.0,0.0,0.0,0.0,0.0,0.0,0.0,0.0,0.0,0.0,0.0,0.0,0.0,0.0,0.0,0.0,0.0,0.0,0.0,0.0,0.0,0.0,0.0,0.0,0.0,0.0,0.0,0.8151,1.021,0.0,0.0,0.0,0.0,0.0,0.0,0.0,0.0,0.8674,0.0,0.0,0.0,0.0,0.0,0.0,0.0,0.0,0.0,0.0,0.0,0.0,0.0,0.0,0.0,0.0,0.0,0.0,0.0,0.0,0.0,0.0,0.0,0.0,0.0,0.0,0.0,0.0,0.0,0.0,0.0,0.0,0.0,0.0,0.0,0.0,0.0,0.0,0.0,0.0,0.0,0.0,0.0,0.0,0.0,0.0,0.0,0.0,0.0,0.0,0.0,0.0,0.0,0.0,0.0,0.0,2.1262,2.1843,2.4978,3.0872,3.1721,3.2036,3.1737,2.9867,2.608,2.0372,0.0,0.0,0.0,0.0,0.0,0.0,0.0,0.0,0.0,0.0,0.0,0.0,0.0,0.0,0.0,0.0,0.0,0.0,0.0,0.0,0.0,0.0,0.0,0.0,0.0,0.0,0.0,0.0,0.0,0.0,0.0,0.0,0.0,0.0,0.0,0.0,0.0,0.0,0.0,1.3413,1.3379,0.0,0.0,0.0,0.0,0.0,0.0,0.0,0.0,0.9271,0.0,0.0,0.0,0.0,0.0,0.0,0.0,0.0,0.0,0.0,0.0,0.0,0.0,0.0,0.0,0.0,0.0,0.0,0.0,0.0,0.0,0.0,0.0,0.0,0.0,0.0,0.0,0.0,0.0,0.0,0.0,0.0,0.0,0.0,0.0,0.0,0.0,0.0,0.0,0.0,0.0,0.0,0.0,0.0,0.0,0.0,0.0,0.0,0.0,0.0,0.0,0.0,0.0,0.0,0.0,2.1372,2.4732,2.8422,3.2539,3.3352,3.3433,3.2858,3.0747,2.6961,0.0,0.0,0.0,0.0,0.0,0.0,0.0,0.0,0.0,0.0,0.0,0.0,0.0,0.0,0.0,0.0,0.0,0.0,0.0,0.0,0.0,0.0,0.0,0.0,0.0,0.0,0.0,0.0,0.0,0.0,0.0,0.0,0.0,0.0,0.0,0.0,0.0,0.0,0.0,0.0,1.49,1.5271,1.7732,0.0,0.0,0.0,0.0,0.0,0.0,1.0398,0.964,0.0,0.0,0.0,0.0,0.0,0.0,0.0,0.0,0.0,0.0,0.0,0.0,0.0,0.0,0.0,0.0,0.0,0.0,0.0,0.0,0.0,0.0,0.0,0.0,0.0,0.0,0.0,0.0,0.0,0.0,0.0,0.0,0.0,0.0,0.0,0.0,0.0,0.0,0.0,0.0,0.0,0.0,0.0,0.0,0.0,0.0,0.0,0.0,0.0,0.0,0.0,0.0,0.0,0.0,0.0,2.1161,2.6739,3.1061,3.3845,3.4756,3.4765,3.3965,3.1255,2.7204,0.0,0.0,0.0,0.0,0.0,0.0,0.0,0.0,0.0,0.0,0.0,0.0,0.0,0.0,0.0,0.0,0.0,0.0,0.0,0.0,0.0,0.0,0.0,0.0,0.0,0.0,0.0,0.0,0.0,0.0,0.0,0.0,0.0,0.0,0.0,0.0,0.0,0.0,0.0,0.0,0.0,1.6691,1.9133,1.7771,0.0,0.0,0.0,0.0,1.1891,1.164,0.0,0.0,0.0,0.0,0.0,0.0,0.0,0.0,0.0,0.0,0.0,0.0,0.0,0.0,0.0,0.0,0.0,0.0,0.0,0.0,0.0,0.0,0.0,0.0,0.0,0.0,0.0,0.0,0.0,0.0,0.0,0.0,0.0,0.0,0.0,0.0,0.0,0.0,0.0,0.0,0.0,0.0,0.0,0.0,0.0,0.0,0.0,0.0,0.0,0.0,0.0,0.0,0.0,0.0,0.0,0.0,2.1752,2.6016,3.0744,3.5732,3.6156,3.5937,3.5256,3.0833,2.5995,0.0,0.0,0.0,0.0,0.0,0.0,0.0,0.0,0.0,0.0,0.0,0.0,0.0,0.0,0.0,0.0,0.0,0.0,0.0,0.0,0.0,0.0,0.0,0.0,0.0,0.0,0.0,0.0,0.0,0.0,0.0,0.0,0.0,0.0,0.0,0.0,0.0,0.0,0.0,0.0,0.0,1.6588,1.7136,1.6732,1.5989,0.0,0.0,1.4518,1.6613,1.6554,0.0,0.0,0.0,0.0,0.0,0.0,0.0,0.0,0.0,0.0,0.0,0.0,0.0,0.0,0.0,0.0,0.0,0.0,0.0,0.0,0.0,0.0,0.0,0.0,0.0,0.0,0.0,0.0,0.0,0.0,0.0,0.0,0.0,0.0,0.0,0.0,0.0,0.0,0.0,0.0,0.0,0.0,0.0,0.0,0.0,0.0,0.0,0.0,0.0,0.0,0.0,0.0,0.0,0.0,0.0,1.8141,2.2551,2.8982,3.3934,3.7109,3.7499,3.7119,3.5975,3.119,2.6201,0.0,0.0,0.0,0.0,0.0,0.0,0.0,0.0,0.0,0.0,0.0,0.0,0.0,0.0,0.0,0.0,0.0,0.0,0.0,0.0,0.0,0.0,0.0,0.0,0.0,0.0,0.0,0.0,0.0,0.0,0.0,0.0,0.0,0.0,0.0,0.0,0.0,0.0,0.0,0.0,0.0,0.0,1.8181,2.0083,0.0,0.0,0.0,1.746,1.6285,0.0,0.0,0.0,0.0,0.0,0.0,0.0,0.0,0.0,0.0,0.0,0.0,0.0,0.0,0.0,0.0,0.0,0.0,0.0,0.0,0.0,0.0,0.0,0.0,0.0,0.0,0.0,0.0,0.0,0.0,0.0,0.0,0.0,0.0,0.0,0.0,0.0,0.0,0.0,0.0,0.0,0.0,0.0,0.0,0.0,0.0,0.0,0.0,0.0,0.0,0.0,0.0,0.0,0.0,0.0,0.0,0.0,2.2988,3.0985,3.6042,3.7807,3.8052,3.7659,3.655,3.2283,0.0,0.0,0.0,0.0,0.0,0.0,0.0,0.0,0.0,0.0,0.0,0.0,0.0,0.0,0.0,0.0,0.0,0.0,0.0,0.0,0.0,0.0,0.0,0.0,0.0,0.0,0.0,0.5295,0.0,0.0,0.0,0.0,0.0,0.0,0.0,0.0,0.0,0.0,0.0,0.0,0.0,0.0,1.7602,1.9092,2.2431,2.3626,0.0,0.0,1.9937,1.7423,1.9403,1.9909,0.0,0.0,0.0,0.0,0.0,0.0,0.0,0.0,0.0,0.0,0.0,0.0,0.0,0.0,0.0,0.0,0.0,0.0,0.0,0.0,0.0,0.0,0.0,0.0,0.0,0.0,0.0,0.0,0.0,0.0,0.0,0.0,0.0,0.0,0.0,0.0,0.0,0.0,0.0,0.0,0.0,0.0,0.0,0.0,0.0,0.0,0.0,0.0,0.0,0.0,0.0,0.0,0.0,0.0,1.9626,2.3008,2.999,3.5096,3.7776,3.7203,3.7014,3.7267,3.4174,2.8812,0.0,0.0,0.0,0.0,0.0,0.0,0.0,0.0,0.0,0.0,0.0,0.0,0.0,0.0,0.0,0.0,0.0,0.0,0.0,0.0,0.0,0.0,0.0,0.0,0.0,0.0,0.0,0.0,0.0,0.0,0.0,0.0,0.0,0.0,0.0,0.0,0.0,0.0,0.0,0.0,0.0,1.7622,1.8594,2.1603,2.3534,0.0,2.1916,2.1615,2.2883,2.4293,2.3325,1.7584,0.0,0.0,0.0,0.0,0.0,0.0,0.0,0.0,0.0,0.0,0.0,0.0,0.0,0.0,0.0,0.0,0.0,0.0,0.0,0.0,0.0,0.0,0.0,0.0,0.0,0.0,0.0,0.0,0.0,0.0,0.0,0.0,0.0,0.0,0.0,0.0,0.0,0.0,0.0,0.0,0.0,0.0,0.0,0.0,0.0,0.0,0.0,0.0,0.0,0.0,0.0,0.0,0.0,1.9842,2.2873,3.1213,3.6545,3.8415,3.8722,3.8671,3.8376,3.4959,3.0309,0.0,0.0,0.0,0.0,0.0,0.0,0.0,0.0,0.0,0.0,0.0,0.0,0.0,0.0,0.0,0.0,0.0,0.0,0.0,0.0,0.0,0.0,0.0,0.0,0.0,0.0,0.0,0.0,1.1004,1.1235,1.1065,0.0,0.0,0.0,0.0,0.0,0.0,0.0,0.0,0.0,0.0,1.9091,2.1105,2.4045,0.0,0.0,2.445,2.4374,2.2929,2.2942,2.1927,1.8468,1.6289,0.0,0.0,0.0,0.0,0.0,0.0,0.0,0.0,0.0,0.0,0.0,0.0,0.0,0.0,0.0,0.0,0.0,0.0,0.0,0.0,0.0,0.0,0.0,0.0,0.0,0.0,0.0,0.0,0.0,0.0,0.0,0.0,0.0,0.0,0.0,0.0,0.0,0.0,0.0,0.0,0.0,0.0,0.0,0.0,0.0,0.0,0.0,0.0,0.0,0.0,0.0,0.0,2.0227,2.3157,3.193,3.7335,3.9246,3.9542,3.9598,3.9276,3.6552,3.2672,0.0,0.0,0.0,0.0,0.0,0.0,0.0,0.0,0.0,0.0,0.0,0.0,0.0,0.0,0.0,0.0,0.0,0.0,0.0,0.0,0.0,0.0,0.0,0.0,0.0,0.0,0.0,0.0,1.1259,1.0849,0.9895,0.0,0.0,0.0,0.0,0.0,0.0,0.0,0.0,0.0,0.0,2.1374,2.3346,2.529,2.5879,2.3955,2.3866,2.3335,2.1234,2.1021,2.0448,1.8627,0.0,0.0,0.0,0.0,0.0,0.0,0.0,0.0,0.0,0.0,0.0,0.0,0.0,0.0,0.0,0.0,0.0,0.0,0.0,0.0,0.0,0.0,0.0,0.0,0.0,0.0,0.0,0.8415,0.0,0.0,0.8371,0.0,0.0,0.0,0.0,0.0,0.0,0.0,0.0,0.0,0.0,0.0,0.0,0.0,0.0,0.0,0.0,0.0,0.0,0.0,0.0,0.0,0.0,2.0648,2.4001,3.1713,3.7126,3.9935,3.9315,3.9315,4.002,3.9259,3.609,3.0187,0.0,0.0,0.0,0.0,0.0,0.0,0.0,0.0,0.0,0.0,0.0,0.0,0.0,0.0,0.0,0.0,0.0,0.0,0.0,0.0,0.0,0.0,0.0,0.0,0.0,0.0,0.5412,0.7061,0.9252,0.0,0.0,0.0,0.0,0.0,0.0,0.0,0.0,0.0,1.6835,2.1519,2.4552,2.4638,2.4576,2.4097,2.2622,1.9446,1.7424,1.8391,1.9318,1.9529,0.0,0.0,0.0,0.0,0.0,0.0,0.0,0.0,0.0,0.0,0.0,0.0,0.0,0.0,0.0,0.0,0.0,0.0,0.0,0.0,0.0,0.0,0.0,0.0,0.0,0.0,0.0,1.2619,1.2821,0.0,0.0,0.0,0.0,0.0,0.0,0.0,0.0,0.0,0.0,0.0,2.2609,2.3244,0.0,0.0,0.0,0.0,0.0,0.0,0.0,0.0,0.0,0.0,0.0,0.0,2.1768,2.3545,3.2821,3.8264,3.9262,3.9558,3.9833,4.007,3.936,3.5989,2.9678,0.0,0.0,0.0,0.0,0.0,0.0,0.0,0.0,0.0,0.0,0.0,0.0,0.0,0.0,0.0,0.0,0.0,0.0,0.0,0.0,0.0,0.0,0.0,0.0,0.0,0.876,0.0,0.0,0.0,0.0,0.0,0.0,0.0,0.0,0.0,0.0,0.0,1.6786,1.992,2.1805,2.3614,2.5512,2.5504,2.5469,0.0,0.0,0.0,0.0,0.0,0.0,0.0,0.0,0.0,0.0,0.0,0.0,0.0,0.0,1.2318,0.841,0.8239,0.8643,0.841,0.0,0.0,0.0,0.0,0.0,0.0,0.0,0.0,0.0,0.0,0.0,0.0,0.0,0.0,1.6995,0.0,1.7093,0.0,0.0,0.0,0.0,0.0,0.0,0.0,0.0,2.4424,2.6909,2.86,2.9425,2.9316,0.0,2.6383,2.2446,0.0,0.0,0.0,0.0,0.0,0.0,0.0,0.0,2.2891,2.4794,3.3988,3.9032,3.9315,3.9833,4.0087,4.007,3.9377,3.7121,3.3239,3.0082,2.6297,0.0,0.0,0.0,0.0,0.0,0.0,0.0,0.0,0.0,0.0,0.0,0.0,0.0,0.0,0.0,0.0,0.0,0.0,0.0,0.0,0.0,0.0,0.0,1.0294,0.0,0.0,0.0,0.0,0.0,0.0,0.0,0.0,0.0,1.3176,1.6655,2.0323,2.3168,2.4404,2.5313,2.5936,0.0,0.0,0.0,0.0,0.0,0.0,0.0,1.8251,1.9418,1.8348,1.8262,2.1076,2.0679,1.9941,1.9901,0.0,0.0,1.1972,1.1286,1.1385,1.1295,1.1538,1.1728,1.1777,1.2275,1.2773,0.0,0.0,0.0,0.0,0.0,0.0,0.0,0.0,2.2115,2.0927,0.0,2.1176,0.0,0.0,0.0,0.0,1.7615,2.2541,0.0,0.0,3.5901,3.83,3.6363,3.6275,3.6292,3.6132,3.2577,3.0496,2.953,2.4195,0.0,0.0,0.0,0.0,0.0,0.0,2.4128,2.7827,3.5131,3.9315,4.007,4.007,4.0087,4.007,3.9394,3.9461,4.0151,3.4496,3.1288,3.1127,1.5998,0.0,0.0,0.0,0.0,0.0,0.0,0.0,0.0,0.0,0.0,0.0,0.0,0.0,0.0,0.0,0.0,0.0,0.0,0.0,0.0,1.1324,0.0,0.0,0.0,0.0,0.0,0.0,0.0,0.0,0.0,0.0,1.706,2.0279,2.3839,2.6269,0.0,0.0,0.0,0.0,2.5279,2.1461,1.8875,1.7473,1.7369,1.8894,2.0627,2.2192,0.0,0.0,2.8569,2.5132,2.2453,2.3057,2.1449,1.9295,1.7232,1.5423,1.4359,1.4232,1.3772,1.3352,1.3706,1.4626,1.5216,2.5768,0.0,0.0,0.0,0.0,2.201,2.4173,2.823,2.8054,2.7422,2.6543,2.7532,0.0,0.0,0.0,0.0,0.0,0.0,2.8219,3.2662,3.4704,3.7235,4.0175,3.9994,3.9912,3.9823,3.8655,3.778,3.7172,3.5555,2.8497,1.6588,0.0,0.0,0.0,0.0,2.7707,3.0885,3.6659,3.9833,4.007,4.0087,4.0087,4.007,3.9884,3.9438,3.8694,3.7592,3.4641,2.9692,2.5655,0.0,0.0,0.0,0.0,0.0,0.0,0.0,0.0,0.0,0.0,0.0,0.0,0.0,0.0,0.0,0.0,0.0,0.0,0.0,0.9606,1.3253,1.4539,0.0,0.0,0.0,0.0,0.0,0.0,0.0,0.0,0.0,2.3804,2.3844,2.4007,0.0,0.0,2.4678,2.2758,2.4664,2.6028,2.5374,2.4936,0.0,2.5404,2.3748,2.3122,2.5118,2.7486,2.8772,2.7554,2.73,2.7037,2.6419,2.4518,2.2631,2.1448,1.9632,1.8156,1.7687,1.7991,1.8398,1.8561,1.8823,1.876,3.3422,2.9536,2.6116,2.5961,2.7878,2.722,2.9336,3.3336,3.3206,3.2476,3.1408,3.2632,3.0373,2.564,2.5494,0.0,0.0,0.0,3.2777,3.776,3.776,3.9463,4.2361,4.2303,4.2232,4.2178,4.1473,4.1272,4.1541,3.9494,3.3816,2.4711,0.0,0.0,2.1464,2.7053,3.11,3.3498,3.7807,4.0087,4.0087,4.0087,4.0204,4.04,4.0127,3.9718,3.9286,3.9552,3.7684,3.3347,3.1901,2.8762,0.0,0.0,0.0,0.0,0.0,0.0,0.0,0.0,0.0,0.0,0.0,0.8743,0.7604,0.0,0.0,0.0,1.4087,1.4112,1.4999,1.7171,0.0,0.0,0.0,0.0,0.0,0.0,0.0,2.3487,2.6094,2.799,2.8931,2.8049,2.7432,2.7734,2.7755,2.7028,2.5099,0.0,2.8415,2.7583,2.7198,2.7186,2.7621,2.6367,2.6101,2.8552,3.0006,3.0666,2.9681,2.9713,2.9294,2.7846,2.6269,2.4951,2.415,2.2938,2.1716,2.0749,2.0551,2.0568,2.059,2.059,2.0398,4.028,3.9878,3.1888,3.0366,3.3148,3.2465,3.41,3.7195,3.7268,3.6096,3.4317,3.6363,3.3883,2.8142,2.7531,0.0,3.5444,3.6157,3.887,4.3364,4.3379,4.3379,4.3379,4.3361,4.3416,4.3401,4.1934,4.2026,4.3204,3.8747,3.597,3.5159,3.3972,3.1818,2.9039,3.1655,3.3999,3.5722,3.8421,3.9949,4.0254,4.0254,4.0431,4.0863,4.0141,4.0192,4.1063,4.0454,4.0002,3.9617,3.5485,3.2496,3.0968,0.0,0.0,0.0,0.0,0.0,0.0,0.0,0.0,0.0,0.0,0.0,0.0,0.0,0.0,0.0,2.2029,0.0,2.4456,2.2396,0.0,0.0,0.0,1.9396,1.9601,2.4454,2.9622,3.4342,0.0,0.0,3.2688,3.2428,3.282,3.4456,3.4458,3.3226,3.0371,3.1211,3.1458,2.837,2.7005,2.6204,2.6618,2.7383,2.8959,3.1466,3.2364,3.2527,3.2866,3.1764,2.9959,2.7966,2.6982,2.6283,2.5673,2.5356,2.4951,2.3526,2.2127,2.1078,2.1192,2.1192,2.0951,4.352,4.286,4.0571,3.9063,3.8123,3.7356,3.7297,3.7772,3.8168,3.779,3.6998,3.7914,3.7781,3.6881,3.732,3.8285,3.9648,4.0067,4.09,4.2043,4.2268,4.236,4.236,4.2342,4.2576,4.2922,4.2588,4.2765,4.344,4.2255,4.0349,3.7876,3.7473,3.4582,2.9355,3.1479,3.3987,3.6631,3.7382,3.8944,4.127,4.1375,4.1183,4.069,4.0496,3.997,3.91,3.9191,3.8994,3.8407,3.7643,3.6362,3.4377,2.5912,0.0,0.0,0.0,0.0,0.0,0.0,0.0,0.0,0.0,1.3951,1.0654,0.0,1.9769,0.0,2.6513,2.8995,2.6532,2.6859,0.0,0.0,2.4522,2.4312,2.7937,2.956,3.1093,3.2792,3.3872,3.4706,3.5386,3.5116,3.5589,3.738,3.4211,3.079,2.8574,2.9937,3.0768,2.9496,2.9214,2.9194,2.863,2.9212,3.0294,3.2006,3.2747,3.3203,3.3372,3.2274,3.0545,2.8182,2.6982,2.6669,2.6982,2.6215,2.5494,2.5356,2.477,2.4257,2.4244,2.382,2.3157,4.5199,4.4744,4.4235,4.3259,4.1901,4.0029,3.9077,3.8809,3.8724,3.8546,3.8249,3.8578,3.9203,4.0092,4.0535,4.0942,4.1342,4.1623,4.1771,4.1798,4.1919,4.1977,4.1977,4.1977,4.2164,4.2464,4.2819,4.3146,4.3434,4.3806,4.299,4.1114,4.1046,3.8481,3.3617,3.2957,3.3082,3.3739,3.5905,3.8558,4.1669,4.181,4.0506,3.7893,3.8465,3.7345,3.4311,3.5087,3.4963,3.3549,3.3734,3.3488,3.2424,2.6253,2.2814,0.0,0.0,0.0,0.0,0.0,0.0,0.0,0.0,0.0,0.0,0.0,2.3367,2.2968,2.9236,3.1871,2.8349,2.9528,3.073,3.1264,3.037,3.1097,3.4549,3.5189,3.5541,3.5971,3.6881,3.768,3.8153,3.7793,3.7784,3.8686,3.5781,3.2995,3.144,3.1851,3.1918,3.0688,3.0231,2.9927,2.9473,2.9673,3.057,3.2378,3.3136,3.3609,3.4192,3.308,3.1067,2.8303,2.7506,2.7424,2.7548,2.6982,2.6481,2.6625,2.6573,2.6162,2.5508,2.5077,2.4469,4.6214,4.614,4.5351,4.5038,4.4834,4.1871,4.0528,4.0381,3.959,3.9142,3.8969,3.8969,3.9452,4.0215,4.0215,4.0626,4.1362,4.1644,4.175,4.175,4.1798,4.1879,4.1973,4.1973,4.2063,4.224,4.3001,4.3397,4.3498,4.424,4.424,4.3471,4.3413,4.1468,3.7713,3.4534,3.2054,3.0331,3.4624,3.8277,4.1001,4.0682,3.8308,3.4029,3.5245,3.3973,2.9599,3.0674,3.0507,2.8569,2.8593,2.8988,2.9554,2.674,2.5037,0.0,2.1562,0.0,0.0,0.0,0.0,0.0,0.0,0.0,0.0,2.5417,2.5271,2.5546,3.1308,3.3879,3.1114,3.2168,3.3891,3.5952,3.6806,3.7796,3.9277,4.0065,4.0489,4.0489,4.0489,4.0489,4.0377,4.0004,3.9458,3.8846,3.7744,3.6344,3.5471,3.4408,3.3205,3.1646,3.0254,2.9342,2.9398,2.9496,3.0451,3.2714,3.3372,3.3931,3.5273,3.3997,3.1819,2.925,2.8728,2.8646,2.8072,2.7871,2.771,2.783,2.7645,2.7137,2.6108,2.5618,2.5119,4.7865,4.7774,4.7003,4.6836,4.6991,4.509,4.3899,4.3248,4.2363,4.1437,4.0509,4.0491,4.0215,3.975,3.9731,3.9825,4.0,4.0314,4.0458,4.0459,4.0691,4.1163,4.1815,4.1853,4.2432,4.3428,4.3615,4.3938,4.4353,4.4504,4.3202,4.0556,4.0244,3.7455,3.2471,0.0,0.0,0.0,3.5271,3.6729,3.7202,3.4743,3.2621,3.1049,3.2519,0.0,3.1072,3.1413,3.145,3.1069,3.2262,0.0,0.0,0.0,0.0,0.0,0.0,0.0,0.0,0.0,0.0,0.0,2.6492,2.5693,2.7408,2.9971,3.1594,3.1777,3.4715,3.7214,3.8526,3.8869,3.9178,3.9543,3.9696,3.9931,4.0239,4.0392,4.0489,4.0489,4.0489,4.0489,4.0473,4.0194,3.9681,3.8925,3.8058,3.6982,3.5633,3.4071,3.2466,3.0961,2.9681,2.8936,2.9348,2.9805,3.0856,3.2799,3.3389,3.3981,3.5155,3.4451,3.342,3.231,3.1177,3.0101,2.988,2.906,2.8463,2.895,2.8255,2.7524,2.7255,2.6707,2.639,4.7206,4.7367,4.7402,4.7363,0.0,4.6915,4.6356,4.5655,4.3856,4.2347,4.1073,4.0617,4.0204,3.984,3.9859,3.9859,3.988,4.0157,4.0534,4.0936,4.1094,4.1604,4.245,4.2126,4.2518,4.3427,4.3733,4.4076,4.4448,4.4467,4.3507,4.1724,4.1113,3.9293,3.6393,3.6913,3.6727,3.5642,3.645,3.7826,3.9711,3.8383,3.5895,3.2469,3.421,0.0,0.0,0.0,0.0,0.0,0.0,0.0,0.0,0.0,0.0,3.2376,2.9582,2.7672,2.7171,2.8783,3.1419,3.5053,3.4681,3.3757,3.26,3.5326,3.7126,3.7175,3.8268,3.9402,4.0587,4.071,4.063,4.0519,4.0489,4.0489,4.0489,4.0489,4.0489,4.0489,4.0489,4.0489,4.0489,4.025,3.9884,3.9258,3.8512,3.7433,3.598,3.4539,3.2999,3.1288,2.9848,2.9196,2.9761,3.0269,3.1137,3.2736,3.3382,3.4054,3.5345,3.451,3.386,3.4263,3.2947,3.1431,3.0351,2.9539,2.9058,2.9271,2.8904,2.8352,2.814,2.7494,2.7152,4.6264,4.6576,4.726,4.7384,4.7143,4.7804,4.7827,4.7239,4.4829,0.0,0.0,4.0663,4.0228,4.0158,4.0158,4.0234,4.0406,4.0639,4.12,4.2008,4.2027,4.2489,4.3278,4.2646,4.2684,4.3316,4.3624,4.3874,4.4085,4.4085,4.3942,4.3634,4.2865,4.2275,4.1838,4.1644,4.0413,3.8182,3.7377,3.8633,4.1833,4.1667,3.8969,3.363,3.5764,3.4569,2.9608,3.1072,3.1241,2.9551,2.775,2.7899,3.0321,3.1689,3.3001,3.4302,3.449,3.5145,3.6503,3.7257,3.8462,4.0365,4.0623,3.9869,3.7878,3.9731,4.0959,4.0959,4.087,4.0752,4.0715,4.0667,4.0623,4.0504,4.0489,4.0489,4.0489,4.0457,4.0406,4.0406,4.0336,4.0353,4.0406,4.0251,4.0002,3.9649,3.8976,3.7867,3.6313,3.4706,3.3112,3.1422,3.0264,2.9886,3.0311,3.0909,3.1682,3.2997,3.3442,3.4034,3.4895,3.4602,3.4228,3.4317,3.3606,3.2326,3.0843,3.0054,2.9645,2.9717,2.954,2.9332,2.9012,2.84,2.7894,4.6863,4.693,4.7042,4.7208,4.7443,4.7558,4.7379,4.6897,4.5764,4.4362,4.2785,4.1906,4.1119,4.0457,4.0457,4.0864,4.1555,4.1607,4.2085,4.2912,4.2931,4.3355,4.4066,4.3335,4.3374,4.4047,4.3528,4.3239,4.3258,4.3278,4.3242,4.3152,4.2737,4.1971,4.099,4.0273,4.008,4.024,3.6908,3.5463,3.5951,3.3318,3.1498,3.0682,3.2333,3.2806,3.1967,3.2336,3.2378,3.2114,3.3319,3.4557,3.5775,3.789,3.9383,3.9611,3.9693,3.987,4.0123,4.0178,4.0268,4.0477,4.0623,4.0576,4.0315,4.0602,4.0836,4.0836,4.0752,4.0707,4.0692,4.0596,4.0534,4.0504,4.0489,4.0489,4.0473,4.0304,4.012,3.9984,3.9821,3.9842,4.0101,4.012,4.0062,3.9884,3.9008,3.8007,3.6043,3.3604,3.1756,3.0842,3.0662,3.0687,3.0959,3.1685,3.2627,3.3681,3.371,3.3897,3.4673,3.46,3.394,3.2236,3.2593,3.273,3.2198,3.1124,3.0534,3.0683,3.0166,2.9761,3.0351,2.9745,2.881,4.6081,4.667,4.7131,4.751,4.7832,4.7832,4.7204,4.6144,4.5278,4.422,4.3008,4.1681,4.0873,4.0508,4.0489,4.07,4.1085,4.1085,4.1546,4.2374,4.2393,4.2835,4.3605,4.3564,4.3583,4.3605,4.2951,4.2761,4.3028,4.2643,4.2393,4.2357,4.1737,4.115,4.0635,4.0292,4.0273,4.0577,3.8925,3.8263,3.8659,3.7432,3.6538,3.6101,3.6824,3.705,3.6788,3.6719,3.6736,3.6899,3.7738,3.8425,3.8859,4.0041,4.0707,4.0703,4.0752,4.0831,4.0905,4.077,4.0679,4.0668,4.0684,4.0672,4.0622,4.0701,4.0742,4.0752,4.0667,4.0582,4.0582,4.053,4.0489,4.0489,4.0489,4.0406,4.0212,4.0158,3.9962,3.9664,3.9599,3.9668,3.9797,3.9982,3.9793,3.9231,3.8196,3.6952,3.5732,3.4177,3.2855,3.2281,3.2066,3.1969,3.2035,3.2727,3.3469,3.3972,3.3945,3.3982,3.4202,3.4212,3.3768,3.2891,3.2869,3.2792,3.2475,3.1756,3.1274,3.1055,3.0838,3.0658,3.0617,2.9995,2.9164,4.5902,4.677,4.742,4.7853,4.8105,4.8105,4.7355,4.6086,4.5047,4.4239,4.3451,4.1643,4.0796,4.0796,4.0989,4.1085,4.1085,4.1066,4.147,4.2047,4.2104,4.245,4.3047,4.3371,4.3217,4.2758,4.2126,4.205,4.2393,4.1816,4.1508,4.145,4.0835,4.0489,4.0489,4.0489,4.0489,4.0511,4.0672,4.1026,4.1632,4.1928,4.1743,4.117,4.1074,4.0917,4.0511,4.0285,4.0285,4.0473,4.0489,4.05,4.0545,4.0649,4.0723,4.0715,4.0771,4.0809,4.085,4.0761,4.0712,4.0733,4.0696,4.061,4.0534,4.0582,4.0662,4.0649,4.0574,4.0504,4.0504,4.0504,4.0489,4.0489,4.0441,4.0267,3.9964,3.9882,3.9687,3.9287,3.932,3.9346,3.9303,3.9491,3.9237,3.8234,3.7065,3.6101,3.545,3.4735,3.4055,3.3876,3.3447,3.3146,3.3194,3.3702,3.412,3.4233,3.4209,3.4173,3.4072,3.3957,3.3825,3.3625,3.3321,3.2834,3.2248,3.1914,3.1763,3.1688,3.1674,3.1574,3.1496,3.0591,2.983,4.7818,4.7933,4.8049,4.8068,4.8144,4.8144,4.8029,4.7625,4.6182,4.5451,4.5028,4.2758,4.172,4.1797,4.247,4.2758,4.2777,4.2854,4.2854,4.2893,4.2989,4.3028,4.2931,4.2335,4.197,4.1816,4.1085,4.0796,4.0873,4.0719,4.0642,4.0623,4.0527,4.0489,4.0489,4.0489,4.0489,4.0489,4.0515,4.0559,4.0617,4.0668,4.0649,4.0572,4.0572,4.055,4.0489,4.0454,4.0473,4.0489,4.0489,4.0559,4.0674,4.0692,4.0711,4.0703,4.0771,4.0779,4.0729,4.0715,4.0655,4.0545,4.0545,4.0515,4.0504,4.0519,4.0519,4.0519,4.0504,4.0489,4.0489,4.0489,4.0489,4.0457,4.0285,4.0081,3.9861,3.9505,3.9063,3.8792,3.8796,3.8615,3.8268,3.831,3.822,3.7662,3.6806,3.6103,3.5677,3.4557,3.3987,3.433,3.4203,3.3929,3.3953,3.4289,3.4658,3.4851,3.4534,3.4379,3.4375,3.4136,3.3807,3.378,3.3522,3.2983,3.2506,3.1967,3.2209,3.2763,3.2934,3.3072,3.3369,3.2389,3.1299,4.8413,4.8856,4.8856,4.8875,4.8913,4.9394,4.9048,4.8029,4.7394,4.6528,4.5547,4.4489,4.3508,4.2604,4.2951,4.3085,4.3085,4.3085,4.2816,4.2374,4.2335,4.2066,4.1546,4.1219,4.1027,4.1008,4.0642,4.0489,4.0489,4.0489,4.0489,4.0489,4.0489,4.0489,4.0489,4.0489,4.0489,4.0489,4.0489,4.0489,4.0489,4.0489,4.0489,4.0489,4.0489,4.0489,4.0489,4.0489,4.0489,4.0489,4.0489,4.0534,4.0588,4.0568,4.0588,4.0602,4.0617,4.066,4.0692,4.0723,4.0667,4.0623,4.061,4.0604,4.0485,4.0489,4.0489,4.0489,4.0489,4.0489,4.0489,4.0489,4.0422,4.0285,4.0158,3.9922,3.9462,3.9238,3.8999,3.8743,3.8285,3.7923,3.7618,3.7181,3.6972,3.685,3.6335,3.5828,3.5594,3.462,3.4353,3.4849,3.4575,3.4337,3.4548,3.4775,3.4981,3.4999,3.4793,3.4593,3.4593,3.442,3.4087,3.3879,3.3725,3.3669,3.3619,3.3443,3.3521,3.404,3.4164,3.4287,3.4568,3.3749,3.3243,4.9183,4.9721,4.976,4.976,4.9798,5.0414,4.999,4.8798,4.8336,4.7413,4.6297,4.5724,4.486,4.3876,4.3689,4.3519,4.3308,4.3289,4.2694,4.1773,4.1764,4.1335,4.0566,4.0489,4.0489,4.0489,4.0508,4.0489,4.0489,4.0489,4.0489,4.0489,4.0489,4.0489,4.0489,4.0489,4.0489,4.0489,4.0489,4.0489,4.0489,4.0489,4.0489,4.0489,4.0489,4.0489,4.0489,4.0489,4.0489,4.0489,4.0489,4.0489,4.0489,4.0489,4.0489,4.0489,4.0489,4.053,4.0649,4.0862,4.0997,4.1016,4.119,4.1326,4.1189,4.0989,4.0854,4.0873,4.0642,4.0489,4.0489,4.0441,4.0304,4.012,3.9982,3.9599,3.9205,3.9063,3.8802,3.8401,3.7863,3.7356,3.7025,3.6255,3.578,3.6174,3.5878,3.5507,3.5334,3.4628,3.4109,3.4949,3.4378,3.4265,3.4971,3.5105,3.5122,3.5122,3.4944,3.4734,3.4812,3.4674,3.4758,3.4731,3.4412,3.4347,3.4519,3.4673,3.4902,3.5303,3.5525,3.565,3.5935,3.5378,3.5267,5.0606,5.0606,5.0625,5.0587,5.0625,5.0664,5.0625,5.0183,4.8798,4.801,4.7511,4.595,4.5245,4.5339,4.4975,4.4546,4.3838,4.3802,4.2943,4.157,4.1698,4.1354,4.0527,4.0489,4.0489,4.0489,4.0489,4.0489,4.0489,4.0489,4.0489,4.0489,4.0489,4.0489,4.0489,4.0489,4.0489,4.0489,4.0489,4.0489,4.0489,4.0489,4.0489,4.0489,4.0489,4.0489,4.0489,4.0489,4.0489,4.0489,4.0489,4.0489,4.0489,4.0508,4.0546,4.0546,4.0546,4.0581,4.0731,4.1347,4.1771,4.1851,4.246,4.289,4.2582,4.2027,4.1623,4.1662,4.0893,4.0489,4.0438,4.0267,4.012,4.0002,3.9529,3.9205,3.908,3.8884,3.8364,3.7801,3.7463,3.6943,3.6085,3.5256,3.5191,3.5488,3.5545,3.5449,3.5161,3.4026,3.3564,3.3833,3.3718,3.3532,3.5004,3.5239,3.5223,3.528,3.5129,3.487,3.4963,3.5096,3.5427,3.5697,3.5708,3.5674,3.561,3.5738,3.6023,3.6483,3.7081,3.7352,3.719,3.7467,3.7111,5.0683,5.0683,5.0683,5.0683,5.0683,5.0683,5.0257,4.9494,4.89,4.7834,4.6639,4.5854,4.5323,4.4943,4.4849,4.4725,4.4617,4.4639,4.3702,4.2236,4.2183,4.1625,4.0585,4.0489,4.0489,4.0489,4.0489,4.0489,4.0489,4.0489,4.0489,4.0489,4.0489,4.0489,4.0489,4.0489,4.0489,4.0489,4.0489,4.0489,4.0489,4.0489,4.0489,4.0489,4.0489,4.0489,4.0489,4.0489,4.0489,4.0489,4.0489,4.0489,4.0546,4.1027,4.1335,4.1393,4.1854,4.2162,4.22,4.245,4.2624,4.2681,4.322,4.3201,4.245,4.2104,4.1758,4.1123,4.0739,4.0441,4.0286,4.0158,3.9922,3.9529,3.9238,3.9008,3.8884,3.8762,3.8395,3.7562,3.6814,3.5913,3.5399,3.5021,3.5105,3.5398,3.5507,3.5257,3.4641,3.3622,3.3103,3.3237,3.3141,3.3295,3.4391,3.4967,3.5176,3.5329,3.5318,3.523,3.5267,3.6332,3.6881,3.7005,3.7068,3.7193,3.718,3.7216,3.7442,3.7215,3.7877,3.8287,3.8415,3.8117,3.7556,5.0683,5.0683,5.0683,5.0624,5.0485,5.0216,4.9586,4.8656,4.8142,4.7106,4.5916,4.5549,4.5167,4.4808,4.4757,4.4635,4.4581,4.4791,4.414,4.281,4.2574,4.2087,4.1418,4.1123,4.1143,4.1258,4.1027,4.0796,4.0508,4.0489,4.0489,4.0489,4.0489,4.0489,4.0489,4.0489,4.0489,4.0489,4.0489,4.0489,4.0489,4.0489,4.0489,4.0489,4.0489,4.0489,4.0489,4.0489,4.0489,4.0527,4.0758,4.1027,4.1373,4.1893,4.222,4.2297,4.2739,4.3085,4.3143,4.3316,4.3489,4.3489,4.3797,4.3547,4.2681,4.2297,4.17,4.1085,4.0604,4.0408,4.0177,4.0101,3.9819,3.9212,3.9008,3.8894,3.8683,3.8432,3.7831,3.6879,3.5901,3.5199,3.4944,3.5019,3.5207,3.5479,3.5507,3.5141,3.4314,3.3757,3.316,3.2949,3.2949,3.3314,3.4064,3.4582,3.5423,3.571,3.59,3.5778,3.6175,3.7348,3.8131,3.829,3.8455,3.8658,3.8763,3.8804,3.8469,3.7952,3.8258,3.8693,3.8597,3.8433,3.7812,5.0683,5.0683,5.0683,5.0366,4.9954,4.9201,4.865,4.788,4.6569,4.5873,4.5406,4.4904,4.4707,4.4966,4.4943,4.4459,4.385,4.438,4.4084,4.307,4.261,4.2622,4.2766,4.2283,4.2338,4.2797,4.2181,4.1377,4.0707,4.0761,4.0758,4.0608,4.0739,4.0835,4.0604,4.0758,4.0662,4.0719,4.0777,4.0681,4.0527,4.0719,4.0758,4.0681,4.07,4.0719,4.0642,4.0546,4.0527,4.0662,4.1296,4.2162,4.2758,4.297,4.3066,4.3104,4.3181,4.3181,4.3297,4.3855,4.4182,4.4143,4.422,4.4028,4.3508,4.2566,4.1739,4.1431,4.0912,4.0389,4.0158,4.0005,3.9707,3.9193,3.8813,3.8696,3.8449,3.7941,3.7007,3.5882,3.5162,3.4888,3.5018,3.5122,3.5254,3.5412,3.5488,3.5103,3.4237,3.391,3.3737,3.3108,3.301,3.3496,3.3884,3.4334,3.5372,3.619,3.6435,3.6549,3.7223,3.8204,3.9046,3.9294,3.909,3.9229,3.8727,3.8712,3.8515,3.8229,3.8702,3.8674,3.846,3.8149,3.8145,5.0683,5.0586,4.9808,4.9389,4.9139,4.8125,4.7154,4.6266,4.5637,4.4972,4.4257,4.3947,4.4035,4.4373,4.4612,4.4556,4.4228,4.4654,4.3945,4.2396,4.201,4.2229,4.2601,4.2527,4.2659,4.3011,4.2835,4.2424,4.1991,4.2134,4.2153,4.1971,4.2134,4.2277,4.22,4.2297,4.2297,4.2297,4.2277,4.2277,4.2297,4.2277,4.2258,4.2277,4.2297,4.2297,4.222,4.1143,4.0835,4.1335,4.1662,4.22,4.2912,4.3085,4.3355,4.3893,4.4509,4.4816,4.4739,4.4451,4.4278,4.4201,4.3797,4.3181,4.2681,4.2143,4.1508,4.1046,4.0623,4.037,4.0081,3.9528,3.9028,3.8597,3.849,3.8165,3.7636,3.6919,3.6293,3.5844,3.5304,3.5056,3.5122,3.5223,3.5383,3.546,3.5488,3.5026,3.3776,3.3814,3.3395,3.2433,3.2986,3.378,3.4262,3.4897,3.5801,3.671,3.7083,3.7523,3.8232,3.8873,3.97,3.9742,3.9569,3.9204,3.8735,3.8389,3.8097,3.7838,3.7692,3.7747,3.7831,3.7857,3.7857,4.9682,4.9466,4.8739,4.8237,4.792,4.6864,4.5945,4.5106,4.4758,4.4206,4.3621,4.3646,4.3804,4.4076,4.4553,4.4518,4.4222,4.4509,4.3782,4.2415,4.2239,4.2617,4.3225,4.3433,4.3347,4.3387,4.3494,4.3248,4.2738,4.2961,4.296,4.2813,4.2979,4.3066,4.3085,4.3085,4.3085,4.3085,4.3066,4.3085,4.3085,4.3085,4.3085,4.3085,4.3085,4.2951,4.2585,4.1527,4.1239,4.17,4.1816,4.222,4.2989,4.3104,4.3335,4.3816,4.4297,4.4605,4.4605,4.4066,4.3855,4.372,4.3085,4.2431,4.1873,4.1604,4.1024,4.0689,4.0226,3.9992,3.9753,3.9048,3.8372,3.7829,3.7823,3.7489,3.6797,3.6177,3.5787,3.5608,3.5419,3.5307,3.5331,3.5364,3.5488,3.5507,3.5488,3.4872,3.3699,3.3853,3.3288,3.3122,3.3868,3.4489,3.4814,3.5504,3.6309,3.71,3.7819,3.8416,3.9084,3.9623,4.0277,3.9258,3.8812,3.8113,3.7593,3.7419,3.7159,3.6913,3.6656,3.6971,3.72,3.7526,3.7583,4.8028,4.7701,4.7674,4.7382,4.67,4.5774,4.5148,4.4702,4.395,4.3686,4.3679,4.3943,4.4076,4.4261,4.4806,4.4581,4.3739,4.4043,4.404,4.3553,4.3435,4.3788,4.4397,4.4728,4.4551,4.4114,4.4248,4.3955,4.3385,4.3455,4.3222,4.3363,4.3436,4.3297,4.3489,4.3297,4.3431,4.3489,4.3393,4.3412,4.3393,4.3355,4.3355,4.3393,4.3393,4.3143,4.2604,4.2124,4.1835,4.1835,4.1816,4.22,4.2893,4.3066,4.2989,4.3162,4.3124,4.3258,4.3181,4.3104,4.3028,4.297,4.2239,4.1736,4.1559,4.0935,4.0472,4.0428,3.9754,3.927,3.9158,3.8523,3.7719,3.7007,3.6952,3.6672,3.6093,3.5772,3.5637,3.5474,3.5475,3.5581,3.5538,3.5528,3.5501,3.5507,3.5482,3.4693,3.366,3.3619,3.4129,3.4244,3.4138,3.4923,3.5184,3.5944,3.6791,3.7948,3.8549,3.8984,3.958,4.0085,3.9508,3.8531,3.7759,3.7045,3.654,3.631,3.5988,3.5591,3.5721,3.6221,3.6619,3.6925,3.7451,4.901,4.8872,4.8351,4.7993,4.7529,4.5737,4.4979,4.4962,4.4252,4.4147,4.4289,4.4392,4.4629,4.4849,4.5026,4.5027,4.4939,4.5036,4.4958,4.4687,4.4642,4.4718,4.5014,4.5302,4.5342,4.5074,4.509,4.5035,4.4632,4.4707,4.4727,4.4592,4.4707,4.4874,4.4951,4.4836,4.4932,4.4932,4.4913,4.4874,4.4893,4.4874,4.4932,4.4951,4.4874,4.4739,4.4432,4.3374,4.2431,4.1854,4.1816,4.22,4.2835,4.247,4.2374,4.2854,4.3008,4.3047,4.2931,4.247,4.2181,4.2085,4.1405,4.0896,4.0958,4.0192,3.9832,3.9694,3.9073,3.8559,3.8441,3.7808,3.6942,3.6204,3.6163,3.6071,3.5853,3.5724,3.5655,3.5628,3.56,3.5611,3.56,3.5546,3.5501,3.5515,3.5425,3.4966,3.3729,3.2909,3.3218,3.3243,3.3431,3.4677,3.563,3.638,3.7381,3.8735,3.9275,3.9354,3.9813,4.0196,3.87,3.7026,3.6504,3.5866,3.5401,3.5076,3.4682,3.4104,3.4821,3.5358,3.5869,3.6303,3.7163,4.876,4.86,4.8186,4.7912,4.7636,4.6284,4.5811,4.59,4.5546,4.5406,4.5617,4.5663,4.5559,4.5409,4.5548,4.5488,4.5419,4.5531,4.5475,4.5323,4.5284,4.514,4.5033,4.5222,4.54,4.5419,4.555,4.5456,4.5323,4.5513,4.5457,4.5323,4.5495,4.5586,4.5509,4.5586,4.5797,4.597,4.5836,4.574,4.6105,4.5778,4.5586,4.5586,4.5566,4.5374,4.4489,4.2874,4.1873,4.17,4.1508,4.1489,4.1873,4.1546,4.1489,4.1989,4.2008,4.1989,4.1947,4.1551,4.1379,4.1296,4.0816,4.0529,4.0246,3.9733,3.947,3.9039,3.8279,3.787,3.7669,3.7052,3.6372,3.5966,3.5814,3.5802,3.5747,3.5766,3.5807,3.5807,3.573,3.5629,3.5648,3.5562,3.5515,3.5534,3.5566,3.4652,3.3497,3.2788,3.2221,3.2368,3.2715,3.3769,3.4687,3.543,3.5976,3.7481,3.8569,3.8871,3.9287,3.9454,3.7536,3.5802,3.5264,3.4611,3.3903,3.3298,3.2822,3.2783,3.3664,3.4394,3.4876,3.6156,3.6986,4.8047,4.7777,4.785,4.7648,4.7394,4.7238,4.7097,4.7121,4.7008,4.7034,4.7074,4.7068,4.648,4.5918,4.5957,4.5791,4.5201,4.5495,4.5568,4.5549,4.5513,4.5322,4.4924,4.514,4.5282,4.5302,4.5495,4.5568,4.5568,4.5586,4.5586,4.5549,4.5586,4.5701,4.5836,4.5817,4.622,4.6721,4.624,4.6182,4.6413,4.5874,4.5316,4.5278,4.5066,4.4355,4.3104,4.172,4.1066,4.1643,4.0912,4.0662,4.0604,4.0546,4.0566,4.0673,4.0804,4.0761,4.0622,4.0836,4.0784,4.0776,4.0733,4.0412,3.9789,3.9349,3.8805,3.8316,3.743,3.7039,3.6928,3.6348,3.6062,3.5957,3.5996,3.593,3.5851,3.588,3.594,3.5954,3.5821,3.5755,3.5679,3.5631,3.5565,3.5601,3.5523,3.4812,3.379,3.303,3.2315,3.1797,3.2246,3.2793,3.3574,3.4297,3.4766,3.5593,3.6784,3.7423,3.7896,3.7606,3.5916,3.4577,3.3724,3.2686,3.1653,3.1148,3.1148,3.1863,3.3072,3.3423,3.3847,3.5817,3.7091,4.9087,4.9027,4.9427,4.9134,4.8441,4.8159,4.7825,4.7457,4.7524,4.7774,4.7735,4.7278,4.6913,4.6626,4.6187,4.5629,4.5495,4.5568,4.5586,4.5586,4.5586,4.5531,4.5381,4.5456,4.5495,4.5494,4.5549,4.5603,4.562,4.5618,4.5603,4.5603,4.5642,4.5932,4.649,4.6528,4.7009,4.7548,4.7009,4.6682,4.6547,4.5509,4.472,4.4605,4.4028,4.3162,4.2335,4.1739,4.1277,4.0854,4.062,4.05,4.0504,4.0519,4.0519,4.053,4.061,4.0642,4.068,4.0722,4.076,4.0671,4.0256,3.9811,3.9624,3.84,3.7775,3.7304,3.6673,3.6266,3.6246,3.6064,3.5954,3.5996,3.5996,3.5976,3.5957,3.5957,3.595,3.5874,3.5857,3.5831,3.5717,3.5702,3.5663,3.5682,3.5347,3.4925,3.4121,3.3188,3.2356,3.1521,3.1738,3.2226,3.2617,3.3184,3.3437,3.3588,3.4472,3.5123,3.5628,3.5426,3.3629,3.2634,3.1974,3.105,3.0442,3.0579,3.0882,3.1713,3.2505,3.3192,3.414,3.5851,3.6799,4.999,4.999,4.9829,4.9496,4.9092,4.8881,4.8655,4.8518,4.8886,4.9161,4.9202,4.8836,4.8259,4.7471,4.6971,4.6451,4.5701,4.5586,4.5586,4.562,4.5668,4.5692,4.5703,4.5728,4.5736,4.5703,4.5736,4.5744,4.5731,4.5703,4.5692,4.5696,4.5654,4.6047,4.6778,4.6971,4.7586,4.8221,4.7509,4.7048,4.7124,4.5817,4.4624,4.4105,4.3201,4.2239,4.1873,4.1373,4.095,4.0635,4.0568,4.0549,4.0526,4.0584,4.0623,4.0617,4.0688,4.0752,4.0771,4.0809,4.0707,4.0318,3.9916,3.9302,3.8739,3.7613,3.703,3.6596,3.6161,3.5812,3.588,3.5923,3.5972,3.5996,3.6016,3.6016,3.6016,3.6016,3.5995,3.5903,3.5913,3.5873,3.5827,3.5644,3.5669,3.5636,3.5047,3.4592,3.3767,3.2851,3.2031,3.1425,3.1426,3.1621,3.1855,3.207,3.209,3.197,3.1903,3.2191,3.2349,3.191,3.1183,3.0918,3.0892,3.0658,3.0235,3.0452,3.0665,3.1202,3.1981,3.3108,3.421,3.535,3.6038,5.0625,5.0452,4.9702,4.926,4.9086,4.924,4.924,4.926,5.0279,5.0336,5.0394,5.0394,4.8894,4.8067,4.7548,4.6778,4.595,4.5635,4.5648,4.5665,4.575,4.5796,4.5813,4.5871,4.5891,4.5856,4.5871,4.5872,4.5862,4.5825,4.5789,4.5814,4.588,4.6392,4.6951,4.7355,4.8144,4.9221,4.8048,4.7413,4.7451,4.6086,4.4509,4.3278,4.2354,4.1623,4.137,4.0997,4.0569,4.053,4.0641,4.0551,4.0481,4.0673,4.0652,4.0574,4.0663,4.0719,4.0545,4.0618,4.046,3.9758,3.9427,3.8867,3.7773,3.7164,3.6599,3.6168,3.5774,3.5749,3.5896,3.594,3.5974,3.5996,3.6016,3.6016,3.6016,3.6016,3.5996,3.5976,3.593,3.5857,3.5627,3.5412,3.5502,3.5431,3.4797,3.4131,3.3299,3.258,3.1758,3.1179,3.1127,3.1113,3.1335,3.1339,3.1316,3.1056,3.0475,3.0322,3.0273,3.0446,3.05,3.0238,3.0148,3.0045,3.0109,3.0261,3.0503,3.0743,3.1835,3.3338,3.4216,3.4819,3.5443,5.026,4.9586,4.9452,4.8606,4.7663,4.8779,4.8933,4.8663,5.001,5.024,4.9625,4.8894,4.822,4.72,4.6315,4.5834,4.5726,4.5703,4.5756,4.5764,4.5839,4.5891,4.5909,4.5995,4.6039,4.6021,4.5974,4.5916,4.59,4.5836,4.5958,4.5982,4.642,4.7105,4.7894,4.8567,4.9106,4.9702,4.8529,4.7836,4.7317,4.5278,4.3085,4.1816,4.1143,4.0908,4.0838,4.0745,4.0655,4.0667,4.0679,4.0344,4.0062,4.0422,4.0351,4.005,4.0357,4.0433,4.0012,3.9986,4.0017,3.9589,3.8691,3.7988,3.7402,3.6795,3.6199,3.5872,3.5671,3.5706,3.5873,3.5938,3.5948,3.5976,3.6016,3.6016,3.6016,3.6016,3.6016,3.5996,3.5918,3.5718,3.5376,3.5019,3.4863,3.4531,3.3866,3.33,3.2619,3.2085,3.1562,3.109,3.0777,3.0781,3.0825,3.0761,3.0694,3.056,3.0166,2.9883,2.9899,3.0132,3.0142,3.0109,3.0061,3.0066,3.0122,3.0177,3.0328,3.0588,3.2085,3.3719,3.4137,3.4588,3.56,4.9779,4.9317,4.849,4.7663,4.7124,4.7721,4.8144,4.8317,4.9433,4.9854,4.9461,4.9013,4.8187,4.7215,4.6668,4.6216,4.5873,4.5825,4.5839,4.5881,4.5952,4.6001,4.6021,4.6144,4.6144,4.6108,4.6033,4.5995,4.6047,4.6397,4.6356,4.6607,4.7171,4.7932,4.849,4.8644,4.9279,4.9471,4.8452,4.7471,4.724,4.4528,4.2508,4.147,4.0716,4.0569,4.061,4.0662,4.0718,4.0655,4.0377,4.0032,3.9783,3.9564,3.9517,3.9175,3.9501,3.9648,3.9219,3.918,3.9023,3.8496,3.7695,3.7168,3.6816,3.6283,3.588,3.5723,3.573,3.5774,3.59,3.5921,3.5953,3.5996,3.6016,3.6016,3.6016,3.6016,3.6016,3.5996,3.5898,3.5566,3.4939,3.459,3.4219,3.3652,3.2969,3.2433,3.1921,3.1549,3.1178,3.098,3.0655,3.0653,3.0642,3.054,3.0414,3.022,3.006,2.9777,2.9712,3.0052,3.0228,3.0299,3.0235,3.0163,3.0222,3.0323,3.0375,3.0584,3.2085,3.3355,3.379,3.4439,3.5489,4.9202,4.8779,4.7471,4.6797,4.6682,4.687,4.7292,4.7985,4.8827,4.9154,4.9102,4.8955,4.8184,4.7203,4.6824,4.6512,4.5899,4.5916,4.5952,4.5974,4.6075,4.6124,4.6144,4.6175,4.6175,4.6039,4.6033,4.605,4.6112,4.6435,4.674,4.6886,4.7518,4.8259,4.8548,4.8586,4.8779,4.8452,4.7759,4.6855,4.572,4.4066,4.2431,4.1639,4.0881,4.0596,4.0667,4.0771,4.0643,4.0441,4.0053,3.9582,3.9198,3.8668,3.8219,3.8051,3.8317,3.8496,3.8359,3.834,3.8105,3.7637,3.7207,3.668,3.6289,3.6042,3.5849,3.5788,3.5812,3.5884,3.594,3.5972,3.5996,3.5996,3.6016,3.6016,3.5996,3.5996,3.5996,3.5937,3.5858,3.5253,3.4433,3.4043,3.3672,3.2637,3.1944,3.1792,3.1315,3.1061,3.0794,3.074,3.0625,3.0607,3.0561,3.049,3.0389,3.0266,3.0203,3.0047,2.9988,3.0066,3.0155,3.0155,3.0367,3.0311,3.0379,3.0379,3.0414,3.0893,3.2125,3.2967,3.3436,3.4348,3.5484,4.8548,4.7201,4.7009,4.6451,4.5948,4.663,4.7033,4.7279,4.8192,4.8135,4.7719,4.7524,4.7067,4.6336,4.6149,4.6024,4.5971,4.6014,4.6055,4.608,4.6173,4.6173,4.6113,4.6113,4.6045,4.5952,4.5924,4.5916,4.6007,4.6069,4.6093,4.638,4.748,4.7952,4.7971,4.8529,4.8875,4.8221,4.7298,4.5759,4.3893,4.2585,4.1643,4.0973,4.0693,4.0692,4.0712,4.0743,4.0554,3.995,3.9854,3.9062,3.791,3.7519,3.6992,3.7011,3.748,3.8262,3.7598,3.7441,3.7441,3.7031,3.6641,3.6211,3.6016,3.5925,3.5871,3.5974,3.5925,3.5921,3.5976,3.5996,3.6016,3.6016,3.6016,3.6016,3.5996,3.5956,3.5956,3.5583,3.5386,3.451,3.3633,3.3379,3.3027,3.1914,3.1046,3.0954,3.0857,3.0716,3.0618,3.0614,3.0598,3.0589,3.0529,3.0452,3.0394,3.0299,3.0267,3.0254,3.0228,3.0095,2.9782,2.9848,3.0128,3.0343,3.0311,3.0323,3.0371,3.0983,3.2003,3.2608,3.3103,3.4206,3.5499,4.7971,4.6855,4.6374,4.6018,4.58,4.6156,4.6642,4.7132,4.7553,4.7598,4.7352,4.7301,4.684,4.6138,4.6084,4.6084,4.6069,4.6144,4.615,4.6108,4.6147,4.6097,4.6001,4.5981,4.5916,4.5861,4.5836,4.5796,4.5893,4.6261,4.6472,4.6645,4.7929,4.8798,4.799,4.8471,4.8125,4.7144,4.5682,4.397,4.2681,4.197,4.142,4.0668,4.0687,4.0742,4.0731,4.0368,4.021,3.9598,3.9121,3.8144,3.7363,3.6875,3.6348,3.6211,3.6641,3.6894,3.6621,3.6582,3.6621,3.6562,3.623,3.6055,3.5996,3.5957,3.5937,3.5996,3.5974,3.5957,3.5996,3.6016,3.6016,3.6016,3.6016,3.5918,3.5918,3.5937,3.5838,3.5367,3.4798,3.3883,3.3043,3.2637,3.2305,3.1582,3.0933,3.0855,3.0798,3.0716,3.0643,3.0604,3.0601,3.0587,3.0524,3.0451,3.0425,3.0343,3.0311,3.0311,3.0311,3.0155,2.9815,2.9695,2.9958,3.0109,3.0182,3.0311,3.039,3.1025,3.1756,3.2416,3.3128,3.4407,3.5528,4.7509,4.6509,4.5874,4.5648,4.5742,4.5783,4.6189,4.6795,4.6873,4.6933,4.7002,4.6969,4.6605,4.6206,4.6117,4.6089,4.6064,4.617,4.614,4.608,4.6039,4.5974,4.5909,4.5862,4.5836,4.5766,4.5728,4.5862,4.6201,4.6513,4.6857,4.6971,4.8105,4.8817,4.8779,4.8125,4.724,4.5624,4.3893,4.2624,4.1912,4.1609,4.1214,4.0873,4.0742,4.0735,4.0569,4.019,3.9875,3.8867,3.8223,3.748,3.6894,3.6406,3.6133,3.6016,3.6269,3.623,3.6152,3.6113,3.6016,3.6016,3.6016,3.6016,3.6016,3.6016,3.6016,3.6016,3.6016,3.5996,3.6016,3.6016,3.6016,3.6016,3.6016,3.5879,3.5703,3.5508,3.5113,3.4429,3.3862,3.3314,3.2551,3.1958,3.1504,3.1074,3.0836,3.0762,3.0743,3.074,3.0682,3.0621,3.0602,3.0561,3.0472,3.0428,3.039,3.0343,3.0299,3.0311,3.0299,3.0142,2.9832,2.9813,2.9893,2.9969,3.0109,3.0254,3.0436,3.0987,3.1583,3.2429,3.3339,3.4603,3.543,4.7163,4.5682,4.5643,4.5603,4.5635,4.5747,4.5848,4.6026,4.6037,4.6083,4.6138,4.6033,4.608,4.5944,4.594,4.5967,4.5935,4.5916,4.5944,4.5944,4.5899,4.5811,4.5725,4.5684,4.5703,4.5678,4.5685,4.6088,4.6626,4.68,4.6971,4.7086,4.8202,4.8241,4.7932,4.7298,4.5643,4.4047,4.2431,4.1931,4.1517,4.1219,4.0815,4.0818,4.0797,4.0637,3.9884,3.9756,3.9121,3.791,3.75,3.7051,3.6406,3.6133,3.6016,3.6016,3.6016,3.6016,3.6016,3.6016,3.6016,3.6016,3.6016,3.6016,3.6016,3.5996,3.5996,3.5996,3.5957,3.5976,3.5996,3.6016,3.5996,3.5937,3.5859,3.5625,3.5312,3.4805,3.4328,3.3549,3.2984,3.2554,3.2086,3.1516,3.1321,3.0937,3.0898,3.082,3.082,3.0796,3.07,3.0657,3.0613,3.0552,3.04,3.0336,3.0241,3.0142,3.008,3.0169,3.0241,3.0003,2.9763,2.9796,2.9845,2.9939,3.0028,3.0241,3.0463,3.0802,3.1468,3.2622,3.3622,3.4737,3.5295,4.7514,4.643,4.5936,4.5724,4.5718,4.5769,4.582,4.5841,4.59,4.5899,4.589,4.5899,4.5881,4.5841,4.5891,4.5872,4.5859,4.5872,4.5852,4.5755,4.5667,4.5488,4.5358,4.5303,4.5268,4.562,4.5765,4.614,4.6858,4.7166,4.7671,4.8058,4.8471,4.8414,4.7913,4.6297,4.4259,4.2701,4.1527,4.1027,4.0958,4.0907,4.0718,4.079,4.0916,4.0581,3.9914,3.9335,3.8418,3.7519,3.6953,3.6465,3.6133,3.6035,3.6016,3.6016,3.6016,3.6016,3.6016,3.6016,3.6016,3.6016,3.6016,3.6016,3.5996,3.5957,3.5927,3.5918,3.5871,3.5874,3.5937,3.5937,3.5918,3.584,3.5644,3.5371,3.4863,3.4258,3.3574,3.2793,3.2402,3.2049,3.1581,3.1092,3.0995,3.0879,3.0898,3.0918,3.0879,3.0859,3.0756,3.0674,3.0652,3.0575,3.0453,3.0259,3.0075,2.9988,2.9912,2.9973,3.0066,2.9912,2.9729,2.9782,2.9864,2.9954,3.0109,3.0254,3.0451,3.0648,3.1756,3.3199,3.4122,3.4968,3.5238,4.7589,4.6636,4.6043,4.5669,4.5449,4.5447,4.5468,4.5496,4.5476,4.5589,4.5667,4.5743,4.5789,4.5744,4.564,4.562,4.5542,4.5499,4.5449,4.5353,4.517,4.5046,4.4981,4.5079,4.5401,4.5779,4.6175,4.6617,4.7427,4.7612,4.7954,4.8424,4.8726,4.8354,4.7644,4.5355,4.3104,4.1623,4.0912,4.0489,4.0539,4.0636,4.0731,4.0805,4.0944,4.0349,3.9609,3.8887,3.8066,3.7109,3.6426,3.6113,3.6016,3.6016,3.6016,3.6016,3.6016,3.6016,3.6016,3.6016,3.6016,3.6016,3.5976,3.5976,3.595,3.589,3.5825,3.5841,3.5797,3.5802,3.5903,3.5918,3.5657,3.5488,3.5176,3.4844,3.4141,3.3496,3.2773,3.2051,3.1777,3.1504,3.1367,3.0976,3.0937,3.0898,3.0898,3.0918,3.0898,3.0879,3.0818,3.074,3.0673,3.06,3.0505,3.0293,3.0119,2.9969,2.9893,2.9832,2.9832,2.9731,2.9832,3.0022,3.008,3.0061,3.0169,3.0323,3.0367,3.0417,3.1814,3.3333,3.4564,3.5295,3.5353,4.7297,4.5892,4.5827,4.5345,4.4676,4.4631,4.4669,4.4759,4.4754,4.489,4.5167,4.5418,4.5545,4.5475,4.5247,4.5167,4.5084,4.4909,4.4849,4.4943,4.4762,4.4676,4.4893,4.5227,4.5396,4.5932,4.6431,4.7113,4.8058,4.7957,4.8183,4.7753,4.7414,4.7157,4.7549,4.4759,4.2316,4.0816,4.0546,4.0508,4.0534,4.0636,4.0731,4.0807,4.0733,4.0086,3.9062,3.8476,3.7598,3.6465,3.6172,3.6016,3.6016,3.6016,3.6016,3.6016,3.6016,3.6016,3.6016,3.6016,3.5996,3.5996,3.5951,3.5916,3.588,3.5802,3.5717,3.5749,3.5766,3.586,3.591,3.5829,3.5388,3.5019,3.4707,3.4199,3.3496,3.2656,3.1934,3.1582,3.125,3.0957,3.0976,3.0918,3.0918,3.0918,3.0918,3.0918,3.0918,3.0898,3.0859,3.0792,3.0713,3.0614,3.0513,3.0337,3.0157,3.0004,2.9842,2.9765,2.9731,2.9729,2.9912,3.0215,3.0254,3.0196,3.0267,3.0398,3.0513,3.0794,3.191,3.3295,3.4622,3.5584,3.568,4.7321,4.5894,4.5875,4.5078,4.4023,4.4411,4.458,4.458,4.4606,4.4657,4.4776,4.4919,4.4943,4.4896,4.4948,4.487,4.4808,4.4745,4.4731,4.5281,4.4712,4.5084,4.5294,4.5108,4.5282,4.6305,4.6935,4.7392,4.8231,4.7998,4.7498,4.6945,4.5262,4.4331,4.4229,4.2874,4.1585,4.07,4.0489,4.0504,4.0519,4.0623,4.0726,4.0722,4.04,3.9641,3.8502,3.8081,3.7155,3.6138,3.5984,3.5991,3.6016,3.6016,3.6016,3.6016,3.6016,3.6016,3.5976,3.5957,3.5957,3.595,3.5921,3.5873,3.5877,3.5728,3.5679,3.5636,3.5619,3.5727,3.5892,3.5282,3.4805,3.4512,3.4141,3.3555,3.2832,3.1894,3.1172,3.1133,3.0918,3.0918,3.0918,3.0918,3.0918,3.0918,3.0918,3.0918,3.0918,3.0918,3.0898,3.084,3.0767,3.0665,3.0542,3.0382,3.021,3.0027,2.981,2.9589,2.9626,2.9746,2.9992,3.0273,3.0299,3.0299,3.0355,3.0456,3.0814,3.1352,3.2122,3.3276,3.4718,3.5622,3.6103,4.737,4.5957,4.5902,4.5149,4.4042,4.4135,4.4223,4.4223,4.4337,4.4392,4.4476,4.4791,4.5059,4.51,4.5161,4.5237,4.5209,4.5103,4.5156,4.5723,4.5095,4.5375,4.5448,4.5311,4.5882,4.6819,4.7277,4.7627,4.7776,4.7607,4.6605,4.4871,4.2889,4.2256,4.1934,4.1374,4.1023,4.0499,4.0489,4.0489,4.0534,4.0568,4.0662,4.056,4.0199,3.9524,3.8505,3.767,3.6949,3.6255,3.5926,3.5979,3.5996,3.6016,3.6016,3.6016,3.6016,3.5996,3.5937,3.5923,3.5916,3.5871,3.5836,3.5805,3.5788,3.5676,3.5659,3.559,3.5402,3.5334,3.5264,3.4609,3.4082,3.3769,3.332,3.2715,3.2109,3.1172,3.0996,3.0937,3.0918,3.0918,3.0918,3.0918,3.0918,3.0918,3.0918,3.0918,3.0918,3.0918,3.0918,3.0879,3.084,3.0757,3.0648,3.0515,3.0308,3.0094,2.9905,2.9713,2.9767,2.9943,3.0161,3.0318,3.033,3.0355,3.0367,3.0513,3.0717,3.1102,3.1737,3.3083,3.4737,3.5738,3.6526,4.7388,4.6049,4.5938,4.5498,4.469,4.4115,4.3747,4.3621,4.3998,4.4172,4.4202,4.5368,4.5669,4.5791,4.6091,4.6085,4.5964,4.575,4.5826,4.5845,4.5642,4.5974,4.6213,4.6287,4.6561,4.713,4.7442,4.7241,4.715,4.6304,4.493,4.315,4.1499,4.0825,4.0458,4.0444,4.0421,4.046,4.0489,4.0489,4.0519,4.0519,4.0588,4.0494,4.013,3.9363,3.8471,3.7739,3.6988,3.6353,3.5896,3.5942,3.5976,3.6016,3.6016,3.6016,3.6016,3.5976,3.5923,3.5916,3.5849,3.5812,3.5694,3.5621,3.5573,3.5503,3.5346,3.5142,3.488,3.4676,3.4453,3.3789,3.3125,3.2754,3.2344,3.1816,3.1289,3.0937,3.0937,3.0918,3.0918,3.0918,3.0918,3.0918,3.0918,3.0918,3.0918,3.0918,3.0918,3.0918,3.0918,3.0918,3.0859,3.082,3.071,3.0584,3.0471,3.0254,3.0227,3.0103,3.0136,3.0099,3.0202,3.0286,3.0355,3.0398,3.0398,3.0398,3.0436,3.091,3.1448,3.2699,3.4295,3.6219,3.7199,4.7682,4.6783,4.6764,4.6287,4.5571,4.5296,4.4892,4.4487,4.5033,4.5326,4.5397,4.5703,4.5912,4.5867,4.5572,4.5513,4.5435,4.543,4.5697,4.5867,4.6155,4.6708,4.6874,4.6781,4.7056,4.7184,4.7203,4.6763,4.6379,4.5333,4.3367,4.158,4.0475,3.9881,3.9889,3.9982,4.025,4.0441,4.0489,4.0489,4.0489,4.0489,4.0549,4.0424,3.9565,3.8788,3.8214,3.7038,3.627,3.5957,3.578,3.582,3.5996,3.6016,3.6016,3.6016,3.6016,3.5996,3.5953,3.5918,3.5873,3.5807,3.573,3.5675,3.5523,3.5298,3.5021,3.4795,3.433,3.4014,3.36,3.2969,3.2461,3.2109,3.1719,3.1289,3.0859,3.0879,3.0879,3.0918,3.0918,3.0918,3.0918,3.0918,3.0918,3.0918,3.0918,3.0918,3.0918,3.0918,3.0918,3.0918,3.0898,3.0859,3.0771,3.0654,3.0555,3.0458,3.0394,3.0325,3.0279,3.0228,3.0241,3.0286,3.0367,3.0398,3.0398,3.0402,3.0417,3.0671,3.1229,3.2506,3.391,3.5694,3.7233,4.7645,4.6746,4.6985,4.6636,4.6085,4.6581,4.6416,4.5792,4.5828,4.5902,4.592,4.6269,4.6249,4.6077,4.6015,4.593,4.5656,4.5745,4.6065,4.6553,4.6488,4.7289,4.7457,4.7038,4.6964,4.6983,4.6543,4.5792,4.5369,4.3682,4.1643,4.0818,3.9773,3.9703,3.9861,4.0139,4.0339,4.0457,4.0489,4.0489,4.0489,4.0489,4.0489,4.0239,3.9046,3.8488,3.7887,3.6568,3.6046,3.5794,3.5723,3.584,3.5996,3.6016,3.6016,3.6016,3.6016,3.5996,3.5948,3.5935,3.5877,3.5841,3.5802,3.5797,3.5694,3.5499,3.5086,3.4679,3.3922,3.3233,3.2711,3.2207,3.1894,3.1582,3.1211,3.0859,3.0801,3.082,3.0859,3.0898,3.0918,3.0918,3.0918,3.0918,3.0918,3.0918,3.0918,3.0918,3.0918,3.0918,3.0918,3.0918,3.0898,3.0878,3.0793,3.0721,3.0628,3.0542,3.0479,3.0404,3.0364,3.0336,3.0323,3.0355,3.0379,3.0402,3.0425,3.043,3.0481,3.0711,3.0897,3.1739,3.3062,3.4732,3.6105,4.7333,4.6232,4.6874,4.6893,4.6361,4.7609,4.7792,4.7168,4.6507,4.6122,4.6342,4.6893,4.6939,4.668,4.6567,4.6382,4.5871,4.5663,4.5668,4.7126,4.6946,4.7343,4.7311,4.7204,4.6837,4.6489,4.5773,4.4728,4.4021,4.2538,4.1043,4.0327,4.0125,4.0021,4.0042,4.0285,4.0457,4.0473,4.0489,4.0489,4.0489,4.0489,4.0469,4.0354,3.9623,3.8873,3.8031,3.7223,3.6522,3.6027,3.5812,3.5918,3.5976,3.6016,3.6016,3.6016,3.6016,3.5996,3.595,3.594,3.588,3.5849,3.5821,3.5884,3.5809,3.5458,3.4979,3.4452,3.374,3.292,3.2337,3.166,3.1198,3.1077,3.0872,3.0723,3.0755,3.0788,3.0859,3.0898,3.0918,3.0918,3.0918,3.0918,3.0918,3.0918,3.0918,3.0918,3.0898,3.0898,3.0898,3.0898,3.0898,3.0879,3.0859,3.0792,3.0687,3.0608,3.0547,3.0463,3.0394,3.039,3.0402,3.0419,3.0452,3.0441,3.0451,3.0482,3.0516,3.0554,3.0762,3.1022,3.2182,3.3692,3.4718,4.6985,4.7737,4.7939,4.7884,4.7774,4.8141,4.8196,4.8012,4.7847,4.7664,4.7755,4.7902,4.7844,4.7441,4.6316,4.5754,4.5428,4.4817,4.4519,4.5365,4.6054,4.6702,4.669,4.669,4.6452,4.5755,4.4801,4.3674,4.2884,4.1611,4.0715,4.061,4.034,4.0139,4.0158,4.0408,4.0489,4.0489,4.0489,4.0489,4.0489,4.0489,4.0469,4.0239,3.97,3.8931,3.8122,3.7351,3.6542,3.5891,3.587,3.5921,3.5976,3.5996,3.6016,3.6016,3.6016,3.5996,3.5976,3.5976,3.5937,3.5937,3.5957,3.5957,3.5779,3.5291,3.4782,3.4233,3.3566,3.2741,3.1909,3.1192,3.0598,3.0573,3.0555,3.0608,3.0661,3.076,3.0836,3.0859,3.0898,3.0898,3.0898,3.0898,3.0918,3.0918,3.0918,3.0898,3.0879,3.0879,3.0879,3.0879,3.0898,3.0879,3.0879,3.0857,3.0765,3.0707,3.0628,3.0545,3.0439,3.0482,3.0518,3.0524,3.0529,3.0507,3.0516,3.0567,3.0575,3.0581,3.0645,3.0901,3.1081,3.2252,3.3141,4.6746,4.7315,4.8031,4.8324,4.8324,4.8324,4.8324,4.8324,4.8324,4.8324,4.8324,4.8249,4.8007,4.7441,4.5891,4.4841,4.4478,4.3663,4.391,4.4458,4.5275,4.5954,4.6136,4.6085,4.5773,4.5149,4.3889,4.2773,4.1855,4.1367,4.0839,4.0577,4.0272,4.0267,4.0285,4.0441,4.0489,4.0489,4.0489,4.0489,4.0489,4.0489,4.0489,4.0258,3.9719,3.9027,3.8626,3.7889,3.7122,3.6391,3.615,3.5966,3.5996,3.6016,3.6016,3.6016,3.6016,3.6016,3.6016,3.5996,3.5996,3.5996,3.5976,3.5957,3.578,3.529,3.4691,3.4137,3.3563,3.2771,3.1786,3.0991,3.0424,3.0211,3.0155,3.0163,3.0397,3.0619,3.0669,3.0723,3.0723,3.0723,3.0723,3.0742,3.0742,3.0742,3.0781,3.0801,3.0781,3.0811,3.0832,3.0834,3.0836,3.0879,3.0898,3.0879,3.0835,3.0769,3.0701,3.0638,3.0564,3.0614,3.065,3.0619,3.0587,3.0568,3.0581,3.0633,3.0648,3.0652,3.0693,3.0791,3.095,3.109,3.1786,4.6599,4.6305,4.7682,4.8324,4.8324,4.8324,4.8324,4.8324,4.8324,4.8324,4.8324,4.8324,4.7481,4.6638,4.5525,4.4505,4.3658,4.3104,4.3353,4.3997,4.5138,4.521,4.5315,4.5424,4.4816,4.3977,4.2823,4.1818,4.087,4.0711,4.0592,4.0253,4.0339,4.0489,4.0489,4.0489,4.0489,4.0489,4.0489,4.0489,4.0489,4.0489,4.0489,4.0219,3.9888,3.9446,3.9168,3.875,3.7988,3.7303,3.666,3.6406,3.6172,3.6152,3.6016,3.6016,3.5976,3.5976,3.5976,3.5937,3.5957,3.5976,3.5937,3.5742,3.5545,3.4962,3.4351,3.3951,3.3381,3.2613,3.1641,3.0805,3.0248,2.9856,2.9829,2.9734,3.0028,3.0313,3.0366,3.0423,3.0471,3.0471,3.0529,3.0542,3.06,3.06,3.06,3.0606,3.0623,3.0681,3.0719,3.0726,3.0735,3.0801,3.0879,3.0879,3.084,3.08,3.0737,3.069,3.0681,3.0735,3.0735,3.0696,3.0667,3.0638,3.0657,3.0726,3.0735,3.0742,3.0765,3.0811,3.0852,3.0943,3.0841,4.6434,4.6985,4.7921,4.8324,4.8324,4.8324,4.8324,4.8324,4.8324,4.8324,4.8324,4.8306,4.8025,4.7746,4.5848,4.4731,4.4128,4.3085,4.2643,4.3095,4.4263,4.4251,4.4052,4.3975,4.3203,4.236,4.1613,4.1053,4.0608,4.0456,4.0424,4.0408,4.0406,4.0489,4.0489,4.0489,4.0489,4.0489,4.0489,4.0489,4.0489,4.0489,4.0489,4.0392,4.0369,3.9893,3.9538,3.9403,3.8864,3.8194,3.748,3.7148,3.6894,3.6601,3.6387,3.6406,3.6328,3.6169,3.6183,3.6068,3.6068,3.5837,3.565,3.5112,3.4641,3.3821,3.3465,3.3476,3.2906,3.2213,3.1303,3.0496,2.9897,2.9685,2.9568,2.9381,2.945,2.9616,2.9703,2.9851,2.9995,3.0095,3.025,3.0333,3.0535,3.0535,3.0561,3.0561,3.0554,3.0587,3.0631,3.0628,3.0643,3.0762,3.0859,3.0859,3.0818,3.0779,3.0781,3.0781,3.0801,3.084,3.084,3.0781,3.0742,3.0716,3.0767,3.0801,3.082,3.084,3.0859,3.0879,3.0879,3.0859,3.08]}]]